[[{"header":{"parameterUnit":"m.s-1","parameterCategory":1,"la1":30.6,"la2":28.766,"lo1":-90.7593,"lo2":-88.6598,"dy":0.0162,"dx":0.0183,"nx":116,"ny":114,"refTime":"2023-08-08T12:00:00:Z","depth":0,"parameterNumber":2,"parameterNumberName":"U-component_of_WINDS"},"data":[0.0,0.0,0.0,0.0,0.0,0.0,0.0,0.0,0.0,0.0,0.0,0.0,0.0,0.0,0.0,0.0,0.0,0.0,0.0,0.0,0.0,0.0,0.0,0.0,0.0,0.0,0.0,0.0,0.0,0.0,0.0,0.0,0.0,0.0,0.0,0.0,0.0,0.0,0.0,0.0,0.0,0.0,0.0,0.0,0.0,0.0,0.0,0.0,0.0,0.0,0.0,0.0,0.0,0.0,0.0,0.0,0.0,0.0,0.0,0.0,0.0,0.0,0.0,0.0,0.0,0.0,0.0,0.0,0.0,0.0,0.0,0.0,0.0,0.0,0.0,0.0,0.0,0.0,0.0,0.0,0.0,0.0,0.0,0.0,0.0,0.0,0.0,0.0,0.0,0.0,0.0,0.0,0.0,0.0,0.0,0.0,0.0,0.0,0.0,0.0,0.0,0.0,0.0,0.0,0.0,0.0,0.0,0.0,0.0,0.0,0.0,0.0,0.0,0.0,0.0,0.0,0.0,0.0,0.0,0.0,0.0,0.0,0.0,0.0,0.0,0.0,0.0,0.0,0.0,0.0,0.0,0.0,0.0,0.0,0.0,0.0,0.0,0.0,0.0,0.0,0.0,0.0,0.0,0.0,0.0,0.0,0.0,0.0,0.0,0.0,0.0,0.0,0.0,0.0,0.0,0.0,0.0,0.0,0.0,0.0,0.0,0.0,0.0,0.0,0.0,0.0,0.0,0.0,0.0,0.0,0.0,0.0,0.0,0.0,0.0,0.0,0.0,0.0,0.0,0.0,0.0,0.0,0.0,0.0,0.0,0.0,0.0,0.0,0.0,0.0,0.0,0.0,0.0,0.0,0.0,0.0,0.0,0.0,0.0,0.0,0.0,0.0,0.0,0.0,0.0,0.0,0.0,0.0,0.0,0.0,0.0,0.0,0.0,0.0,0.0,0.0,0.0,0.0,0.0,0.0,0.0,0.0,0.0,0.0,0.0,0.0,0.0,0.0,0.0,0.0,0.0,0.0,0.0,0.0,0.0,0.0,0.0,0.0,0.0,0.0,0.0,0.0,0.0,0.0,0.0,0.0,0.0,0.0,0.0,0.0,0.0,0.0,0.0,0.0,0.0,0.0,0.0,0.0,0.0,0.0,0.0,0.0,0.0,0.0,0.0,0.0,0.0,0.0,0.0,0.0,0.0,0.0,0.0,0.0,0.0,0.0,0.0,0.0,0.0,0.0,0.0,0.0,0.0,0.0,0.0,0.0,0.0,0.0,0.0,0.0,0.0,0.0,0.0,0.0,0.0,0.0,0.0,0.0,0.0,0.0,0.0,0.0,0.0,0.0,0.0,0.0,0.0,0.0,0.0,0.0,0.0,0.0,0.0,0.0,0.0,0.0,0.0,0.0,0.0,0.0,0.0,0.0,0.0,0.0,0.0,0.0,0.0,0.0,0.0,0.0,0.0,0.0,0.0,0.0,0.0,0.0,0.0,0.0,0.0,0.0,0.0,0.0,0.0,0.0,0.0,0.0,0.0,0.0,0.0,0.0,0.0,0.0,0.0,0.0,0.0,0.0,0.0,0.0,0.0,0.0,0.0,0.0,0.0,0.0,0.0,0.0,0.0,0.0,0.0,0.0,0.0,0.0,0.0,0.0,0.0,0.0,0.0,0.0,0.0,0.0,0.0,0.0,0.0,0.0,0.0,0.0,0.0,0.0,0.0,0.0,0.0,0.0,0.0,0.0,0.0,0.0,0.0,0.0,0.0,0.0,0.0,0.0,0.0,0.0,0.0,0.0,0.0,0.0,0.0,0.0,0.0,0.0,0.0,0.0,0.0,0.0,0.0,0.0,0.0,0.0,0.0,0.0,0.0,0.0,0.0,0.0,0.0,0.0,0.0,0.0,0.0,0.0,0.0,0.0,0.0,0.0,0.0,0.0,0.0,0.0,0.0,0.0,0.0,0.0,0.0,0.0,0.0,0.0,0.0,0.0,0.0,0.0,0.0,0.0,0.0,0.0,0.0,0.0,0.0,0.0,0.0,0.0,0.0,0.0,0.0,0.0,0.0,0.0,0.0,0.0,0.0,0.0,0.0,0.0,0.0,0.0,0.0,0.0,0.0,0.0,0.0,0.0,0.0,0.0,0.0,0.0,0.0,0.0,0.0,0.0,0.0,0.0,0.0,0.0,0.0,0.0,0.0,0.0,0.0,0.0,0.0,0.0,0.0,0.0,0.0,0.0,0.0,0.0,0.0,0.0,0.0,0.0,0.0,0.0,0.0,0.0,0.0,0.0,0.0,0.0,0.0,0.0,0.0,0.0,0.0,0.0,0.0,0.0,0.0,0.0,0.0,0.0,0.0,0.0,0.0,0.0,0.0,0.0,0.0,0.0,0.0,0.0,0.0,0.0,0.0,0.0,0.0,0.0,0.0,0.0,0.0,0.0,0.0,0.0,0.0,0.0,0.0,0.0,0.0,0.0,0.0,0.0,0.0,0.0,0.0,0.0,0.0,0.0,0.0,0.0,0.0,0.0,0.0,0.0,0.0,0.0,0.0,0.0,0.0,0.0,0.0,0.0,0.0,0.0,0.0,0.0,0.0,0.0,0.0,0.0,0.0,0.0,0.0,0.0,0.0,0.0,0.0,0.0,0.0,0.0,0.0,0.0,0.0,0.0,0.0,0.0,0.0,0.0,0.0,0.0,0.0,0.0,0.0,0.0,0.0,0.0,0.0,0.0,0.0,0.0,0.0,0.0,0.0,0.0,0.0,0.0,0.0,0.0,0.0,0.0,0.0,0.0,0.0,0.0,0.0,0.0,0.0,0.0,0.0,0.0,0.0,0.0,0.0,0.0,0.0,0.0,0.0,0.0,0.0,0.0,0.0,0.0,0.0,0.0,0.0,0.0,0.0,0.0,0.0,0.0,0.0,0.0,0.0,0.0,0.0,0.0,0.0,0.0,0.0,0.0,0.0,0.0,0.0,0.0,0.0,0.0,0.0,0.0,0.0,0.0,0.0,0.0,0.0,0.0,0.0,0.0,0.0,0.0,0.0,0.0,0.0,0.0,0.0,0.0,0.0,0.0,0.0,0.0,0.0,0.0,0.0,0.0,0.0,0.0,0.0,0.0,0.0,0.0,0.0,0.0,0.0,0.0,0.0,0.0,0.0,0.0,0.0,0.0,0.0,0.0,0.0,0.0,0.0,0.0,0.0,0.0,0.0,0.0,0.0,0.0,0.0,0.0,0.0,0.0,0.0,0.0,0.0,0.0,0.0,0.0,0.0,0.0,0.0,0.0,0.0,0.0,0.0,0.0,0.0,0.0,0.0,0.0,0.0,0.0,0.0,0.0,0.0,0.0,0.0,0.0,0.0,0.0,0.0,0.0,0.0,0.0,0.0,0.0,0.0,0.0,0.0,0.0,0.0,0.0,0.0,0.0,0.0,0.0,0.0,0.0,0.0,0.0,0.0,0.0,0.0,0.0,0.0,0.0,0.0,0.0,0.0,0.0,0.0,0.0,0.0,0.0,0.0,0.0,0.0,0.0,0.0,0.0,0.0,0.0,0.0,0.0,0.0,0.0,0.0,0.0,0.0,0.0,0.0,0.0,0.0,0.0,0.0,0.0,0.0,0.0,0.0,0.0,0.0,0.0,0.0,0.0,0.0,0.0,0.0,0.0,0.0,0.0,0.0,0.0,0.0,0.0,0.0,0.0,0.0,0.0,0.0,0.0,0.0,0.0,0.0,0.0,0.0,0.0,0.0,0.0,0.0,0.0,0.0,0.0,0.0,0.0,0.0,0.0,0.0,0.0,0.0,0.0,0.0,0.0,0.0,0.0,0.0,0.0,0.0,0.0,0.0,0.0,0.0,0.0,0.0,0.0,0.0,0.0,0.0,0.0,0.0,0.0,0.0,0.0,0.0,0.0,0.0,0.0,0.0,0.0,0.0,0.0,0.0,0.0,0.0,0.0,0.0,0.0,0.0,0.0,0.0,0.0,0.0,0.0,0.0,0.0,0.0,0.0,0.0,0.0,0.0,0.0,0.0,0.0,0.0,0.0,0.0,0.0,0.0,0.0,0.0,0.0,0.0,0.0,0.0,0.0,0.0,0.0,0.0,0.0,0.0,0.0,0.0,0.0,0.0,0.0,0.0,0.0,0.0,0.0,0.0,0.0,0.0,0.0,0.0,0.0,0.0,0.0,0.0,0.0,0.0,0.0,0.0,0.0,0.0,0.0,0.0,0.0,0.0,0.0,0.0,0.0,0.0,0.0,0.0,0.0,0.0,0.0,0.0,0.0,0.0,0.0,0.0,0.0,0.0,0.0,0.0,0.0,0.0,0.0,0.0,0.0,0.0,0.0,0.0,0.0,0.0,0.0,0.0,0.0,0.0,0.0,0.0,0.0,0.0,0.0,0.0,0.0,0.0,0.0,0.0,0.0,0.0,0.0,0.0,0.0,0.0,0.0,0.0,0.0,0.0,0.0,0.0,0.0,0.0,0.0,0.0,0.0,0.0,0.0,0.0,0.0,0.0,0.0,0.0,0.0,0.0,0.0,0.0,0.0,0.0,0.0,0.0,0.0,0.0,0.0,0.0,0.0,0.0,0.0,0.0,0.0,0.0,0.0,0.0,0.0,0.0,0.0,0.0,0.0,0.0,0.0,0.0,0.0,0.0,0.0,0.0,0.0,0.0,0.0,0.0,0.0,0.0,0.0,0.0,0.0,0.0,0.0,0.0,0.0,0.0,0.0,0.0,0.0,0.0,0.0,0.0,0.0,0.0,0.0,0.0,0.0,0.0,0.0,0.0,0.0,0.0,0.0,0.0,0.0,0.0,0.0,0.0,0.0,0.0,0.0,0.0,0.0,0.0,0.0,0.0,0.0,0.0,0.0,0.0,0.0,0.0,0.0,0.0,0.0,0.0,0.0,0.0,0.0,0.0,0.0,0.0,0.0,0.0,0.0,0.0,0.0,0.0,0.0,0.0,0.0,0.0,0.0,0.0,0.0,0.0,0.0,0.0,0.0,0.0,0.0,0.0,0.0,0.0,0.0,0.0,0.0,0.0,0.0,0.0,0.0,0.0,0.0,0.0,0.0,0.0,0.0,0.0,0.0,0.0,0.0,0.0,0.0,0.0,0.0,0.0,0.0,0.0,0.0,0.0,0.0,0.0,0.0,0.0,0.0,0.0,0.0,0.0,0.0,0.0,0.0,0.0,0.0,0.0,0.0,0.0,0.0,0.0,0.0,0.0,0.0,0.0,0.0,0.0,0.0,0.0,0.0,0.0,0.0,0.0,0.0,0.0,0.0,0.0,0.0,0.0,0.0,0.0,0.0,0.0,0.0,0.0,0.0,0.0,0.0,0.0,0.0,0.0,0.0,0.0,0.0,0.0,0.0,0.0,0.0,0.0,0.0,0.0,0.0,0.0,0.0,0.0,0.0,0.0,0.0,0.0,0.0,0.0,0.0,0.0,0.0,0.0,0.0,0.0,0.0,0.0,0.0,0.0,0.0,0.0,0.0,0.0,0.0,0.0,0.0,0.0,0.0,0.0,0.0,0.0,0.0,0.0,0.0,0.0,0.0,0.0,0.0,0.0,0.0,0.0,0.0,0.0,0.0,0.0,0.0,0.0,0.0,0.0,0.0,0.0,0.0,0.0,0.0,0.0,0.0,0.0,0.0,0.0,0.0,0.0,0.0,0.0,0.0,0.0,0.0,0.0,0.0,0.0,0.0,0.0,0.0,0.0,0.0,0.0,0.0,0.0,0.0,0.0,0.0,0.0,0.0,0.0,0.0,0.0,0.0,0.0,0.0,0.0,0.0,0.0,0.0,0.0,0.0,0.0,0.0,0.0,0.0,0.0,0.0,0.0,0.0,0.0,0.0,0.0,0.0,0.0,0.0,0.0,0.0,0.0,0.0,0.0,0.0,0.0,0.0,0.0,0.0,0.0,0.0,0.0,0.0,0.0,0.0,0.0,0.0,0.0,0.0,0.0,0.0,0.0,0.0,0.0,0.0,0.0,0.0,0.0,0.0,0.0,0.0,0.0,0.0,0.0,0.0,0.0,0.0,0.0,0.0,0.0,0.0,0.0,0.0,0.0,0.0,0.0,0.0,-6.0194,0.0,0.0,0.0,0.0,0.0,0.0,0.0,0.0,0.0,0.0,0.0,0.0,0.0,0.0,0.0,0.0,0.0,0.0,0.0,0.0,0.0,0.0,0.0,0.0,0.0,0.0,0.0,0.0,0.0,0.0,0.0,0.0,0.0,0.0,0.0,0.0,0.0,0.0,0.0,0.0,0.0,0.0,0.0,0.0,0.0,0.0,0.0,0.0,0.0,0.0,0.0,0.0,0.0,0.0,0.0,0.0,0.0,0.0,0.0,0.0,0.0,0.0,0.0,0.0,0.0,0.0,0.0,0.0,0.0,0.0,0.0,0.0,0.0,0.0,0.0,0.0,0.0,0.0,0.0,0.0,0.0,0.0,0.0,0.0,0.0,0.0,0.0,0.0,0.0,0.0,0.0,0.0,0.0,0.0,0.0,0.0,0.0,0.0,0.0,0.0,0.0,0.0,0.0,0.0,0.0,0.0,0.0,0.0,0.0,0.0,0.0,0.0,0.0,0.0,0.0,0.0,-6.3526,0.0,0.0,0.0,0.0,0.0,0.0,0.0,0.0,0.0,0.0,0.0,0.0,0.0,0.0,0.0,0.0,0.0,0.0,0.0,0.0,0.0,0.0,0.0,0.0,0.0,0.0,0.0,0.0,0.0,0.0,0.0,0.0,0.0,0.0,0.0,0.0,0.0,0.0,0.0,0.0,0.0,0.0,0.0,0.0,0.0,0.0,0.0,0.0,0.0,0.0,0.0,0.0,0.0,0.0,0.0,0.0,0.0,0.0,0.0,0.0,0.0,0.0,0.0,0.0,0.0,0.0,0.0,0.0,0.0,0.0,0.0,0.0,0.0,0.0,0.0,0.0,0.0,0.0,0.0,0.0,0.0,0.0,0.0,0.0,0.0,0.0,0.0,0.0,0.0,0.0,0.0,0.0,0.0,0.0,0.0,0.0,0.0,0.0,0.0,0.0,0.0,0.0,0.0,0.0,0.0,0.0,0.0,0.0,-7.4609,-7.5913,-7.642,-7.6565,-7.6601,-7.6456,-7.3783,-7.1178,-6.8603,0.0,0.0,0.0,0.0,0.0,0.0,0.0,0.0,0.0,0.0,0.0,0.0,0.0,0.0,0.0,0.0,0.0,0.0,0.0,0.0,0.0,0.0,0.0,0.0,0.0,0.0,0.0,0.0,0.0,0.0,0.0,0.0,0.0,0.0,0.0,0.0,0.0,0.0,0.0,-4.5813,-4.707,-4.716,-4.6142,-4.3399,0.0,0.0,0.0,0.0,0.0,0.0,0.0,0.0,0.0,0.0,0.0,0.0,0.0,0.0,0.0,0.0,0.0,0.0,0.0,0.0,0.0,0.0,0.0,0.0,0.0,0.0,0.0,0.0,0.0,0.0,0.0,0.0,0.0,0.0,0.0,0.0,0.0,0.0,0.0,0.0,0.0,0.0,0.0,-4.3348,-4.4811,0.0,0.0,0.0,0.0,0.0,0.0,0.0,0.0,0.0,0.0,0.0,0.0,0.0,0.0,-7.2472,-7.776,-8.0513,-8.0766,-8.5112,-8.6887,-8.6306,-8.7032,-8.7358,-8.7322,-8.6496,0.0,-7.1902,-6.9588,0.0,0.0,0.0,0.0,0.0,0.0,0.0,0.0,0.0,0.0,0.0,0.0,0.0,0.0,0.0,0.0,0.0,0.0,0.0,0.0,0.0,0.0,0.0,0.0,0.0,0.0,0.0,0.0,0.0,0.0,0.0,0.0,0.0,0.0,0.0,0.0,-4.6262,-4.8103,-4.9105,-5.0032,-5.0317,-4.9978,-4.8143,-4.6742,-4.5562,-4.2957,0.0,0.0,0.0,0.0,0.0,0.0,0.0,0.0,0.0,0.0,0.0,0.0,0.0,0.0,0.0,0.0,0.0,0.0,0.0,0.0,0.0,0.0,0.0,0.0,0.0,0.0,0.0,0.0,0.0,0.0,0.0,0.0,0.0,0.0,0.0,0.0,0.0,0.0,0.0,-4.3775,-4.5937,-4.5944,-4.79,-4.9055,0.0,0.0,0.0,0.0,0.0,0.0,0.0,0.0,0.0,-7.2183,-7.6167,-7.9426,-8.1889,-8.5728,-8.8082,-8.9024,-9.1559,-9.2827,-9.2972,-9.3732,-9.3513,-9.2496,-9.1849,-8.7914,-8.1644,-7.6576,-7.1631,-6.6925,0.0,0.0,0.0,0.0,-5.9864,-6.0181,0.0,0.0,0.0,0.0,0.0,0.0,0.0,0.0,0.0,0.0,0.0,0.0,0.0,0.0,0.0,0.0,0.0,0.0,0.0,0.0,0.0,0.0,0.0,0.0,0.0,0.0,0.0,0.0,-4.8211,-5.0533,-5.1503,-5.2326,-5.2836,-5.2955,-5.2415,-5.0319,-4.6945,-4.4471,-4.2696,0.0,0.0,0.0,0.0,0.0,0.0,0.0,0.0,0.0,0.0,0.0,0.0,0.0,0.0,0.0,0.0,0.0,0.0,0.0,0.0,0.0,0.0,0.0,0.0,0.0,0.0,0.0,0.0,0.0,0.0,0.0,0.0,0.0,0.0,0.0,0.0,0.0,0.0,-4.6312,-4.8561,-4.7289,-5.1083,-5.2921,0.0,0.0,0.0,0.0,0.0,0.0,-6.9321,-7.3523,-7.7326,-8.073,-8.475,-8.8191,-9.0943,-9.2754,-9.4348,-9.576,-9.6123,-9.663,-9.7245,-9.7745,-9.6967,-9.5198,-9.4172,-9.1956,-8.8658,-8.1972,-7.6158,-7.1061,-6.7387,-6.474,-6.313,-6.3657,-6.4011,-6.4432,0.0,0.0,0.0,0.0,0.0,0.0,0.0,0.0,0.0,0.0,0.0,0.0,0.0,0.0,0.0,0.0,0.0,-5.1917,0.0,0.0,0.0,0.0,0.0,0.0,0.0,0.0,0.0,-4.49,-4.806,-5.0528,-5.2294,-5.3557,-5.4483,-5.4928,-5.49,-5.3837,-5.1732,-4.679,-4.4844,-4.4678,0.0,0.0,0.0,0.0,0.0,0.0,0.0,0.0,0.0,0.0,0.0,0.0,0.0,0.0,0.0,0.0,0.0,0.0,0.0,0.0,0.0,0.0,0.0,0.0,0.0,0.0,0.0,0.0,0.0,0.0,0.0,0.0,0.0,0.0,0.0,0.0,0.0,0.0,0.0,-4.9117,-5.5074,0.0,0.0,0.0,0.0,-6.3752,-6.7003,-7.1205,-7.6674,-8.1491,-8.5873,-8.9821,-9.3841,-9.6738,-9.8441,-9.8585,-9.9056,-9.9889,-9.9165,-9.8839,-9.8868,-9.8616,-9.7611,-9.6018,-9.4191,-9.1661,-8.8445,-8.3228,-7.9492,-7.6492,-7.1694,-6.8898,-6.7654,-6.8201,-6.8804,-6.9434,0.0,0.0,0.0,0.0,0.0,0.0,0.0,0.0,0.0,0.0,0.0,0.0,0.0,0.0,0.0,0.0,0.0,0.0,0.0,0.0,0.0,0.0,0.0,0.0,0.0,0.0,-4.4741,-4.7248,-4.9693,-5.1874,-5.3668,-5.4117,-5.4466,-5.4627,-5.4627,-5.3849,-5.2225,-4.8953,-4.6733,-4.4952,-4.0472,-3.832,0.0,0.0,0.0,0.0,0.0,0.0,0.0,0.0,0.0,0.0,0.0,0.0,0.0,0.0,0.0,0.0,0.0,0.0,0.0,0.0,0.0,0.0,0.0,0.0,0.0,0.0,0.0,0.0,0.0,0.0,0.0,0.0,0.0,0.0,0.0,0.0,0.0,-5.6799,-6.163,0.0,0.0,-6.4487,-6.7947,-7.1647,-7.6436,-8.1382,-8.6416,-9.0292,-9.3732,-9.6666,-9.8658,-10.0396,-10.199,-10.1592,-10.1312,-10.121,-10.0417,-9.957,-9.8655,-9.8065,-9.677,-9.4893,-9.3261,-9.1122,-8.8596,-8.5826,-8.2368,-7.86,-7.6369,-7.4338,-7.268,-7.2895,-7.3078,-7.331,0.0,0.0,0.0,0.0,0.0,0.0,0.0,0.0,0.0,0.0,0.0,0.0,0.0,0.0,0.0,0.0,0.0,0.0,0.0,0.0,0.0,0.0,0.0,0.0,0.0,-4.3211,-4.5727,-4.849,-5.0186,-5.1969,-5.3782,-5.3782,-5.3876,-5.4101,-5.4262,-5.3864,-5.2967,-5.103,-4.8498,-4.5448,-4.1465,-3.9664,-3.897,0.0,0.0,0.0,0.0,0.0,0.0,0.0,0.0,0.0,0.0,0.0,0.0,0.0,0.0,0.0,0.0,0.0,0.0,0.0,0.0,0.0,0.0,0.0,0.0,0.0,0.0,0.0,0.0,0.0,0.0,0.0,0.0,0.0,0.0,0.0,-5.9873,-6.2026,-6.6792,-6.9347,-6.7977,-7.1011,-7.4886,-7.9076,-8.3829,-8.8401,-9.2688,-9.6025,-9.8527,-10.0011,-10.1412,-10.2496,-10.3229,-10.2795,-10.2106,-10.1127,-9.9932,-9.8645,-9.7274,-9.615,-9.4594,-9.2711,-9.1489,-8.9879,-8.7962,-8.6646,-8.4115,-8.1028,-8.0299,-7.8809,-7.7086,-7.6821,-7.6755,-7.6589,0.0,0.0,0.0,0.0,0.0,0.0,0.0,0.0,0.0,0.0,0.0,0.0,0.0,0.0,0.0,0.0,0.0,0.0,0.0,0.0,0.0,0.0,0.0,0.0,0.0,0.0,-4.5924,-4.8224,-4.9374,-5.0786,-5.2459,-5.2459,-5.2798,-5.34,-5.3922,-5.4158,-5.4131,-5.2981,-5.0237,-4.6395,-4.352,-4.1925,-4.111,0.0,0.0,0.0,0.0,0.0,0.0,0.0,0.0,0.0,0.0,0.0,0.0,0.0,0.0,0.0,0.0,0.0,0.0,0.0,0.0,0.0,0.0,0.0,0.0,0.0,0.0,0.0,0.0,0.0,0.0,0.0,0.0,0.0,-5.2967,-5.917,-6.3883,-6.4513,-7.0399,-7.395,-7.2846,-7.6576,-8.0962,-8.5745,-8.8748,-9.1809,-9.5091,-9.8452,-10.0083,-9.9919,-10.2306,-10.311,-10.2167,-10.2425,-10.1586,-9.9679,-9.7775,-9.6216,-9.4869,-9.2901,-9.1186,-8.9724,-8.9038,-8.7962,-8.6505,-8.555,-8.4705,-8.3943,-8.3181,-8.1989,-8.0598,-7.9902,-7.9637,-7.9173,0.0,0.0,0.0,0.0,0.0,0.0,0.0,0.0,0.0,0.0,0.0,0.0,0.0,0.0,0.0,0.0,0.0,0.0,0.0,0.0,0.0,0.0,0.0,0.0,0.0,0.0,0.0,-4.9427,-5.0185,-5.0995,-5.1831,-5.1831,-5.2171,-5.2746,-5.2903,-5.3426,-5.4131,-5.2981,-5.1858,-5.0472,-4.6342,-4.4068,-4.2892,0.0,0.0,0.0,0.0,0.0,0.0,0.0,0.0,0.0,0.0,0.0,0.0,0.0,0.0,0.0,0.0,0.0,0.0,0.0,0.0,0.0,0.0,0.0,0.0,0.0,0.0,0.0,0.0,0.0,0.0,0.0,0.0,-5.7783,-5.9053,-6.3693,-6.845,-7.2586,-7.597,-7.8808,-8.1037,-8.2596,-8.5267,-8.971,-9.2577,-9.545,-9.8336,-10.0324,-10.17,-10.2274,-10.1997,-10.161,-10.1216,-10.1881,-10.0777,-9.805,-9.7131,-9.5574,-9.3441,-9.0788,-8.9226,-8.8722,-8.801,-8.7202,-8.628,-8.6023,-8.5136,-8.3943,-8.3181,-8.1989,-8.0664,-8.0465,-7.9736,-7.8544,0.0,0.0,0.0,0.0,0.0,0.0,0.0,0.0,0.0,0.0,0.0,0.0,0.0,0.0,0.0,0.0,0.0,0.0,0.0,0.0,0.0,0.0,0.0,0.0,0.0,0.0,0.0,0.0,-5.0629,-5.1073,-5.1596,-5.1858,-5.2171,-5.2511,-5.3008,-5.3452,-5.3818,-5.3164,-5.272,-5.2223,-4.9061,-4.71,-4.5715,-4.2579,-4.1781,-4.2222,-4.1719,-4.2581,-4.3725,-4.2456,0.0,0.0,0.0,0.0,0.0,0.0,0.0,0.0,0.0,0.0,0.0,0.0,0.0,0.0,0.0,0.0,0.0,0.0,0.0,0.0,0.0,0.0,0.0,0.0,-5.9937,-6.3748,-6.6146,-6.886,-7.241,-7.7396,-7.9485,-8.1879,-8.5288,-8.6012,-8.7967,-9.2075,-9.4042,-9.6047,-9.8288,-9.956,-10.0511,-10.092,-10.0501,-10.0009,-9.9493,-10.0378,-9.9338,-9.6131,-9.5372,-9.3812,-9.1514,-8.9123,-8.7987,0.0,-8.7455,-8.7024,-8.6593,-8.5964,-8.5235,0.0,0.0,0.0,0.0,0.0,-7.9107,-7.7484,0.0,0.0,0.0,0.0,0.0,0.0,0.0,0.0,0.0,0.0,0.0,0.0,0.0,0.0,0.0,0.0,0.0,0.0,0.0,0.0,0.0,0.0,0.0,0.0,0.0,0.0,0.0,0.0,0.0,-5.1335,-5.1805,-5.2354,-5.2642,-5.272,-5.3739,-5.3975,-5.3583,-5.3452,-5.3086,-5.2485,-5.1335,-5.0159,-4.878,-4.5645,-4.5368,-4.649,-4.5244,-4.5293,-4.5771,-4.5084,0.0,0.0,0.0,0.0,0.0,0.0,0.0,0.0,0.0,0.0,0.0,0.0,0.0,0.0,0.0,0.0,0.0,0.0,0.0,0.0,0.0,0.0,0.0,0.0,-6.5392,-6.9533,-7.321,-7.4256,-7.6074,-7.9788,-8.1579,-8.3821,-8.7056,-8.7645,-8.9449,-9.3242,-9.4063,-9.5023,-9.6457,0.0,0.0,0.0,0.0,-9.8618,-9.7533,-9.8664,-9.7594,-9.4349,-9.3325,-9.1802,-8.9749,-8.8136,-8.7355,-8.7289,-8.7289,-8.719,-8.6925,-8.5633,-8.5003,-8.4805,-8.4043,-8.2883,-8.1492,-8.0034,-7.8212,-7.6424,0.0,0.0,0.0,0.0,0.0,0.0,0.0,0.0,0.0,0.0,0.0,0.0,0.0,0.0,0.0,0.0,0.0,0.0,0.0,0.0,0.0,0.0,0.0,0.0,0.0,0.0,0.0,0.0,0.0,0.0,-5.306,-5.3164,-5.3452,-5.387,-5.4105,-5.4419,-5.4707,-5.3792,-5.3321,-5.3112,-5.1936,-5.0498,-4.9022,-4.8364,-4.7915,-4.7628,-4.7855,-4.9186,-5.0564,-4.888,-4.8476,-4.8356,-4.6411,0.0,0.0,0.0,0.0,0.0,0.0,0.0,0.0,0.0,0.0,0.0,0.0,0.0,0.0,0.0,0.0,0.0,0.0,0.0,0.0,-6.473,-6.9169,-7.331,-7.6954,-7.9061,-8.0418,-8.0867,-8.3075,-8.5691,-8.8605,-8.9001,-9.0314,-9.325,-9.484,-9.594,-9.655,-9.7758,0.0,-9.8634,-9.8255,-9.7559,-9.6602,-9.8207,-9.7243,-9.3886,0.0,0.0,-9.0283,-8.8774,-8.7819,-8.7289,-8.7289,-8.6593,-8.55,-8.5235,-8.4407,-8.3248,-8.2519,-8.1691,-8.073,-7.9272,-7.808,-7.702,0.0,0.0,0.0,0.0,0.0,0.0,0.0,0.0,0.0,0.0,0.0,0.0,0.0,0.0,0.0,0.0,0.0,0.0,0.0,0.0,0.0,0.0,0.0,0.0,0.0,0.0,0.0,0.0,0.0,0.0,-5.3818,-5.4105,-5.455,-5.5072,-5.536,-5.536,-5.5072,-5.4497,-5.3739,-5.2903,-5.2276,-5.1204,-4.9939,-5.0309,-5.0298,-5.0294,-5.0911,-5.2043,-5.2965,-5.1289,-5.096,-5.081,-4.8506,-4.6508,-4.4774,0.0,0.0,0.0,0.0,0.0,0.0,0.0,0.0,0.0,0.0,0.0,0.0,0.0,0.0,-5.497,0.0,0.0,-6.526,-6.9633,-7.2813,-7.5728,-7.8676,-8.0631,-8.1846,-8.2012,-8.419,-8.6479,-8.8568,-8.916,-9.0549,-9.3423,-9.444,-9.5268,-9.626,-9.6905,-9.7108,-9.6899,-9.6866,-9.628,-9.5042,-9.6649,-9.6029,-9.3219,-9.2986,-9.1825,-8.9906,-8.8449,-8.762,-8.7256,-8.6892,-8.6295,-8.56,-8.4838,-8.391,-8.2817,-8.2088,-8.1326,-8.0465,-7.8643,-7.7484,-7.6722,0.0,0.0,0.0,0.0,0.0,0.0,0.0,0.0,0.0,0.0,0.0,0.0,0.0,0.0,0.0,0.0,0.0,0.0,0.0,0.0,0.0,0.0,0.0,0.0,0.0,0.0,0.0,0.0,0.0,0.0,0.0,-5.5203,-5.5674,-5.6118,-5.6588,-5.6223,-5.5255,-5.502,-5.4053,-5.2642,-5.2406,-5.1941,-5.139,-5.1814,-5.2259,-5.26,-5.329,-5.3588,-5.3533,-5.2815,-5.2247,-5.1575,-5.0186,-4.9491,-4.8718,-4.6369,-4.6258,0.0,0.0,0.0,0.0,0.0,0.0,0.0,0.0,0.0,-5.2241,-5.5885,-5.7806,-6.0158,-6.463,-6.7347,-7.0129,-7.3972,-7.5927,-7.7616,-7.9571,-8.1094,-8.2287,-8.3016,-8.4937,-8.6726,-8.8184,-8.9111,-9.0602,-9.2987,-9.3683,-9.4478,-9.5505,-9.5836,-9.567,-9.4908,-9.5471,-9.5206,-9.4014,-9.5206,-9.4875,-9.3119,-9.2358,-9.1165,-8.9575,-8.8283,-8.7554,-8.7223,-8.6362,-8.5865,-8.5666,-8.4341,-8.3446,-8.2817,-8.1923,-8.1194,-8.0432,-7.8212,-7.6954,-7.6192,0.0,0.0,0.0,0.0,0.0,0.0,0.0,0.0,0.0,0.0,0.0,0.0,0.0,0.0,0.0,0.0,0.0,0.0,0.0,0.0,0.0,0.0,0.0,0.0,0.0,0.0,0.0,0.0,0.0,0.0,0.0,-5.6588,-5.6641,-5.6719,-5.6771,-5.6432,-5.5752,-5.4733,-5.3922,-5.3191,-5.2119,-5.228,-5.3233,-5.3234,-5.2911,-5.2627,-5.3737,-5.3017,-5.1798,-5.3443,-5.2396,-5.0949,-5.3957,-5.3252,-5.1208,-5.0466,0.0,-4.6709,-4.5695,-4.6149,-4.7338,-4.916,-5.0253,-5.2407,0.0,0.0,-5.9827,-6.3438,-6.5359,-6.6982,-6.8837,-7.1521,-7.4005,-7.5794,-7.7881,-7.9571,-8.0432,-8.1856,-8.3049,-8.3811,-8.5235,-8.6726,-8.8184,-8.9575,-9.0536,-9.0867,-9.3318,-9.4577,-9.408,-9.5306,-9.567,-9.4908,-9.4975,-9.4941,-9.4776,-9.4941,-9.4908,-9.4643,-9.3914,-9.2457,-9.037,-8.9542,-8.8482,-8.719,-8.5832,-8.4838,-8.4175,-8.3347,-8.2983,-8.2751,-8.1359,-8.0763,-8.0432,-7.8212,-7.6954,-7.6125,0.0,0.0,0.0,0.0,0.0,0.0,0.0,0.0,0.0,0.0,0.0,0.0,0.0,0.0,0.0,0.0,0.0,0.0,0.0,0.0,0.0,0.0,0.0,0.0,0.0,0.0,0.0,0.0,0.0,0.0,0.0,0.0,-5.766,-5.8287,-5.7948,-5.7477,-5.6876,-5.6066,-5.4994,-5.3792,-5.2981,-5.274,-5.2919,-5.2821,-5.2146,-5.1351,-5.2171,-5.1439,0.0,0.0,-5.0276,-5.0587,-5.169,-5.1962,-5.1461,-4.9561,-4.8955,0.0,-4.8961,-4.926,0.0,0.0,-5.4229,-5.7309,-6.092,-6.2477,-6.4299,-6.8407,-7.0096,-7.1521,-7.3807,-7.5231,-7.639,0.0,-7.8742,-7.9869,-8.0598,-8.0863,-8.1426,-8.2585,-8.3248,-8.4705,-8.7455,-8.8647,-8.9774,-9.1032,-9.2258,-9.3219,-9.3749,-9.4776,-9.4842,-9.3649,-9.4875,-9.514,-9.4279,-9.5107,-9.5538,-9.5538,-9.3914,-9.2457,-9.1099,-8.9509,-8.7753,-8.5964,-8.4904,-8.4043,-8.3347,-8.3016,-8.2651,-8.2154,-8.1094,-8.0167,-7.9206,-7.7417,-7.6589,-7.6092,0.0,0.0,0.0,0.0,0.0,0.0,0.0,0.0,0.0,0.0,0.0,0.0,0.0,0.0,0.0,0.0,0.0,0.0,0.0,0.0,0.0,0.0,0.0,0.0,0.0,0.0,0.0,0.0,0.0,0.0,0.0,0.0,-5.8732,-5.9333,-5.8758,-5.8209,-5.7678,-5.6719,-5.5517,-5.4131,-5.3629,-5.3128,-5.2681,-5.2071,-5.1047,-5.0038,-5.0305,-4.9105,0.0,0.0,-4.7551,-4.8666,-4.9326,-5.0445,-5.1236,-4.9231,-4.9241,-5.0021,-5.0551,0.0,0.0,-5.5256,-5.9131,-6.2875,-6.4763,-6.6717,-6.9169,-7.2746,-7.3773,-7.4767,-7.7252,-7.755,0.0,-7.8411,-7.8974,-7.9504,-8.0034,-7.9637,-7.9637,-8.0498,-8.0763,-8.2088,-8.5169,-8.7024,-8.8846,-9.0834,-9.1364,-9.2159,-9.3418,-9.4378,-9.4312,-9.302,-9.4743,-9.5173,-9.4113,-9.5173,-9.5703,-9.567,-9.3649,-9.2192,-9.1198,-8.8813,-8.666,-8.4771,-8.4241,-8.3579,-8.2883,-8.2684,-8.2154,-8.1393,-8.0465,-7.9339,-7.8047,-7.6556,-7.6026,-7.5827,0.0,0.0,0.0,0.0,0.0,0.0,0.0,0.0,0.0,0.0,0.0,0.0,0.0,0.0,0.0,0.0,0.0,0.0,0.0,0.0,0.0,0.0,0.0,0.0,0.0,0.0,0.0,0.0,0.0,0.0,0.0,0.0,0.0,-5.9333,-5.8758,-5.8209,-5.7625,-5.5857,-5.4785,-5.4184,-5.3619,-5.3398,-5.3164,-5.1127,-4.993,-4.9254,-4.8596,0.0,0.0,0.0,-4.4596,-4.4328,-4.8488,-5.029,0.0,-5.113,-5.022,0.0,0.0,0.0,-5.6514,-6.0821,-6.5194,-6.9202,-7.2117,-7.3906,-7.5397,-7.6954,-7.6689,-7.6689,-7.8212,-7.7914,-7.7649,-7.8411,-7.8544,-7.8577,-7.8577,-7.8577,-7.8312,-7.7616,-7.8179,-7.9206,0.0,-8.4771,-8.7919,-8.9376,-9.0801,-9.1927,-9.2689,-9.4113,-9.4544,-9.3782,-9.4511,-9.4908,-9.4875,-9.4908,-9.4941,-9.4908,-9.3418,-9.1927,-9.0469,-8.7554,-8.5434,-8.4043,-8.401,-8.3579,-8.285,-8.2121,-8.1393,-8.0598,-7.914,-7.8113,-7.7285,-7.5827,-7.5297,-7.5098,0.0,0.0,0.0,0.0,0.0,0.0,0.0,0.0,0.0,0.0,0.0,0.0,0.0,0.0,0.0,0.0,0.0,0.0,0.0,0.0,0.0,0.0,0.0,0.0,0.0,0.0,0.0,0.0,0.0,0.0,0.0,0.0,0.0,0.0,-5.7817,-5.7268,-5.7007,-5.5674,-5.4994,-5.4708,-5.3297,-5.2955,-5.2995,-5.0125,-4.8072,-4.6262,0.0,0.0,0.0,0.0,0.0,0.0,-4.3106,-4.5049,0.0,-4.8068,-4.9061,-5.0585,0.0,0.0,-6.2444,-6.685,-7.0163,-7.2978,-7.5397,-7.6357,-7.6821,-7.7318,-7.6059,-7.4734,-7.427,-7.4005,-7.4072,-7.48,-7.6954,-7.8709,-7.9173,-8.0067,-7.9703,-7.6987,-7.861,0.0,0.0,0.0,0.0,-8.7786,-8.8879,-8.9939,-9.1198,-9.2656,-9.3318,-9.3053,-9.4246,-9.4908,-9.4908,-9.4908,-9.4643,-9.4113,-9.1198,-8.9277,-8.8283,-8.5832,-8.4473,-8.3976,-8.348,-8.285,-8.2154,-8.1889,-8.0796,-7.9206,-7.8709,-7.7484,-7.5927,-7.5463,-7.4668,-7.3707,0.0,0.0,0.0,0.0,0.0,0.0,0.0,0.0,0.0,0.0,0.0,0.0,0.0,0.0,0.0,0.0,0.0,0.0,0.0,0.0,0.0,0.0,0.0,0.0,0.0,0.0,0.0,0.0,0.0,0.0,0.0,0.0,0.0,0.0,-5.5778,-5.5386,-5.5491,-5.4131,-5.3191,-5.2533,-5.1453,-5.0492,-4.9434,-4.7142,-4.5001,0.0,0.0,0.0,0.0,0.0,0.0,0.0,0.0,-4.31,-4.6146,-4.7636,-5.0386,-5.3997,-5.8833,-6.314,-6.7512,-7.2713,-7.5065,-7.6689,-7.8875,-7.8776,-7.7914,-7.6854,-7.4701,-7.2548,-7.109,-7.0163,-7.0063,-7.1322,-7.3707,-7.5927,-7.7484,-7.8908,-7.9041,-7.6954,-7.8378,0.0,0.0,0.0,0.0,-8.6229,-8.762,-8.8846,-9.0072,-9.1993,-9.3086,-9.3086,-9.4511,-9.5173,-9.4908,-9.4643,-9.3749,-9.2192,-8.931,-8.7422,-8.6461,-8.4771,-8.3877,-8.3579,-8.2817,-8.2088,-8.1359,-8.0829,-7.9471,-7.7715,-7.745,-7.6357,-7.4833,-7.4602,-7.374,-7.2647,0.0,0.0,0.0,0.0,0.0,0.0,0.0,0.0,0.0,0.0,0.0,0.0,0.0,0.0,0.0,0.0,0.0,0.0,0.0,0.0,0.0,0.0,0.0,0.0,-4.4487,-4.514,-4.6003,-4.7153,0.0,0.0,0.0,0.0,0.0,0.0,-5.2668,-5.2459,-5.2798,-5.1214,-4.9513,-4.7985,-4.8265,-4.6308,-4.3195,-4.2519,0.0,0.0,0.0,0.0,0.0,0.0,0.0,0.0,0.0,0.0,-4.8498,-5.0155,-5.4232,-5.9131,-6.357,-6.7479,-7.1819,-7.8146,-7.9682,-8.0266,-8.2287,-8.0995,-7.8577,-7.5662,-7.2614,-7.003,0.0,0.0,-6.5989,-6.8208,-6.9434,-7.109,-7.4122,-7.5794,-7.6954,0.0,0.0,0.0,0.0,0.0,0.0,-8.4805,0.0,-8.8614,-8.9376,-9.2126,-9.3683,-9.3749,-9.5107,-9.5471,-9.4743,-9.3914,-9.2093,-8.931,-8.7852,-8.6428,-8.5037,-8.4275,-8.3579,-8.285,-8.2121,-8.1359,-8.0531,-7.9107,-7.7616,-7.6192,-7.5529,-7.4884,-7.4122,-7.3343,-7.2614,-7.1985,0.0,0.0,0.0,0.0,0.0,0.0,0.0,0.0,0.0,0.0,0.0,0.0,0.0,0.0,0.0,0.0,0.0,0.0,0.0,0.0,0.0,0.0,0.0,0.0,0.0,-4.2317,-4.3624,0.0,0.0,0.0,0.0,0.0,0.0,0.0,0.0,-4.7362,-4.632,-4.64,-4.5955,-4.5126,0.0,-4.4447,-4.3799,0.0,0.0,0.0,0.0,0.0,0.0,0.0,0.0,0.0,0.0,-4.8663,-5.1282,-5.5454,-5.9893,-6.4432,-6.8871,-7.3508,-7.7782,-8.0564,-8.1227,-8.1094,-8.0564,-7.8345,-7.5562,-7.2614,-6.8374,-6.4597,0.0,0.0,0.0,-6.6618,-7.0891,0.0,-7.8544,-8.1227,0.0,-8.0101,0.0,-8.2419,-8.0598,-8.1923,0.0,0.0,-8.6295,-8.8084,-8.9343,-9.1165,-9.2391,-9.2954,-9.3351,-9.3186,-9.2424,-9.0635,-8.9078,-8.7819,-8.6362,-8.5169,-8.4275,-8.3513,-8.3082,-8.285,-8.2121,-8.1061,-7.9836,-7.8908,-7.7351,-7.5529,-7.5363,-7.4884,-7.4005,-7.2746,-7.215,-7.1852,0.0,0.0,0.0,0.0,0.0,0.0,0.0,0.0,0.0,0.0,0.0,0.0,0.0,0.0,0.0,0.0,0.0,0.0,0.0,0.0,0.0,0.0,0.0,0.0,0.0,0.0,0.0,0.0,0.0,0.0,0.0,0.0,0.0,0.0,0.0,-4.2863,-4.2507,0.0,0.0,0.0,0.0,0.0,0.0,0.0,0.0,0.0,0.0,0.0,0.0,0.0,0.0,-4.7073,-5.0419,-5.3135,-5.6051,-6.0854,0.0,-6.9666,-7.3773,-7.7881,-8.1426,-8.2883,-8.2254,-8.0829,-7.9074,-7.5894,-7.225,-6.8341,-6.4233,0.0,0.0,0.0,0.0,0.0,0.0,0.0,-7.8511,-8.179,-8.3745,0.0,-8.5235,0.0,-8.3745,-8.4407,-8.497,0.0,-8.6693,-8.8084,-8.8879,-9.0933,-9.2258,-9.2689,-9.2689,-9.2026,-9.0635,-8.878,-8.7488,-8.6759,-8.5302,-8.4407,-8.3976,-8.3248,-8.2883,-8.2817,0.0,-8.02,-7.9041,-7.7649,-7.6192,-7.4767,-7.4436,-7.4072,-7.3541,-7.2051,-7.1521,-7.1355,0.0,0.0,0.0,0.0,0.0,0.0,0.0,0.0,0.0,0.0,0.0,0.0,0.0,0.0,0.0,0.0,0.0,0.0,0.0,0.0,0.0,0.0,0.0,0.0,0.0,0.0,0.0,0.0,0.0,0.0,0.0,0.0,0.0,0.0,0.0,0.0,0.0,0.0,0.0,0.0,0.0,0.0,0.0,0.0,0.0,0.0,0.0,0.0,0.0,0.0,-5.0121,-5.1779,-5.4957,-5.8336,-6.2047,-6.6519,-7.0693,-7.4602,-7.8146,-8.1094,-8.348,-8.4672,-8.2817,-8.0001,-7.7417,-7.3376,-6.8738,-6.3736,0.0,-5.7574,-5.5648,0.0,-5.6939,-6.1152,0.0,-6.9732,-7.7252,-8.0664,-8.3844,-8.7852,-8.7852,-8.7554,-8.7554,-8.6892,-8.6461,-8.6461,-8.762,-8.8349,-8.8449,-9.1066,-9.249,-9.2391,-9.2291,-9.1264,-8.9144,-8.7786,-8.6693,-8.5865,-8.4606,-8.3943,-8.3844,-8.3181,-8.2784,-8.2486,0.0,0.0,-7.808,-7.6092,-7.4884,-7.4155,-7.3376,-7.3045,-7.278,-7.1289,-7.0759,-7.0659,0.0,0.0,0.0,0.0,0.0,0.0,0.0,0.0,0.0,0.0,-3.215,0.0,0.0,0.0,0.0,0.0,0.0,0.0,0.0,0.0,0.0,0.0,0.0,0.0,0.0,0.0,0.0,0.0,0.0,0.0,0.0,0.0,0.0,0.0,0.0,0.0,0.0,0.0,0.0,0.0,0.0,0.0,0.0,0.0,0.0,0.0,0.0,0.0,0.0,0.0,-5.2904,-5.7309,-6.2047,-6.5194,-6.8175,-7.3144,-7.6026,-7.8246,-8.1293,-8.3413,-8.4639,-8.4275,-8.2419,-7.9504,-7.49,-6.9964,0.0,0.0,0.0,-5.4262,-5.3864,-5.4754,0.0,-6.4498,0.0,0.0,0.0,0.0,-8.613,0.0,0.0,0.0,0.0,0.0,0.0,0.0,0.0,0.0,-8.921,-9.0834,-9.1496,-9.0933,-9.0304,-8.9244,-8.7654,-8.6792,-8.5699,-8.4374,-8.4109,-8.3678,-8.3082,-8.295,-8.2221,-8.1028,0.0,0.0,-7.6622,-7.5662,-7.4884,-7.4155,-7.3376,-7.2746,-7.2018,-7.0527,-6.9997,-6.9864,0.0,0.0,0.0,0.0,0.0,0.0,0.0,0.0,0.0,0.0,-3.4084,-3.3117,0.0,0.0,0.0,0.0,0.0,0.0,0.0,0.0,0.0,0.0,0.0,0.0,0.0,0.0,0.0,0.0,0.0,0.0,0.0,0.0,0.0,0.0,0.0,0.0,0.0,0.0,0.0,0.0,0.0,0.0,0.0,0.0,0.0,0.0,0.0,0.0,0.0,0.0,-5.3533,-5.9264,-6.4399,-6.8539,-7.2183,-7.5363,-7.8179,-8.0697,-8.2883,-8.5103,-8.6428,-8.4937,-8.232,-7.8511,-7.2216,0.0,0.0,0.0,0.0,-5.2307,-5.2307,0.0,0.0,0.0,0.0,0.0,0.0,0.0,0.0,0.0,0.0,0.0,0.0,0.0,0.0,0.0,0.0,0.0,-8.9409,-9.0436,-9.0701,-8.9972,-8.8879,-8.7786,-8.6726,-8.56,-8.4705,-8.401,-8.3612,-8.3248,-8.2883,-8.2486,-8.1724,-8.0598,-7.9107,0.0,-7.6225,-7.5132,-7.4553,-7.4155,-7.3376,-7.2647,-7.1885,-7.0759,-7.0129,-6.9732,0.0,0.0,0.0,0.0,0.0,0.0,0.0,-3.262,-3.3927,-3.6358,-3.607,-3.5312,-3.4424,-3.3169,-3.2032,0.0,0.0,0.0,0.0,0.0,0.0,0.0,0.0,0.0,0.0,0.0,0.0,0.0,0.0,0.0,0.0,0.0,0.0,0.0,0.0,0.0,0.0,0.0,0.0,0.0,0.0,0.0,0.0,0.0,0.0,0.0,0.0,0.0,0.0,0.0,-5.2738,-5.8138,-6.3107,-6.8705,-7.3707,-7.4999,-7.8312,-8.1889,-8.338,-8.5898,-8.762,-8.56,-8.2121,-7.7285,-7.0096,-6.3835,0.0,0.0,-5.158,-5.1082,-5.1282,0.0,0.0,0.0,0.0,0.0,0.0,0.0,0.0,0.0,0.0,0.0,0.0,0.0,0.0,0.0,0.0,0.0,0.0,-9.0204,-9.0039,-8.8979,-8.7852,-8.6759,-8.5732,-8.4573,-8.391,-8.3778,-8.3181,-8.2817,-8.2651,-8.2055,-8.1128,-7.9902,-7.8146,0.0,0.0,-7.4635,-7.4221,-7.4122,-7.321,-7.2415,-7.1686,-7.0924,-7.0196,-6.9566,0.0,0.0,0.0,0.0,0.0,0.0,0.0,-3.3535,-3.526,-3.8109,-3.7534,-3.6802,-3.6698,-3.5182,-3.3509,0.0,0.0,0.0,0.0,0.0,0.0,0.0,0.0,0.0,0.0,0.0,0.0,0.0,0.0,0.0,0.0,0.0,0.0,0.0,0.0,0.0,0.0,0.0,0.0,0.0,0.0,0.0,0.0,0.0,0.0,0.0,0.0,0.0,0.0,0.0,0.0,-5.2774,-5.721,-6.4399,-7.1355,-7.215,0.0,0.0,-8.2585,-8.5136,-8.6991,-8.55,-8.1326,-7.586,-6.9188,0.0,0.0,0.0,-5.0817,-5.0518,-5.1183,-5.1481,0.0,0.0,0.0,0.0,0.0,0.0,0.0,0.0,0.0,0.0,0.0,0.0,0.0,0.0,0.0,0.0,0.0,-9.0469,-8.9575,-8.7554,-8.7355,-8.6295,-8.4208,-8.4076,-8.3678,-8.2983,-8.2916,-8.2552,-8.1889,-8.1823,-8.0299,-7.7715,0.0,0.0,0.0,-7.4288,-7.4221,-7.4089,-7.2647,-7.1653,-7.0924,-7.0163,-6.9434,-6.8904,0.0,0.0,0.0,0.0,0.0,0.0,0.0,-3.2359,-3.4031,-3.7273,-3.7273,-3.7142,-3.7508,-3.6593,-3.4999,0.0,0.0,0.0,0.0,0.0,0.0,0.0,0.0,0.0,0.0,0.0,0.0,0.0,0.0,0.0,0.0,0.0,0.0,0.0,0.0,0.0,0.0,0.0,0.0,0.0,0.0,0.0,0.0,0.0,0.0,0.0,0.0,0.0,0.0,0.0,0.0,0.0,-5.1479,-5.6415,0.0,0.0,-7.2879,-7.7583,-8.1227,-8.4374,-8.6262,-8.4805,-8.0266,-7.4502,-6.8374,0.0,0.0,-5.1945,-5.0717,-5.0419,-5.1148,-5.168,-5.2837,0.0,0.0,0.0,0.0,0.0,0.0,0.0,0.0,0.0,0.0,0.0,0.0,0.0,0.0,0.0,0.0,-8.9608,-8.9078,-8.7322,-8.6428,-8.5335,-8.401,-8.3579,-8.3181,-8.2883,-8.2883,-8.2519,-8.1757,-8.0896,-7.9372,-7.7351,0.0,0.0,0.0,-7.4221,-7.3782,-7.3083,-7.2795,-7.1787,-7.0365,-6.9697,-6.9401,-6.924,0.0,0.0,0.0,0.0,0.0,0.0,-3.0477,-3.1496,-3.3103,-3.6123,-3.6645,-3.6959,-3.756,-3.6959,-3.5678,-3.3639,0.0,0.0,0.0,0.0,0.0,0.0,0.0,0.0,0.0,0.0,-3.1876,-3.2058,0.0,0.0,0.0,0.0,0.0,0.0,0.0,0.0,0.0,0.0,0.0,0.0,0.0,0.0,0.0,0.0,0.0,0.0,0.0,0.0,0.0,0.0,0.0,0.0,0.0,0.0,0.0,0.0,-6.8606,-7.3807,-7.808,-8.1989,-8.454,-8.3082,-7.8477,-7.2879,0.0,0.0,0.0,-5.1812,-5.0883,-5.0684,-5.1216,-5.1746,-5.2274,0.0,0.0,0.0,0.0,0.0,0.0,0.0,0.0,0.0,0.0,0.0,0.0,0.0,0.0,0.0,0.0,0.0,-8.8117,-8.6693,-8.5434,-8.444,-8.3678,-8.3148,-8.2784,-8.2552,-8.2552,-8.2055,-8.1094,-7.9507,-7.8122,0.0,0.0,0.0,0.0,-7.3679,-7.2809,-7.1564,-7.1675,-7.0772,-6.929,-6.839,-6.8251,-6.8307,0.0,0.0,0.0,0.0,0.0,0.0,0.0,-3.1601,-3.3326,-3.5077,-3.5783,-3.6358,-3.6959,-3.5992,-3.5312,-3.5286,0.0,0.0,0.0,0.0,0.0,0.0,0.0,0.0,0.0,0.0,-3.2084,-3.2672,-3.33,-3.3587,0.0,0.0,0.0,0.0,0.0,0.0,0.0,0.0,0.0,0.0,0.0,0.0,0.0,0.0,0.0,0.0,0.0,0.0,0.0,0.0,0.0,0.0,0.0,0.0,0.0,0.0,-6.357,-7.0328,-7.2581,-7.7417,-8.1492,-8.0034,-7.5827,-7.0891,0.0,0.0,0.0,-5.1877,-5.1315,-5.1315,-5.1315,-5.1315,-5.1547,-5.231,0.0,0.0,0.0,0.0,0.0,0.0,0.0,0.0,0.0,0.0,0.0,0.0,0.0,0.0,0.0,0.0,-8.6627,-8.5169,-8.4407,-8.3645,-8.2916,-8.2883,-8.2519,-8.179,-8.179,-8.1028,-7.9583,-7.7595,0.0,0.0,0.0,0.0,0.0,-7.2432,-7.1316,-6.9548,-6.8852,-6.8125,-6.7387,-6.5943,-6.5457,-6.5516,0.0,0.0,0.0,0.0,0.0,0.0,0.0,-2.9144,-3.0503,-3.2607,-3.343,-3.4293,-3.5678,-3.5521,-3.5286,-3.5286,0.0,0.0,0.0,0.0,0.0,0.0,0.0,0.0,0.0,0.0,-3.2698,-3.33,-3.4293,-3.5073,-3.5708,-3.5521,-3.5731,0.0,0.0,0.0,0.0,0.0,0.0,0.0,0.0,0.0,0.0,0.0,0.0,0.0,0.0,0.0,0.0,0.0,0.0,0.0,0.0,0.0,0.0,0.0,0.0,0.0,-6.6717,-6.9931,-7.1985,-7.1554,-6.8341,-6.4531,-6.1616,0.0,0.0,0.0,-5.1647,-5.1448,-5.1978,-5.2078,-5.244,-5.3632,0.0,0.0,0.0,0.0,0.0,0.0,0.0,0.0,0.0,0.0,0.0,0.0,0.0,0.0,0.0,0.0,-8.5368,-8.4374,-8.4142,-8.3645,-8.2916,-8.2883,-8.2519,-8.179,-8.041,-7.9055,-7.7562,-7.5121,0.0,0.0,0.0,0.0,0.0,-7.07,-6.9635,-6.8313,-6.7958,-6.6915,-6.5468,-6.4652,-6.4528,-6.4748,0.0,0.0,0.0,0.0,0.0,0.0,0.0,-2.802,-2.8987,-3.066,-3.1548,-3.262,-3.4136,-3.4528,-3.4737,-3.4946,0.0,0.0,0.0,0.0,0.0,0.0,0.0,0.0,0.0,-3.2437,-3.33,-3.3901,-3.6108,-3.7246,-3.7368,-3.8325,-3.8479,-3.7986,-3.7901,0.0,0.0,0.0,0.0,0.0,0.0,0.0,-4.3709,0.0,0.0,0.0,0.0,0.0,0.0,0.0,0.0,0.0,0.0,0.0,0.0,0.0,-5.0618,0.0,0.0,-6.42,-6.6187,-6.5359,-6.304,0.0,0.0,0.0,0.0,0.0,0.0,0.0,0.0,0.0,0.0,0.0,0.0,0.0,0.0,0.0,0.0,0.0,0.0,0.0,0.0,0.0,0.0,0.0,0.0,0.0,0.0,0.0,-8.4341,-8.3612,-8.3579,-8.338,-8.2883,-8.2618,-8.1731,-8.0283,-7.8763,-7.7058,-7.5185,0.0,0.0,0.0,0.0,0.0,0.0,-6.9171,-6.8086,-6.6711,-6.6041,-6.4949,-6.3609,-6.2726,-6.284,-6.3358,0.0,0.0,0.0,0.0,0.0,0.0,0.0,0.0,0.0,0.0,-3.0189,-3.1339,-3.2437,-3.3143,-3.3744,0.0,0.0,0.0,0.0,0.0,0.0,0.0,0.0,0.0,-3.185,-3.3012,-3.3916,-3.4575,-3.8405,-3.9786,-3.889,-4.2367,-4.2378,-3.9479,-4.027,-3.9858,0.0,0.0,0.0,0.0,0.0,-4.3015,0.0,0.0,0.0,0.0,0.0,0.0,0.0,0.0,0.0,0.0,0.0,0.0,0.0,0.0,0.0,0.0,0.0,0.0,0.0,0.0,0.0,0.0,0.0,0.0,0.0,0.0,0.0,0.0,0.0,0.0,0.0,0.0,0.0,0.0,0.0,0.0,0.0,0.0,0.0,0.0,0.0,0.0,0.0,0.0,0.0,0.0,0.0,0.0,0.0,-8.2704,-8.2638,-8.2638,-8.2704,-8.1943,-8.0227,-7.7593,-7.6702,-7.4982,-7.2501,0.0,0.0,0.0,0.0,0.0,0.0,-6.7758,-6.6478,-6.4755,-6.3498,-6.257,-6.1792,-6.0505,-6.062,-6.1409,0.0,0.0,0.0,0.0,0.0,0.0,0.0,0.0,0.0,0.0,-2.9291,-3.0607,-3.1313,-3.2306,-3.3143,0.0,0.0,0.0,0.0,0.0,0.0,0.0,0.0,0.0,-3.2489,-3.3221,-3.4427,-3.6182,-3.8945,-4.1102,-4.2639,-4.4023,-4.4073,-4.308,-4.2802,-4.1953,0.0,0.0,0.0,0.0,-4.3308,-4.4275,0.0,0.0,0.0,0.0,-4.598,-4.5317,0.0,0.0,0.0,0.0,0.0,0.0,0.0,0.0,-4.4723,-4.5602,-4.7091,0.0,-5.2705,-5.2771,0.0,0.0,0.0,0.0,0.0,0.0,0.0,0.0,0.0,0.0,0.0,0.0,0.0,0.0,0.0,0.0,0.0,0.0,0.0,0.0,0.0,0.0,0.0,0.0,0.0,0.0,0.0,0.0,0.0,-8.0613,-8.0091,-8.0058,-8.0613,-7.9895,-7.8215,-7.5491,-7.3376,-7.1724,-7.05,0.0,0.0,0.0,0.0,0.0,-6.5136,-6.4955,-6.4359,-6.3468,-6.263,-6.1613,-6.0446,-5.9638,-5.9171,-5.8972,0.0,0.0,0.0,0.0,0.0,0.0,0.0,0.0,0.0,0.0,0.0,0.0,0.0,0.0,0.0,0.0,0.0,0.0,0.0,0.0,0.0,0.0,0.0,-3.2385,-3.2672,-3.3796,-3.5292,-3.711,-4.0283,-4.2507,-4.3949,-4.5668,-4.5526,-4.3798,-4.288,-4.2073,-4.1414,-4.1752,-4.1512,-4.1138,-4.3648,0.0,0.0,0.0,0.0,0.0,-4.5417,-4.4821,0.0,-4.5666,-4.5701,-4.5081,0.0,0.0,0.0,0.0,-4.2975,-4.3421,-4.4034,-4.6308,-4.866,-4.904,-4.9127,-4.8972,0.0,0.0,0.0,0.0,0.0,0.0,0.0,0.0,0.0,0.0,0.0,0.0,0.0,0.0,0.0,0.0,0.0,0.0,0.0,0.0,0.0,0.0,0.0,0.0,0.0,0.0,0.0,0.0,-7.7997,-7.7644,-7.8088,-7.7382,-7.5682,-7.2992,-7.0999,-6.9204,-6.7603,-6.5801,0.0,0.0,0.0,0.0,-6.3558,-6.3258,-6.2929,-6.254,-6.1553,-6.0715,-5.9997,-5.9338,-5.8971,-5.8802,0.0,0.0,0.0,0.0,0.0,0.0,0.0,0.0,0.0,0.0,0.0,0.0,0.0,0.0,0.0,0.0,0.0,0.0,0.0,0.0,0.0,0.0,0.0,-3.2908,-3.3091,-3.445,-3.6093,-3.7893,-4.1747,-4.3938,-4.4631,-4.7406,-4.701,-4.3828,-4.2462,-4.1713,-4.1602,-4.2261,-4.1683,-4.0621,-4.34,0.0,0.0,0.0,0.0,0.0,0.0,0.0,0.0,-4.6185,-4.6189,-4.5114,-4.5069,0.0,0.0,0.0,0.0,0.0,-4.3047,-4.5342,-4.7397,-4.7541,-4.7568,-4.7516,-4.7401,0.0,0.0,0.0,0.0,0.0,0.0,0.0,0.0,0.0,0.0,0.0,0.0,0.0,0.0,0.0,0.0,0.0,0.0,0.0,0.0,0.0,0.0,0.0,0.0,0.0,0.0,0.0,-7.5759,-7.4879,-7.4385,-7.4312,-7.2964,-7.0554,-6.9112,-6.7328,-6.5173,-6.4755,0.0,0.0,0.0,0.0,-6.26,-6.2121,-6.1882,-6.1672,-6.0535,-6.0027,-5.9847,-5.9069,-5.9047,-5.9154,0.0,0.0,0.0,0.0,0.0,0.0,0.0,0.0,0.0,0.0,0.0,0.0,0.0,0.0,0.0,0.0,0.0,0.0,0.0,0.0,0.0,0.0,-3.3692,-3.3901,-3.4868,-3.4659,-3.6148,-3.9369,-4.2254,-4.503,-4.7672,-4.9807,-4.9314,-4.6621,-4.4706,-4.324,-4.2291,-4.291,-4.2102,-4.0664,-4.3464,0.0,0.0,0.0,0.0,0.0,0.0,0.0,0.0,-4.3232,-4.2807,-4.2053,-4.2149,0.0,0.0,0.0,0.0,0.0,-4.222,-4.3663,-4.5017,-4.583,-4.6434,-4.6522,-4.531,0.0,0.0,0.0,0.0,0.0,0.0,0.0,0.0,0.0,0.0,0.0,0.0,0.0,0.0,0.0,0.0,0.0,0.0,0.0,0.0,0.0,0.0,0.0,0.0,0.0,0.0,0.0,0.0,-7.037,-6.7548,-7.0216,-7.0494,-6.8448,-6.7064,-6.6222,-6.5772,-6.3558,-6.245,0.0,0.0,-6.0625,-6.0595,-6.1074,-6.0924,-6.0386,-6.0176,-5.9727,-5.9099,-5.7872,-5.7438,-5.7325,0.0,0.0,0.0,0.0,0.0,0.0,0.0,0.0,0.0,0.0,0.0,0.0,0.0,0.0,0.0,0.0,0.0,0.0,0.0,0.0,0.0,-3.4868,-3.4633,-3.4763,-3.5286,-3.5626,-3.7601,-4.1295,-4.3144,-4.571,-4.885,-4.8267,-4.7189,-4.5603,-4.3599,-4.2402,-4.1901,-4.2162,-4.1564,-4.0598,0.0,0.0,0.0,0.0,0.0,0.0,0.0,0.0,0.0,0.0,-4.2579,-4.249,-4.1683,0.0,0.0,0.0,0.0,0.0,-4.1048,-4.2252,-4.3527,-4.4664,-4.5984,-4.6791,-4.5865,0.0,0.0,0.0,0.0,0.0,0.0,0.0,0.0,0.0,0.0,0.0,0.0,0.0,0.0,0.0,0.0,0.0,0.0,0.0,0.0,0.0,0.0,0.0,0.0,0.0,0.0,0.0,0.0,0.0,-6.6011,-6.7185,-6.7306,-6.637,-6.5383,-6.4575,-6.3857,-6.266,-6.1313,-5.9967,0.0,-5.9458,-5.853,-5.9219,-5.9099,-5.8501,-5.889,-5.883,-5.8441,-5.7453,-5.7094,-5.6915,0.0,0.0,0.0,0.0,0.0,0.0,0.0,0.0,0.0,0.0,0.0,0.0,0.0,0.0,0.0,0.0,0.0,0.0,0.0,0.0,-3.4162,-3.5051,-3.5338,-3.5626,-3.5887,-3.6885,-3.9158,-4.2879,-4.4163,-4.6326,-4.9269,-4.686,-4.5244,-4.4227,-4.2432,-4.1482,-4.1175,-4.1512,-4.1055,-4.0321,0.0,0.0,0.0,0.0,0.0,0.0,0.0,0.0,0.0,0.0,0.0,0.0,0.0,0.0,0.0,-3.986,-3.9373,-3.9589,-4.0397,-4.1594,-4.2821,-4.3838,0.0,-4.6551,-4.7291,-4.722,0.0,0.0,0.0,0.0,0.0,0.0,0.0,0.0,0.0,0.0,0.0,0.0,0.0,0.0,0.0,0.0,0.0,0.0,0.0,0.0,0.0,0.0,0.0,0.0,0.0,0.0,0.0,0.0,-6.5323,-6.4964,-6.4874,-6.5024,-6.4186,-6.3258,-6.2301,-6.1852,-6.0446,-5.8411,-5.9249,-5.865,-5.7124,-5.7663,-5.7573,-5.7154,-5.7693,-5.7782,-5.7603,-5.7064,-5.6765,-5.6526,0.0,0.0,0.0,0.0,0.0,0.0,0.0,0.0,0.0,0.0,0.0,0.0,0.0,0.0,0.0,0.0,0.0,0.0,0.0,0.0,-3.4371,-3.445,-3.5469,-3.6567,-3.7691,-3.8175,-4.003,-4.3364,-4.5072,-4.7064,-4.9269,-4.7818,-4.6142,-4.4257,-4.295,-4.1662,-4.0546,-4.1811,-4.1205,-3.9685,-4.2297,0.0,0.0,0.0,0.0,0.0,0.0,0.0,0.0,0.0,0.0,0.0,0.0,0.0,-3.9601,-3.9439,-3.9373,-3.9709,-4.0965,-4.2252,-4.326,-4.3349,-4.3469,0.0,-4.897,-4.9509,0.0,-5.3803,0.0,0.0,0.0,0.0,0.0,0.0,0.0,0.0,0.0,0.0,0.0,0.0,0.0,0.0,0.0,0.0,0.0,0.0,0.0,0.0,0.0,0.0,0.0,0.0,0.0,0.0,-6.3288,-6.3827,-6.4395,-6.5024,-6.3737,-6.3109,-6.2929,-6.1074,-5.9787,-5.9009,-5.8501,-5.7812,-5.7094,-5.7154,-5.7124,-5.7094,-5.7154,-5.6825,-5.6316,-5.6308,-5.5837,-5.5299,0.0,0.0,0.0,0.0,0.0,0.0,0.0,0.0,0.0,0.0,0.0,0.0,0.0,0.0,0.0,0.0,0.0,0.0,0.0,0.0,-3.3666,-3.4371,-3.5182,-3.6149,-3.7325,-3.9204,-4.1663,-4.4649,-4.7286,-4.861,-4.8626,-4.7309,-4.5592,-4.3618,-4.2342,-4.1235,-4.0427,-4.0935,-4.0696,-4.0164,-4.1565,-4.123,0.0,0.0,0.0,0.0,0.0,0.0,0.0,0.0,-3.9625,-3.9373,0.0,0.0,-3.9373,-3.9373,-3.9373,-3.9493,-4.0038,-4.2013,-4.3798,-4.3379,-4.4545,0.0,0.0,-5.1319,-5.3114,-5.5807,-5.7902,0.0,0.0,0.0,0.0,0.0,0.0,0.0,0.0,0.0,0.0,0.0,0.0,0.0,0.0,0.0,0.0,0.0,0.0,0.0,0.0,0.0,0.0,0.0,0.0,0.0,0.0,-6.2899,-6.2959,-6.3199,-6.272,-6.1822,-6.0595,-5.9817,-5.868,-5.7274,-5.7423,-5.6885,-5.5927,-5.6346,-5.6286,-5.5957,-5.6346,-5.6615,-5.6705,-5.6368,-5.6068,-5.5748,0.0,0.0,0.0,0.0,0.0,0.0,0.0,0.0,0.0,0.0,0.0,0.0,0.0,0.0,0.0,0.0,0.0,0.0,-3.0398,-3.1679,-3.2855,-3.3822,-3.4789,-3.573,-3.6698,-3.9762,-4.249,-4.4837,-4.8018,-4.8835,-4.7309,-4.6411,-4.4994,-4.323,-4.2192,-4.1482,-4.1025,-4.1025,-4.0905,-4.0786,-4.1654,-4.1205,0.0,0.0,0.0,0.0,0.0,0.0,0.0,0.0,0.0,0.0,0.0,0.0,0.0,0.0,-3.9373,-3.9373,-3.9373,-4.1354,-4.3389,-4.329,0.0,0.0,-5.1678,-5.3832,-5.6107,-5.9518,-6.1044,0.0,0.0,0.0,0.0,0.0,0.0,0.0,0.0,0.0,0.0,0.0,0.0,0.0,0.0,0.0,0.0,0.0,0.0,0.0,0.0,0.0,0.0,0.0,0.0,0.0,0.0,-6.1792,-6.1343,-6.1164,-6.0954,-6.0236,-5.9099,-5.865,-5.7633,-5.6248,-5.6615,-5.6196,-5.5239,-5.5688,-5.5478,-5.491,-5.5149,-5.5478,-5.5807,-5.5388,-5.5239,-5.5179,0.0,0.0,0.0,0.0,0.0,0.0,0.0,0.0,0.0,0.0,0.0,0.0,0.0,0.0,0.0,0.0,0.0,0.0,-2.9284,-3.0869,-3.2058,-3.2672,-3.4345,-3.5521,-3.607,-3.977,-4.2342,-4.3641,-4.6741,-4.7249,-4.5304,-4.5304,-4.4586,-4.326,-4.2671,-4.241,-4.241,-4.2381,-4.2021,-4.1504,-4.2751,-4.2551,-4.1422,0.0,0.0,0.0,0.0,0.0,0.0,0.0,-3.9373,0.0,0.0,0.0,0.0,0.0,-3.9373,-3.9403,-3.9373,-4.0397,-4.1713,0.0,0.0,0.0,-5.5748,-5.7154,-5.8985,-6.5622,0.0,0.0,0.0,0.0,0.0,0.0,0.0,0.0,0.0,0.0,0.0,0.0,0.0,0.0,0.0,0.0,0.0,0.0,0.0,0.0,0.0,0.0,0.0,0.0,0.0,0.0,-6.1104,-6.0416,-5.9727,-5.9099,-5.8411,-5.8441,-5.9039,-5.7693,-5.6735,-5.6218,-5.6218,-5.5777,-5.5179,-5.5179,-5.479,-5.4132,-5.3443,-5.3174,-5.3174,-5.3174,-5.3174,-5.3174,0.0,0.0,0.0,0.0,0.0,0.0,0.0,0.0,0.0,0.0,0.0,0.0,0.0,0.0,0.0,0.0,0.0,0.0,-2.931,-3.0503,-3.1496,-3.2032,-3.3378,-3.4635,-3.5787,-3.8956,-4.2208,-4.5491,-4.6453,-4.6352,-4.5304,-4.5304,-4.4586,-4.329,-4.312,-4.2791,-4.2381,-4.1901,-4.1871,-4.2141,-4.253,-4.2132,-4.1422,0.0,0.0,0.0,0.0,0.0,0.0,0.0,0.0,0.0,0.0,0.0,0.0,-3.9559,-3.9738,-4.0008,-3.9559,-4.1017,0.0,0.0,0.0,0.0,0.0,0.0,0.0,0.0,0.0,0.0,0.0,0.0,0.0,0.0,0.0,0.0,0.0,0.0,0.0,0.0,0.0,0.0,0.0,0.0,0.0,0.0,0.0,0.0,0.0,0.0,0.0,0.0,0.0,0.0,-6.0386,-5.9279,-5.859,-5.8411,-5.6825,-5.6406,-5.7034,-5.6615,-5.6077,-5.5478,-5.5478,-5.5119,-5.4461,-5.3982,-5.3653,-5.3473,-5.3264,-5.3174,-5.3174,-5.3174,-5.3174,-5.3174,0.0,0.0,0.0,0.0,0.0,0.0,0.0,0.0,0.0,0.0,-2.9379,0.0,0.0,0.0,0.0,0.0,0.0,0.0,0.0,-2.9833,-3.066,-3.147,-3.262,-3.4299,-3.6506,-3.8882,-4.1498,-4.4347,-4.4844,-4.4646,-4.3748,-4.4796,-4.4736,-4.3708,-4.4246,-4.4018,-4.309,-4.2432,-4.2222,-4.241,-4.241,-4.2321,-4.2102,0.0,0.0,0.0,0.0,0.0,0.0,0.0,0.0,0.0,0.0,0.0,0.0,-3.9379,-3.932,-3.929,-3.9709,0.0,0.0,0.0,0.0,0.0,0.0,0.0,0.0,0.0,0.0,0.0,0.0,0.0,0.0,0.0,0.0,0.0,0.0,0.0,0.0,0.0,0.0,0.0,0.0,0.0,0.0,0.0,0.0,0.0,0.0,0.0,0.0,0.0,0.0,0.0,-5.889,-5.7603,-5.6974,-5.6944,-5.5209,-5.461,-5.4999,-5.4999,-5.476,-5.4401,-5.4401,-5.4162,-5.3743,-5.3084,-5.2785,-5.2755,-5.2516,-5.2396,-5.2396,-5.2396,-5.2396,-5.2396,0.0,0.0,0.0,0.0,0.0,0.0,0.0,0.0,0.0,0.0,-2.876,-2.8629,0.0,0.0,0.0,0.0,0.0,0.0,0.0,0.0,-2.9823,-3.1078,-3.2489,-3.4739,-3.7906,-3.9369,-4.0509,-4.1294,-4.2551,-4.2581,-4.1572,-4.4047,-4.4885,-4.4377,-4.5603,-4.5424,-4.4167,-4.3349,-4.2761,-4.2321,-4.2321,-4.2641,-4.2991,-4.1833,0.0,0.0,0.0,0.0,0.0,0.0,0.0,0.0,0.0,0.0,0.0,-3.8901,-3.8452,-3.8003,0.0,0.0,0.0,0.0,0.0,0.0,0.0,0.0,0.0,0.0,0.0,0.0,0.0,0.0,0.0,0.0,0.0,0.0,0.0,0.0,0.0,0.0,0.0,0.0,0.0,0.0,0.0,0.0,0.0,0.0,0.0,0.0,0.0,0.0,0.0,0.0,-5.6735,-5.5598,-5.497,0.0,-5.3683,-5.3084,-5.3084,-5.3144,-5.3174,-5.3174,-5.3114,-5.3084,-5.3054,-5.2396,-5.2127,-5.2067,-5.1439,-5.1229,-5.1229,-5.1229,-5.1229,-5.1229,0.0,0.0,0.0,0.0,0.0,0.0,0.0,0.0,0.0,0.0,0.0,0.0,0.0,0.0,0.0,0.0,0.0,0.0,0.0,0.0,-3.0226,-3.2228,-3.5627,-3.7836,-3.8593,-3.974,-4.0457,-4.0606,-4.1414,-4.1923,-4.2231,-4.3778,-4.4436,-4.4317,-4.4616,-4.4276,-4.3409,-4.1743,-4.1235,-4.1632,-4.1632,-4.1683,-4.1773,-4.1474,-4.1055,0.0,0.0,0.0,0.0,0.0,0.0,0.0,-3.8571,-3.8422,-3.8123,-3.7913,-3.8392,0.0,0.0,0.0,0.0,0.0,0.0,0.0,0.0,0.0,0.0,0.0,0.0,0.0,0.0,0.0,0.0,0.0,0.0,0.0,0.0,0.0,0.0,0.0,0.0,0.0,0.0,0.0,0.0,0.0,0.0,0.0,0.0,0.0,0.0,0.0,0.0,-5.5089,-5.4042,-5.3743,-5.3354,0.0,-5.2546,-5.2426,-5.2426,-5.2935,-5.3174,-5.3144,-5.2636,-5.2426,-5.2366,-5.1708,-5.1439,-5.1409,-5.1289,-5.1229,-5.1229,-5.1229,-5.1229,-5.1229,0.0,0.0,0.0,0.0,0.0,0.0,0.0,0.0,0.0,0.0,0.0,0.0,0.0,0.0,0.0,0.0,0.0,0.0,0.0,0.0,0.0,-3.3633,-3.6998,-3.888,-3.8928,-4.0241,-4.0397,-3.9439,-4.0098,-4.0786,-4.1444,-4.2761,-4.3718,-4.4317,-4.4317,-4.3958,-4.317,-4.1564,-4.1055,-4.1422,-4.1422,-4.1602,-4.1811,-4.1145,-4.0487,-3.9798,-3.8811,0.0,0.0,0.0,0.0,0.0,0.0,0.0,-3.7464,-3.7434,-3.7704,-3.8302,0.0,0.0,0.0,0.0,0.0,0.0,0.0,0.0,0.0,0.0,0.0,0.0,0.0,0.0,0.0,0.0,0.0,0.0,0.0,0.0,0.0,0.0,0.0,0.0,0.0,0.0,0.0,0.0,0.0,0.0,0.0,0.0,0.0,0.0,-5.3952,-5.3264,-5.2247,-5.1917,-5.1768,-5.1738,-5.1409,-5.1439,-5.1738,-5.2097,-5.2247,-5.2217,-5.1887,-5.1738,-5.1708,-5.1349,-5.1229,-5.1229,-5.1229,-5.1229,-5.1229,-5.1229,-5.1229,-5.1229,0.0,0.0,0.0,0.0,0.0,0.0,0.0,0.0,0.0,0.0,0.0,0.0,0.0,0.0,0.0,0.0,0.0,0.0,0.0,0.0,0.0,-3.4757,-3.7482,-3.9013,-3.9238,-4.0431,-4.0277,-3.8751,-3.896,-3.9709,0.0,-4.2013,-4.318,-4.4317,-4.4317,-4.3898,-4.309,-4.1773,-4.1145,-4.1055,-4.1175,-4.1422,-4.1602,-4.0606,-3.9738,-3.8931,-3.7823,-3.7494,-3.7674,-3.8212,0.0,0.0,0.0,0.0,-3.6567,-3.6956,-3.6806,-3.6896,0.0,0.0,0.0,0.0,0.0,0.0,0.0,0.0,0.0,0.0,0.0,0.0,0.0,0.0,0.0,0.0,0.0,0.0,0.0,0.0,0.0,0.0,0.0,0.0,0.0,0.0,0.0,0.0,0.0,0.0,0.0,0.0,-5.2665,-5.1887,-5.1858,-5.1498,-5.072,-5.0226,-5.0226,-5.069,-5.0272,-5.0255,-5.072,-5.084,-5.099,-5.1199,-5.1109,-5.1109,-5.1229,-5.1229,-5.1229,-5.1229,-5.1229,-5.1229,-5.1229,-5.1229,-5.1229,-5.1229,0.0,0.0,0.0,0.0,0.0,0.0,0.0,0.0,0.0,0.0,0.0,0.0,0.0,0.0,0.0,0.0,0.0,0.0,0.0,0.0,0.0,-3.4772,-3.7494,-3.9295,-3.9876,-3.9742,-3.9828,-4.0127,-3.8482,0.0,0.0,0.0,0.0,-4.4317,-4.4317,-4.3629,-4.244,-4.1085,-4.0217,-3.9738,-4.0307,-3.9888,-3.896,-3.9379,-3.8781,-3.7644,-3.7464,-3.7764,-3.8272,-3.8362,-3.8332,0.0,0.0,0.0,-3.6387,-3.5908,-3.6118,0.0,0.0,0.0,0.0,0.0,0.0,0.0,0.0,0.0,0.0,0.0,0.0,0.0,0.0,0.0,0.0,0.0,0.0,0.0,0.0,0.0,0.0,0.0,0.0,0.0,0.0,0.0,0.0,0.0,0.0,0.0,0.0,0.0,-5.1768,-5.0495,-5.0465,-4.9867,-4.8686,-4.9164,-4.9164,-4.8686,-4.9164,-4.9134,-4.8686,-4.9284,-5.0152,-5.1199,-5.0584,-5.0644,-5.1229,-5.1229,-5.1229,-5.1229,-5.1229,-5.1229,-5.1229,-5.1229,-5.1229,-5.1229,0.0,0.0,0.0,0.0,0.0,0.0,0.0,0.0,0.0,0.0,0.0,0.0,0.0,0.0,0.0,-2.7994,0.0,0.0,0.0,0.0,0.0,-3.4483,-3.711,-3.8739,-3.9099,-3.9318,-3.902,-3.8212,0.0,0.0,0.0,-4.3748,-4.5394,0.0,0.0,-4.4556,-4.3878,-4.1414,-4.0008,-3.9439,-3.9738,-3.9499,-3.8901,-3.8452,-3.7913,-3.7315,-3.6596,-3.6537,-3.6836,-3.7195,-3.7315,-3.7255,-3.6985,0.0,0.0,0.0,-3.5968,0.0,0.0,0.0,0.0,0.0,0.0,0.0,0.0,0.0,0.0,0.0,0.0,0.0,0.0,0.0,0.0,0.0,0.0,0.0,0.0,0.0,0.0,0.0,0.0,0.0,0.0,0.0,0.0,0.0,0.0,0.0,0.0,-5.0242,-5.0122,-4.9164,-4.9134,0.0,-4.7758,-4.8027,-4.8207,-4.8297,-4.9,-4.9179,-4.888,-4.879,-4.9045,-4.9613,-5.0016,-5.0182,-5.0182,-5.093,-5.1229,-5.1229,-5.1229,-5.1229,-5.1229,-5.1229,-5.1229,-5.1229,0.0,0.0,0.0,0.0,0.0,0.0,0.0,0.0,0.0,0.0,0.0,0.0,0.0,0.0,0.0,0.0,-2.7785,0.0,0.0,0.0,0.0,-3.4214,-3.6534,-3.7876,-3.8153,-3.8661,-3.8182,0.0,0.0,0.0,-4.2162,-4.4287,-4.698,0.0,-4.7758,-4.6142,-4.4885,-4.2252,-4.0786,-4.0098,-3.926,-3.8811,-3.8571,-3.7734,-3.7315,-3.7045,-3.6088,-3.5848,-3.6058,-3.6357,-3.6596,-3.6686,-3.6537,-3.6477,0.0,0.0,0.0,0.0,0.0,0.0,0.0,0.0,0.0,0.0,0.0,0.0,0.0,0.0,0.0,0.0,0.0,0.0,0.0,0.0,0.0,0.0,0.0,0.0,0.0,0.0,0.0,0.0,0.0,0.0,0.0,0.0,0.0,0.0,-4.882,-4.897,-4.876,-4.8057,-4.7878,-4.7549,-4.707,-4.707,-4.7309,-4.7788,-4.8446,-4.8686,-4.8506,-4.8177,-4.7848,-4.7608,-4.9105,-4.9374,-4.8865,-5.0361,-5.087,-5.075,-5.1079,-5.1229,-5.1229,-5.1229,-5.1229,-5.1229,0.0,0.0,0.0,0.0,0.0,0.0,0.0,0.0,0.0,0.0,0.0,0.0,-2.8446,-2.842,-2.815,-2.7594,-2.7516,-2.8026,-2.9254,-3.0127,0.0,-3.4182,-3.5773,0.0,-3.7434,-3.7494,0.0,0.0,0.0,0.0,-4.4167,-4.4945,-4.7698,-5.2007,-5.1259,-4.8476,-4.4317,0.0,-4.289,-4.1961,-3.8781,-3.7165,-3.6686,-3.7225,-3.7045,-3.6537,-3.6447,-3.6806,-3.7225,-3.6656,-3.6866,-3.7255,-3.6656,-3.6477,-3.6357,0.0,0.0,0.0,0.0,0.0,0.0,0.0,0.0,0.0,0.0,0.0,0.0,0.0,0.0,0.0,0.0,0.0,0.0,0.0,0.0,0.0,0.0,0.0,0.0,0.0,0.0,0.0,0.0,0.0,0.0,0.0,0.0,0.0,-4.7489,-4.7997,-4.8027,-4.7369,-4.6741,-4.6369,-4.6339,-4.6339,-4.6339,-4.6399,-4.71,-4.707,-4.6501,-4.71,-4.6651,-4.5574,-4.7519,-4.8027,-4.7549,-4.9448,-4.9912,-4.9539,-5.075,-5.1229,-5.1229,-5.1229,-5.1229,-5.1229,0.0,0.0,0.0,0.0,0.0,0.0,0.0,0.0,0.0,0.0,0.0,0.0,0.0,-2.8656,-2.8307,-2.8098,-2.7699,-2.7668,-2.8146,-2.9628,0.0,-3.1774,-3.4815,-3.6365,-3.607,-3.6926,0.0,0.0,0.0,-3.7674,-4.1205,-4.315,-4.4945,-4.6591,-4.8057,-4.7788,-4.6022,-4.2821,0.0,0.0,0.0,-3.7524,-3.7614,-3.6567,-3.6836,-3.7614,0.0,0.0,0.0,0.0,-3.6956,-3.6776,-3.6567,-3.6178,-3.5818,-3.5579,-3.5519,0.0,0.0,0.0,0.0,0.0,0.0,0.0,0.0,0.0,0.0,0.0,0.0,0.0,0.0,0.0,0.0,0.0,0.0,0.0,0.0,0.0,0.0,0.0,0.0,0.0,0.0,0.0,0.0,0.0,0.0,0.0,-4.6741,-4.689,-4.6711,-4.6052,-4.5783,-4.5663,-4.5663,-4.607,-4.607,-4.5663,-4.677,-4.695,-4.6309,-4.701,-4.68,-4.6022,-4.716,-4.7279,-4.68,-4.8356,-4.8835,-4.8626,-4.8686,-4.8955,-4.9374,-4.9823,-5.0242,-5.0614,0.0,0.0,0.0,0.0,0.0,0.0,0.0,0.0,0.0,-2.8072,0.0,0.0,0.0,0.0,-2.8804,-2.8446,-2.802,-2.7799,-2.7822,-2.9094,-3.0127,-3.0724,-3.3743,-3.5371,-3.5276,0.0,0.0,0.0,0.0,0.0,0.0,-4.0474,-4.1755,-4.2703,-4.3803,-4.5154,0.0,0.0,0.0,-4.0479,0.0,0.0,-3.8566,0.0,0.0,0.0,0.0,0.0,0.0,0.0,0.0,-3.6477,-3.6477,-3.6028,-3.5519,-3.5519,-3.5519,0.0,0.0,0.0,0.0,0.0,0.0,0.0,0.0,0.0,0.0,0.0,0.0,0.0,0.0,0.0,0.0,0.0,0.0,0.0,0.0,0.0,0.0,0.0,0.0,0.0,0.0,0.0,0.0,0.0,0.0,0.0,-4.5992,-4.5963,-4.5663,-4.4975,-4.4766,-4.4646,-4.4646,-4.4885,-4.4885,-4.4646,-4.5544,-4.5843,-4.5622,-4.6322,-4.6381,-4.6022,-4.692,-4.68,-4.6112,-4.7638,-4.8027,-4.7638,-4.7878,-4.7967,-4.8057,-4.9,-4.9523,-5.0002,0.0,0.0,0.0,0.0,0.0,0.0,0.0,0.0,-2.8177,-2.7594,0.0,0.0,0.0,0.0,0.0,-2.8577,-2.8472,-2.8482,-2.8471,-2.8509,-2.9383,-3.1264,0.0,0.0,0.0,0.0,0.0,0.0,0.0,0.0,0.0,0.0,-3.8542,-4.0906,-3.8978,-4.0706,-4.4964,0.0,-4.3698,-4.2693,0.0,-3.6922,-3.9258,0.0,0.0,0.0,-4.0868,-4.039,0.0,-3.8212,0.0,0.0,0.0,-3.6058,-3.5519,-3.5519,-3.5519,-3.5519,0.0,0.0,0.0,0.0,0.0,0.0,0.0,0.0,0.0,0.0,0.0,0.0,0.0,0.0,0.0,0.0,0.0,0.0,0.0,0.0,0.0,0.0,0.0,0.0,0.0,0.0,0.0,0.0,0.0,-4.5274,-4.5274,-4.5244,-4.4945,-4.4287,-4.3688,-4.3329,-4.323,-4.2671,-4.2671,-4.323,-4.329,-4.3648,-4.4317,-4.5005,-4.5334,-4.5394,-4.6741,-4.6561,-4.5514,-4.7429,-4.7489,-4.6501,-4.8416,-4.8386,-4.7399,-4.876,-4.9239,-4.9359,0.0,0.0,0.0,0.0,0.0,0.0,0.0,-2.802,-2.8368,0.0,0.0,0.0,-2.91,-2.9693,-2.997,-2.9631,-2.9604,-2.9293,-2.8475,-2.8899,-2.9356,-2.9862,-3.1633,0.0,0.0,0.0,0.0,0.0,0.0,0.0,0.0,0.0,0.0,0.0,-3.6769,-3.7377,-3.8092,-3.7843,0.0,0.0,-3.5829,-3.6248,0.0,0.0,0.0,0.0,0.0,-4.0393,-4.0793,0.0,-4.0247,-3.908,0.0,-3.6387,-3.5519,-3.5519,-3.5519,-3.5519,-3.5519,0.0,0.0,0.0,0.0,0.0,0.0,0.0,0.0,0.0,0.0,0.0,0.0,0.0,0.0,0.0,0.0,0.0,0.0,0.0,0.0,0.0,0.0,0.0,0.0,0.0,0.0,0.0,0.0,-4.5095,-4.4616,-4.4137,-4.3569,-4.298,-4.277,-4.244,-4.1923,-4.2261,-4.2261,-4.1923,-4.3359,-4.3898,-4.3688,-4.5304,-4.6022,-4.6082,-4.695,-4.71,-4.677,-4.683,-4.6651,-4.6322,-4.6381,-4.6172,-4.6022,-4.7369,-4.7848,-4.8027,0.0,0.0,0.0,0.0,0.0,0.0,0.0,-2.8935,-2.9301,0.0,0.0,0.0,-3.032,-3.0869,-3.1066,-3.0831,-3.0596,-3.0111,-2.917,-2.9,-2.9202,-2.9588,-3.0796,-3.2118,0.0,0.0,0.0,0.0,0.0,0.0,0.0,0.0,0.0,0.0,0.0,0.0,0.0,0.0,0.0,0.0,-3.5105,0.0,0.0,-3.7257,-3.8602,0.0,0.0,0.0,-4.1767,-4.1326,-4.0568,0.0,0.0,0.0,-3.6537,0.0,-3.5699,-3.5908,-3.5908,-3.5908,-3.5968,0.0,0.0,0.0,0.0,0.0,0.0,0.0,0.0,0.0,0.0,0.0,0.0,0.0,0.0,0.0,0.0,0.0,0.0,0.0,0.0,0.0,0.0,0.0,0.0,0.0,-4.4077,-4.4018,-4.3858,-4.3269,-4.2761,-4.241,-4.1871,-4.1392,-4.0965,-4.1085,-4.1085,-4.0995,-4.2132,-4.2641,-4.2611,-4.4018,-4.4825,-4.5083,-4.6052,-4.6621,-4.689,-4.677,-4.6561,-4.6279,-4.6172,-4.5783,-4.5454,-4.68,-4.7309,-4.7459,0.0,0.0,0.0,0.0,0.0,0.0,0.0,-3.0357,-3.0634,0.0,-3.0503,-3.1392,-3.1928,-3.2489,-3.2594,-3.2032,-3.1496,-3.0895,-3.0231,-2.9118,-2.8935,-2.997,-2.9996,-3.0923,-3.2813,0.0,0.0,0.0,0.0,0.0,0.0,0.0,0.0,0.0,0.0,0.0,0.0,0.0,0.0,-3.4593,-3.4503,-3.6138,0.0,0.0,-4.0628,0.0,-4.2356,-4.2534,-4.2701,-4.0473,-3.9341,0.0,0.0,0.0,0.0,0.0,-3.5926,-3.6376,-3.6567,-3.6596,-3.6716,0.0,0.0,0.0,-3.5699,-3.6058,-3.6567,0.0,0.0,0.0,0.0,0.0,0.0,0.0,0.0,0.0,0.0,0.0,0.0,0.0,0.0,0.0,0.0,0.0,0.0,-4.2261,-4.2291,-4.2491,-4.305,-4.2551,-4.2261,-4.2171,-4.0935,-4.0247,-4.0187,-3.9589,-3.9649,-4.0277,-4.0427,-4.0846,-4.1504,-4.2201,-4.2791,-4.3349,-4.4646,-4.5574,-4.6262,-4.692,-4.689,-4.6459,-4.707,-4.6531,-4.5574,-4.683,-4.7249,-4.7279,-2.8255,0.0,0.0,0.0,0.0,0.0,0.0,-3.0843,-3.1078,-3.1275,-3.194,-3.2594,-3.3195,-3.3352,-3.3378,-3.3273,-3.2698,-3.1914,-3.0895,-2.9745,-2.9196,-2.9431,-2.9457,-3.0089,-3.1367,0.0,0.0,0.0,0.0,0.0,0.0,0.0,0.0,0.0,0.0,0.0,0.0,0.0,0.0,-3.0601,-3.1853,0.0,-3.6635,-3.625,-3.7881,-4.042,-4.1102,-4.166,-4.1961,-4.1346,-3.9746,-3.7964,0.0,0.0,0.0,-3.5851,0.0,0.0,0.0,0.0,0.0,0.0,0.0,0.0,-3.5878,-3.6387,-3.7075,0.0,0.0,0.0,0.0,0.0,0.0,0.0,0.0,0.0,0.0,0.0,0.0,0.0,0.0,0.0,0.0,0.0,-4.1482,-4.1602,-4.1602,-4.1624,-4.1743,-4.1654,-4.1324,-4.0816,-4.0008,-3.9349,-3.8781,-3.8661,-3.8931,-3.9619,-4.0696,-4.1572,-4.2231,-4.2851,-4.317,-4.3349,-4.4167,-4.4885,-4.5544,-4.6232,-4.6741,-4.713,-4.7249,-4.683,-4.6202,-4.701,-4.698,-4.6621,-2.8368,0.0,0.0,0.0,0.0,0.0,0.0,0.0,-3.2385,-3.2672,-3.3456,-3.4005,-3.4005,-3.4267,-3.4319,-3.4031,-3.3483,-3.2777,-3.1888,-3.0503,-2.9719,-2.9719,-2.9144,-2.9379,-3.0529,-3.0268,0.0,0.0,0.0,0.0,0.0,0.0,0.0,0.0,0.0,0.0,0.0,0.0,-2.931,-2.9483,-3.1784,0.0,-3.5338,-3.6253,-3.7848,-3.9647,-4.0192,-4.0307,-4.0168,-3.9492,-3.8753,0.0,0.0,-3.6153,-3.6014,0.0,-3.5809,-3.5754,0.0,0.0,0.0,-3.7157,0.0,0.0,0.0,-3.6447,0.0,0.0,0.0,0.0,0.0,0.0,0.0,0.0,0.0,0.0,0.0,0.0,0.0,0.0,0.0,0.0,0.0,0.0,-4.0157,-4.0846,-4.0876,-4.1025,-4.1354,-4.0756,-4.0247,-3.9918,-3.926,-3.8571,-3.7913,-3.8212,-3.8571,-3.8931,-4.0576,-4.1422,-4.1414,-4.2073,-4.2372,-4.2372,-4.2701,-4.321,-4.3928,-4.5274,-4.5992,-4.6381,-4.704,-4.71,-4.686,-4.7189,-4.71,-4.68,-2.842,0.0,0.0,0.0,0.0,0.0,0.0,0.0,-3.3378,-3.3718,-3.4659,-3.5155,-3.4763,-3.5077,-3.5286,-3.5234,-3.411,-3.3456,-3.3509,-3.1354,-3.01,-3.01,-2.9118,-2.8935,-2.9735,-2.9457,0.0,0.0,0.0,0.0,0.0,0.0,0.0,0.0,0.0,0.0,0.0,0.0,0.0,-2.9666,0.0,-3.3587,-3.4293,-3.641,-3.7926,-3.8972,-3.9207,-3.8893,-3.824,-3.7325,0.0,-3.7434,-3.548,-3.5869,0.0,0.0,0.0,0.0,0.0,0.0,0.0,0.0,0.0,-3.5932,0.0,0.0,0.0,0.0,0.0,0.0,0.0,0.0,0.0,0.0,0.0,0.0,0.0,0.0,0.0,0.0,0.0,0.0,0.0,0.0,-3.8661,-3.9738,-3.9828,-4.0068,-4.0576,-3.9619,-3.8985,-3.8985,-3.8482,-3.7883,-3.7225,-3.8003,-3.8392,-3.8422,-4.0157,-4.0846,-4.0606,-4.0876,-4.1085,-4.1205,-4.1205,-4.1602,-4.2351,-4.4018,-4.4885,-4.5244,-4.6741,-4.7309,-4.7309,-4.7309,-4.7309,-4.7219,-2.842,-2.849,0.0,0.0,0.0,0.0,0.0,0.0,-3.2554,-3.411,-3.4894,-3.5443,-3.5861,-3.5547,-3.6096,-3.8057,-3.4894,0.0,-3.6358,0.0,-3.01,-3.01,0.0,0.0,-2.8595,-2.9074,-2.9048,0.0,0.0,0.0,0.0,0.0,0.0,0.0,-2.749,0.0,0.0,0.0,-2.9562,0.0,-3.1458,-3.2346,0.0,-3.4319,-3.5495,-3.6645,-3.7717,-3.7717,-3.7168,0.0,-3.642,-3.5614,0.0,-3.4684,-3.4311,0.0,0.0,0.0,0.0,0.0,0.0,0.0,-3.6541,0.0,0.0,0.0,0.0,0.0,0.0,0.0,0.0,0.0,0.0,0.0,0.0,0.0,0.0,0.0,0.0,0.0,0.0,0.0,0.0,0.0,0.0,-3.7734,-3.7734,-3.7764,-3.7853,-3.7704,-3.7644,-3.7644,-3.7554,-3.7225,-3.6596,-3.7793,-3.8392,-3.8392,-3.923,-4.0217,-4.1235,-4.0127,-3.9948,-4.0516,-4.0516,-4.0876,-4.1602,-4.241,-4.3389,-4.4616,-4.6561,-4.7309,-4.7309,-4.7309,-4.7309,-4.7309,-2.7889,-2.8438,0.0,0.0,0.0,0.0,0.0,0.0,-3.411,-3.4816,-3.573,-3.6619,0.0,0.0,0.0,0.0,0.0,-3.607,0.0,0.0,-3.215,-3.215,0.0,0.0,0.0,-2.9179,-2.8656,0.0,-2.8046,0.0,0.0,0.0,0.0,0.0,-2.802,0.0,-2.897,0.0,0.0,0.0,0.0,0.0,0.0,-3.3718,-3.5103,-3.6201,-3.7063,-3.6985,-3.6384,0.0,-3.5417,0.0,0.0,0.0,0.0,0.0,0.0,0.0,0.0,0.0,0.0,0.0,0.0,0.0,-3.4469,0.0,-3.444,0.0,0.0,0.0,0.0,0.0,0.0,0.0,0.0,0.0,0.0,0.0,0.0,0.0,0.0,0.0,0.0,0.0,0.0,0.0,0.0,-3.7015,-3.7375,-3.7075,-3.6866,-3.6866,-3.7225,-3.7105,-3.6507,-3.7734,-3.8182,-3.7853,-3.929,-4.0068,-4.0247,-4.0068,-4.0127,-4.0367,-4.0008,-3.9978,-4.0337,-4.1354,-4.2102,-4.2821,-4.4796,-4.6052,-4.677,-4.716,-4.7309,-4.7249,-2.749,-2.8203,0.0,0.0,0.0,0.0,0.0,0.0,0.0,0.0,0.0,0.0,-3.8579,-3.8632,0.0,0.0,-3.939,-3.837,0.0,0.0,-3.3666,0.0,0.0,0.0,0.0,0.0,0.0,0.0,0.0,0.0,0.0,0.0,0.0,0.0,0.0,-2.876,-2.9362,0.0,0.0,-3.0361,-3.0817,-3.1078,-3.1392,-3.3064,-3.4319,-3.526,-3.5861,-3.5783,-3.5312,-3.4633,-3.4685,0.0,-3.4371,0.0,0.0,0.0,0.0,0.0,-3.4136,0.0,0.0,0.0,0.0,0.0,0.0,0.0,0.0,0.0,0.0,0.0,0.0,0.0,0.0,0.0,0.0,0.0,0.0,0.0,0.0,0.0,0.0,0.0,0.0,0.0,0.0,0.0,-3.6357,0.0,-3.6596,-3.6357,-3.6207,-3.6207,-3.6836,-3.6926,-3.6477,-3.7734,-3.8153,-3.7704,-3.914,-3.9709,-3.9403,-3.9709,-3.9948,-4.0098,-3.9619,-3.9373,-3.9499,-4.0457,-4.0935,-4.1265,-4.288,-4.4317,-4.5592,-4.6651,-4.704,-4.698,-2.749,-2.7516,0.0,0.0,0.0,0.0,0.0,0.0,0.0,0.0,0.0,0.0,0.0,0.0,0.0,0.0,0.0,-4.0252,-4.195,0.0,-3.3875,0.0,0.0,-3.0701,0.0,0.0,0.0,0.0,0.0,0.0,0.0,0.0,0.0,0.0,0.0,-2.876,-2.9362,-2.9865,-3.0451,-3.0947,-3.0973,-3.1313,-3.1771,0.0,-3.2241,-3.2881,-3.3483,0.0,0.0,-3.4241,-3.4397,0.0,0.0,0.0,0.0,0.0,0.0,0.0,0.0,0.0,0.0,-3.3209,0.0,0.0,0.0,0.0,-3.2843,0.0,0.0,0.0,0.0,0.0,-3.3655,-3.238,-3.3227,0.0,0.0,0.0,0.0,0.0,0.0,0.0,0.0,0.0,0.0,0.0,-3.519,0.0,-3.4623,-3.519,-3.5549,-3.5549,-3.6178,-3.6507,-3.6477,-3.7734,-3.8392,-3.8362,-3.8422,-3.8781,-3.9409,-3.8751,-3.8811,-3.9439,-3.9403,-3.9373,-3.9373,-3.9433,-3.9858,-4.0487,-4.1205,-4.2282,-4.3618,-4.5592,-4.6309,-4.6399,0.0,0.0,0.0,0.0,0.0,0.0,0.0,-3.1784,0.0,0.0,0.0,0.0,0.0,0.0,-4.4147,0.0,0.0,-4.2918,-4.2735,-3.9285,0.0,0.0,0.0,-3.3561,0.0,0.0,0.0,0.0,0.0,0.0,0.0,0.0,0.0,0.0,0.0,-2.876,0.0,0.0,0.0,0.0,0.0,-3.1339,-3.185,0.0,0.0,-3.2725,-3.2934,-3.2986,0.0,-3.3195,-3.3273,-3.33,-3.3509,-3.3169,-3.2855,-3.3587,-3.3561,0.0,0.0,0.0,-3.4476,-3.3535,0.0,0.0,0.0,0.0,0.0,0.0,0.0,0.0,0.0,0.0,-3.1924,-3.1485,-3.1432,-3.1164,0.0,0.0,0.0,0.0,0.0,0.0,0.0,0.0,0.0,-3.38,-3.401,-3.4262,0.0,-3.4743,-3.504,-3.5489,-3.6148,-3.6477,-3.6477,-3.7734,-3.8392,-3.8392,-3.8841,-3.92,-3.9373,-3.917,-3.92,-3.9373,-3.9373,-3.9373,-3.9373,-3.9373,-3.9523,-3.9798,-4.0487,-4.1265,-4.2282,-4.4257,-4.5274,-4.5663,-2.7542,0.0,0.0,0.0,0.0,0.0,0.0,0.0,0.0,0.0,-3.8789,0.0,-4.4591,0.0,-4.5976,0.0,-4.6421,-4.4983,-4.3415,-4.101,0.0,-3.7848,-3.6567,0.0,0.0,0.0,0.0,0.0,0.0,-2.8595,0.0,0.0,0.0,0.0,0.0,0.0,0.0,0.0,-3.0283,0.0,0.0,-3.1209,0.0,0.0,-3.2202,-3.2385,0.0,-3.2385,-3.2411,-3.262,-3.2698,-3.2725,-3.2908,-3.2568,-3.2228,-3.296,-3.3091,-3.3091,-3.3639,-3.4084,0.0,-3.3718,-3.33,0.0,-3.198,0.0,0.0,0.0,0.0,0.0,0.0,0.0,-3.1235,-3.1026,-3.0843,-3.0492,0.0,-3.0413,0.0,0.0,0.0,0.0,0.0,0.0,-3.3046,-3.3094,-3.3109,-3.3447,0.0,0.0,-3.4801,-3.5489,-3.5908,-3.6237,-3.6477,-3.7315,-3.7943,-3.8392,-3.8841,-3.905,-3.905,-3.932,-3.929,-3.908,-3.932,-3.9373,-3.9373,-3.9373,-3.9373,-3.9469,-3.9888,-4.0457,-4.1265,-4.324,-4.4526,-4.5334,0.0,0.0,0.0,0.0,-2.8569,0.0,0.0,0.0,-3.6515,0.0,-4.0514,-4.2787,-4.4043,-4.5611,-4.7048,-4.812,-4.7675,0.0,-4.4121,-4.2317,0.0,0.0,-3.6802,-3.5521,-3.2137,0.0,0.0,0.0,0.0,0.0,0.0,0.0,0.0,0.0,-2.8996,0.0,-2.8472,-3.02,-3.0607,-3.0153,-3.0712,-3.0973,-3.1026,-3.0999,0.0,-3.1797,-3.1771,-3.1771,-3.185,-3.2411,-3.262,-3.2515,-3.1954,-3.1444,-3.0999,-3.1052,-3.1444,-3.1928,-3.2542,-3.3483,-3.4188,-3.3666,0.0,0.0,0.0,0.0,-3.2333,0.0,0.0,0.0,0.0,0.0,0.0,-3.1078,-3.1444,-3.1197,-2.9588,0.0,0.0,0.0,0.0,0.0,0.0,-3.2663,-3.2319,-3.2377,-3.2425,0.0,0.0,0.0,0.0,-3.5489,-3.5519,-3.5818,-3.6417,-3.6477,-3.7105,-3.8302,-3.8332,-3.8362,-3.8422,-3.908,-3.902,-3.8482,-3.914,-3.9373,-3.9373,-3.9373,-3.9373,-3.9373,-3.9373,-3.9828,-4.0636,-4.2542,-4.4107,-4.5334,-2.762,-2.8229,-2.9091,0.0,-2.964,-3.0006,0.0,0.0,0.0,0.0,-4.2186,-4.4539,-4.744,-4.8146,-4.8538,-4.8826,-4.7937,0.0,0.0,0.0,0.0,-3.939,-3.8632,-3.7456,-3.5704,-3.4842,0.0,-3.2254,0.0,0.0,-2.9074,0.0,0.0,0.0,0.0,0.0,-2.7837,-2.9144,-2.9876,-3.01,-3.0257,-3.0831,0.0,0.0,-3.1339,-3.1745,-3.1365,-3.1209,-3.1235,-3.1365,-3.1418,-3.147,-3.1719,-3.1444,-3.1156,-3.1993,-3.2045,-3.1928,-3.2542,-3.2908,-3.3091,-3.296,-3.2594,-3.2163,0.0,0.0,0.0,0.0,0.0,0.0,0.0,0.0,0.0,-3.0999,-3.1104,-3.1052,0.0,0.0,0.0,0.0,0.0,0.0,0.0,0.0,-3.0894,-3.0934,-3.145,0.0,0.0,0.0,0.0,-3.5459,-3.5519,-3.5579,-3.5759,-3.6237,-3.6656,-3.6985,-3.7434,-3.7913,-3.8392,-3.8571,-3.8841,-3.917,-3.9349,-3.9373,-3.9373,-3.9373,-3.9373,-3.9373,-3.9373,-3.9828,-4.0576,-4.2073,-4.3449,-4.4526,-2.7968,0.0,0.0,-3.1522,0.0,0.0,-3.3901,0.0,0.0,-4.0488,-4.2631,0.0,-4.6604,-4.7492,-4.8041,-4.8303,-4.7257,0.0,0.0,0.0,0.0,-3.973,-3.905,-3.7926,-3.6305,-3.5521,0.0,-3.2437,0.0,0.0,-2.849,0.0,0.0,0.0,0.0,-2.8203,0.0,-2.8882,-2.9745,-3.0477,-3.0205,0.0,0.0,-3.1104,-3.1182,-3.1418,-3.1104,-3.0973,-3.0973,-3.0973,-3.0973,-3.1052,-3.1365,-3.1235,-3.1104,-3.1757,-3.1888,-3.1876,-3.2228,-3.2515,-3.2698,-3.2698,-3.2437,-3.2111,-3.185,-3.1797,-3.1641,0.0,0.0,0.0,0.0,0.0,0.0,-3.0973,-3.0973,0.0,0.0,0.0,0.0,0.0,0.0,0.0,0.0,0.0,0.0,0.0,0.0,0.0,0.0,0.0,0.0,-3.5459,-3.5789,-3.5789,-3.5519,-3.6148,-3.6477,-3.6507,-3.7105,-3.7464,-3.7584,-3.8452,-3.8721,-3.8571,-3.917,-3.9373,-3.9373,-3.9373,-3.9373,-3.9373,-3.9373,-3.9828,-4.0487,-4.1235,-4.2342,-4.3449,0.0,0.0,0.0,0.0,0.0,0.0,0.0,-3.7586,0.0,-4.054,0.0,-4.4225,-4.4225,-4.5506,-4.6578,-4.7074,0.0,-4.4931,-4.3833,-4.2735,-4.1089,-3.8919,-3.8684,-3.7586,-3.5443,-3.5652,0.0,0.0,0.0,0.0,0.0,0.0,0.0,0.0,0.0,0.0,0.0,-2.8856,-2.9719,0.0,-3.0215,-3.0398,-3.0973,-3.0973,-3.0973,-3.0973,-3.0973,-3.0973,-3.0973,-3.0973,-3.0973,-3.0973,-3.0973,-3.0973,-3.0973,-3.0973,-3.1339,-3.1693,-3.1693,-3.2097,-3.2463,-3.2463,-3.2463,-3.2333,-3.1797,-3.1693,-3.1536,-3.1078,-3.0973,-3.0973,0.0,0.0,0.0,0.0,0.0,0.0,0.0,0.0,0.0,0.0,0.0,0.0,0.0,0.0,0.0,0.0,0.0,0.0,0.0,0.0,0.0,0.0,-3.6058,0.0,-3.5759,0.0,-3.6447,-3.6596,-3.6985,-3.6926,-3.6537,-3.8332,-3.8512,-3.7494,-3.8721,-3.929,-3.929,-3.929,-3.9313,-3.9373,-3.9373,-3.9768,-4.0277,-4.0277,-4.1055,-4.2261,0.0,0.0,0.0,0.0,0.0,-3.7116,-3.8736,-3.9965,-4.1167,-4.2396,-4.4591,0.0,-4.6029,-4.5872,-4.582,-4.5924,-4.4853,0.0,0.0,0.0,0.0,-3.952,-3.8553,-3.7403,-3.5992,-3.4685,-3.3483,0.0,0.0,0.0,0.0,0.0,0.0,0.0,0.0,0.0,-2.836,-2.7994,0.0,-2.9598,-2.9457,-3.0059,-3.0973,-3.0973,-3.0973,-3.0973,-3.0973,-3.0973,-3.0973,-3.0973,-3.0973,-3.0973,-3.0973,-3.0973,-3.0973,-3.0973,-3.1052,-3.113,-3.113,-3.1209,-3.1287,-3.1287,-3.1287,-3.1261,-3.1156,-3.113,-3.1104,-3.0999,-3.0973,-3.0973,-3.0973,0.0,0.0,0.0,0.0,0.0,0.0,0.0,0.0,0.0,0.0,0.0,0.0,0.0,0.0,0.0,0.0,0.0,0.0,0.0,0.0,0.0,0.0,0.0,0.0,0.0,0.0,-3.7225,-3.6297,-3.6058,-3.6507,-3.7375,-3.7644,-3.7464,-3.8242,-3.8571,-3.8571,-3.8571,-3.8901,-3.9373,-3.9373,-3.9463,-3.9589,-3.9589,-4.0068,-4.0905,0.0,0.0,0.0,0.0,0.0,0.0,0.0,-4.1272,0.0,-4.2134,-4.284,-4.3337,-4.3337,-4.3624,-4.3833,-4.3833,-4.2762,-4.1951,-4.169,-4.0592,-3.973,-3.9181,-3.8057,0.0,-3.5704,-3.4319,-3.3143,-3.2254,0.0,0.0,0.0,0.0,0.0,0.0,0.0,-2.842,0.0,0.0,0.0,-2.9719,-2.9719,-3.0215,-3.0973,-3.0973,-3.0817,-3.0529,-3.0529,-3.0529,-3.0581,-3.0869,-3.0973,-3.0973,-3.0973,-3.0973,-3.0973,-3.0973,-3.0973,-3.0973,-3.0973,-3.0973,-3.0973,-3.0973,-3.0973,-3.0973,-3.0973,-3.0973,-3.0973,-3.0973,-3.0973,-3.0973,-3.0973,-3.0973,0.0,0.0,0.0,0.0,0.0,0.0,0.0,0.0,0.0,0.0,0.0,0.0,0.0,0.0,0.0,0.0,0.0,0.0,0.0,0.0,0.0,0.0,0.0,0.0,0.0,-3.6417,-3.6148,-3.5998,-3.5998,-3.6985,-3.7225,-3.6985,-3.7973,-3.8392,-3.8422,-3.8781,-3.911,-3.9373,-3.9373,-3.9373,-3.9373,-3.9373,-3.9828,-4.0546,0.0,-3.4502,0.0,0.0,-3.8161,0.0,0.0,-4.1611,-4.2369,-4.1611,-4.1193,-4.088,-4.0644,-4.1428,-4.1976,-4.1794,-4.0853,-4.0148,-3.9886,-3.905,-3.8423,-3.8161,-3.7194,-3.6149,-3.5129,-3.3979,-3.2777,0.0,0.0,0.0,0.0,0.0,0.0,0.0,0.0,0.0,0.0,0.0,-2.9483,-3.01,-3.01,-3.0361,-3.0817,-3.0817,-3.0451,-2.9944,-3.0048,-3.0022,-3.0022,-3.0764,-3.0973,-3.0973,-3.0973,-3.0973,-3.0973,-3.0973,-3.0973,-3.0973,-3.0973,-3.0973,-3.0973,-3.0973,-3.0973,-3.0973,-3.0973,-3.0973,-3.0973,-3.0973,-3.0973,-3.0973,-3.0973,-3.0973,0.0,0.0,0.0,0.0,0.0,0.0,0.0,0.0,0.0,0.0,0.0,0.0,0.0,0.0,0.0,0.0,0.0,0.0,0.0,0.0,0.0,-3.6148,-3.5908,0.0,-3.6237,0.0,-3.6357,-3.6297,-3.5938,-3.7105,-3.7285,-3.6746,-3.7883,-3.8392,-3.8452,-3.914,-3.9373,-3.9373,-3.9373,-3.9373,-3.9373,-3.9373,-3.9738,-4.0277,0.0,0.0,0.0,0.0,0.0,0.0,0.0,-4.0697,-4.1611,-4.2081,-4.25,-4.2369,-4.135,-4.1324,-4.1167,-4.0618,-4.0043,-3.9233,-3.8214,-3.8031,-3.7482,-3.6384,-3.5783,-3.5155,-3.4502,-3.3352,-3.1967,0.0,0.0,0.0,0.0,0.0,0.0,0.0,0.0,0.0,0.0,-2.8472,-2.9118,-3.01,-3.01,-3.0127,-3.0179,-3.0179,-2.9849,-2.9431,-2.9918,-2.9797,-2.9536,-3.0607,-3.0973,-3.0973,-3.0973,-3.0973,-3.0973,-3.0973,-3.0973,-3.0973,-3.0973,-3.0973,-3.0973,-3.0973,-3.0973,-3.0973,-3.0973,-3.0973,-3.0973,-3.0973,-3.0973,-3.0973,-3.0973,-3.0973,-3.0973,0.0,0.0,0.0,0.0,0.0,0.0,0.0,0.0,0.0,0.0,0.0,0.0,0.0,0.0,0.0,0.0,0.0,0.0,-3.5459,0.0,-3.6118,-3.7225,-3.6148,0.0,-3.8093,-3.7015,-3.6746,-3.7255,-3.7973,-3.7943,-3.7375,-3.8093,-3.8392,-3.8452,-3.914,-3.9373,-3.9373,-3.9373,-3.9373,-3.9373,-3.9373,-3.9469,-3.9619,0.0,0.0,0.0,0.0,0.0,0.0,0.0,-4.0775,-4.1272,-4.1141,-4.1036,-4.0932,-4.0801,-4.0174,-3.9651,-3.9416,-3.8579,-3.7848,-3.7403,-3.7011,-3.6593,-3.6123,-3.5574,-3.4868,-3.3927,-3.3117,-3.2019,0.0,0.0,0.0,0.0,0.0,0.0,0.0,0.0,-2.842,-2.8446,-2.9144,-2.951,-2.964,-2.997,-2.9892,-2.9614,-2.9614,-2.9248,-2.8813,-2.8987,-2.917,-2.9388,-2.9859,-3.0189,-3.0529,-3.0869,-3.0973,-3.0973,-3.0973,-3.0973,-3.0973,-3.0973,-3.0973,-3.0973,-3.0973,-3.0973,-3.0973,-3.0973,-3.0973,-3.0973,-3.0973,-3.0973,-3.0973,-3.0973,-3.0973,-3.0973,0.0,0.0,0.0,0.0,0.0,0.0,0.0,0.0,0.0,0.0,0.0,0.0,0.0,0.0,0.0,0.0,0.0,0.0,-3.5427,0.0,-3.5759,-3.6267,-3.5759,-3.5878,-3.6656,-3.6148,-3.6237,-3.6866,-3.7135,-3.7524,-3.8003,-3.8272,-3.8631,-3.902,-3.932,-3.9373,-3.9373,-3.9373,-3.9373,-3.9373,-3.9373,-3.9373,-3.9469,-3.7795,0.0,-3.8449,0.0,-3.9599,-3.9677,-3.9886,-4.0278,-4.0409,-3.9965,-3.9442,-3.9311,-3.986,-3.9181,-3.8658,-3.8475,-3.756,-3.6933,-3.675,-3.6201,-3.5783,-3.56,-3.5234,0.0,-3.3613,-3.3012,-3.2123,-3.0973,-3.0581,0.0,0.0,0.0,0.0,0.0,-2.8054,-2.842,-2.8472,-2.9274,-2.9588,-2.9562,-2.9797,-2.964,-2.9284,-2.9127,-2.8647,-2.8177,-2.8551,-2.8699,-2.8856,-2.9353,-2.9693,-3.0006,-3.0764,-3.0973,-3.0973,-3.0973,-3.0973,-3.0973,-3.0973,-3.0973,-3.0973,-3.0973,-3.0973,-3.0973,-3.0973,-3.0973,-3.0973,-3.0973,-3.0973,-3.0973,-3.0973,-3.0973,-3.0973,-3.0973,0.0,0.0,0.0,0.0,0.0,0.0,0.0,-3.0257,-3.0686,0.0,0.0,0.0,0.0,0.0,0.0,0.0,0.0,0.0,0.0,0.0,0.0,-3.5699,-3.5878,-3.6058,-3.6267,-3.6716,-3.7345,-3.7345,-3.7853,-3.8691,-3.8691,-3.896,-3.9373,-3.9373,-3.9373,-3.9373,-3.9373,-3.9373,-3.9373,-3.9373,-3.9373,-3.9373,-3.7795,-3.8344,-3.8893,-3.9494,-3.9599,-3.9416,-3.8815,-3.8736,-3.8736,-3.8736,-3.8266,-3.8135,-3.8684,-3.871,-3.8501,-3.7952,-3.7351,-3.675,-3.6149,-3.56,-3.5051,0.0,0.0,-3.4162,-3.3613,-3.3012,-3.2123,-3.0973,0.0,0.0,-2.842,0.0,-2.8394,-2.8394,-2.8394,-2.842,-2.842,-2.8386,-2.9065,-3.0048,-2.951,-2.9336,-2.9222,-2.8656,-2.8046,-2.7673,-2.8856,-2.8516,-2.7777,-2.95,-2.9745,-2.9519,-3.0634,-3.0973,-3.0973,-3.0973,-3.0973,-3.0973,-3.0973,-3.0973,-3.0973,-3.0973,-3.0973,-3.0973,-3.0973,-3.0973,-3.0973,-3.0973,-3.0973,-3.0973,-3.0973,-3.0973,-3.0973,-3.0973,0.0,0.0,0.0,0.0,0.0,0.0,-3.0477,-3.01,-3.01,0.0,0.0,0.0,0.0,0.0,0.0,0.0,0.0,-3.5427,-3.471,0.0,-3.5519,-3.6148,-3.6776,-3.7404,-3.8033,-3.8721,-3.9343,-3.9343,-3.9343,-3.9373,-3.9373,-3.9373,-3.9373,-3.9373,-3.9373,-3.9373,-3.9373,-3.9373,-3.9373,-3.9373,-3.9373,-3.9373,-3.8266,-3.8579,-3.8762,-3.8972,-3.9337,-3.9416,-3.8789,-3.905,-3.9311,-3.9311,-3.8815,-3.8527,-3.8684,-3.837,-3.7926,0.0,-3.675,-3.6149,0.0,-3.4999,-3.4607,-3.4397,-3.4397,-3.3953,-3.3012,-3.2803,-3.2123,-3.0973,0.0,0.0,0.0,-2.917,-2.8778,-2.842,-2.842,-2.842,-2.8446,-2.8865,-2.8996,-2.8935,-2.8786,-2.8438,-2.8072,-2.7863,-2.7646,-2.7542,-2.7968,-2.8098,-2.8203,-2.8752,-2.9353,-2.9928,-3.0257,-3.0686,-3.0973,-3.0973,-3.0973,-3.0973,-3.0973,-3.0973,-3.0973,-3.0973,-3.0973,-3.0973,-3.0973,-3.0973,-3.0973,-3.0973,-3.0973,-3.0973,-3.0973,-3.0973,-3.0973,-3.0973,-3.0973,0.0,0.0,0.0,0.0,0.0,0.0,-3.0712,0.0,-3.0555,0.0,0.0,0.0,0.0,0.0,0.0,0.0,0.0,-3.5231,0.0,-3.6178,-3.6387,-3.6806,-3.7404,-3.7614,-3.8063,-3.8721,-3.92,-3.9373,-3.9373,-3.9373,-3.9373,-3.9373,-3.9373,-3.9373,-3.9373,-3.9373,-3.9373,-3.9373,-3.9373,-3.9373,-3.9373,-3.8214,-3.8397,-3.8397,-3.8397,-3.871,-3.8841,-3.8475,-3.8736,-3.8972,-3.8972,-3.8632,-3.8318,-3.8083,-3.7769,0.0,-3.7037,-3.6462,-3.5861,-3.5338,-3.4737,-3.4397,-3.4397,-3.4397,-3.3875,-3.2725,0.0,0.0,-3.0973,-3.0764,-3.0607,-3.0424,-2.964,-2.9127,-2.8734,-2.8525,-2.8255,-2.8098,-2.8464,-2.8543,-2.8394,-2.815,-2.7968,-2.7811,-2.7568,-2.749,-2.7516,-2.7785,-2.7941,-2.8098,-2.8307,-2.8856,-2.951,-2.9745,-3.0215,-3.0712,-3.0921,-3.0973,-3.0973,-3.0973,-3.0973,-3.0973,-3.0973,-3.0973,-3.0973,-3.0973,-3.0973,-3.0973,-3.0973,-3.0973,-3.0973,-3.0973,-3.0973,-3.0973,-3.0973,-3.0973,-3.0973,-3.0973,0.0,0.0,0.0,0.0,0.0,0.0,-3.0973,0.0,0.0,0.0,0.0,0.0,0.0,0.0,-3.5004,-3.4974,0.0,-3.6477,-3.6684,-3.7099,-3.7793,-3.8033,-3.8362,-3.8781,-3.923,-3.9373,-3.9373,-3.9373,-3.9373,-3.9373,-3.9373,-3.9373,-3.9373,-3.9373,-3.9373,-3.9373,-3.9373,-3.9373,-3.9373,-3.7815,-3.79,0.0,0.0,-3.79,0.0,-3.7848,-3.7848,-3.7821,-3.7795,-3.7769,-3.756,-3.7011,-3.6933,-3.6933,-3.6881,0.0,0.0,0.0,-3.4711,-3.4397,-3.4397,-3.4371,-3.3822,-3.2725,-3.2646,-3.2097,-3.0973,-3.0451,-3.0477,-3.0973,-2.9849,-2.9388,-2.9301,-2.8708,-2.8098,-2.7542,-2.7516,-2.7837,-2.8281,-2.7758,-2.7863,-2.8255,-2.7699,-2.749,-2.7568,-2.8124,-2.7994,-2.7568,-2.815,-2.8394,-2.8525,-2.9074,-2.9614,-3.0153,-3.0817,-3.0973,-3.0973,-3.0973,-3.0973,-3.0973,-3.0973,-3.0973,-3.0973,-3.0973,-3.0973,-3.0973,-3.0973,-3.0973,-3.0973,-3.0973,-3.0973,-3.0973,-3.0973,-3.0973,-3.0973,-3.0973,0.0,0.0,0.0,0.0,0.0,0.0,-3.0973,-3.0973,0.0,0.0,0.0,0.0,0.0,-3.2208,-3.425,-3.4228,-3.495,-3.6537,-3.7034,-3.768,-3.8482,-3.9038,-3.9301,-3.9301,-3.9301,-3.9265,-3.9228,-3.9228,-3.9228,-3.9228,-3.9228,-3.9265,-3.9301,-3.9301,-3.9337,-3.9373,-3.9373,-3.9373,-3.9373,0.0,0.0,-3.8103,-3.7946,-3.79,-3.7743,-3.7273,-3.722,-3.7063,-3.6593,-3.6541,-3.6462,-3.6332,-3.6305,-3.6149,-3.573,-3.5574,-3.5234,-3.4659,-3.4476,-3.4397,-3.4397,-3.4005,-3.343,-3.2698,-3.2254,-3.1705,-3.0973,-3.0843,-3.0843,-3.0973,-3.0268,-2.9892,-2.9876,-2.8856,-2.8307,-2.815,-2.7673,-2.7568,-2.7673,-2.7542,-2.7568,-2.7673,-2.7542,-2.749,-2.7516,-2.7646,-2.762,-2.7516,-2.7646,-2.802,-2.8412,-2.8577,-2.9013,-2.9693,-3.0686,-3.0973,-3.0973,-3.0973,-3.0973,-3.0973,-3.0973,-3.0973,-3.0973,-3.0973,-3.0973,-3.0973,-3.0973,-3.0973,-3.0973,-3.0973,-3.0973,-3.0973,-3.0973,-3.0973,-3.0973,-3.0973,-3.0973,0.0,0.0,-3.0973,-3.0973,-3.0973,-3.0973,-3.0973,0.0,0.0,0.0,0.0,-3.1639,-3.2624,-3.4279,-3.475,-3.5711,-3.7195,-3.7799,-3.8484,-3.9134,-3.8701,-3.8464,-3.8464,-3.8464,-3.8136,-3.7472,-3.7472,-3.7472,-3.7472,-3.7472,-3.7881,-3.8464,-3.8464,-3.8863,-3.9373,-3.9373,-3.9373,-3.9373,-3.7467,-3.7677,-3.7719,-3.7322,-3.7415,-3.7299,-3.6698,-3.6828,-3.6776,-3.6175,-3.6096,-3.6018,-3.5757,-3.573,-3.5495,-3.4946,-3.5129,-3.4946,-3.4084,-3.4031,-3.3901,-3.3613,-3.3326,-3.2908,-3.2306,-3.1954,-3.151,-3.0973,-3.0973,-3.0973,-3.0973,-3.066,-3.0335,-3.0048,-2.9196,-2.8682,-2.8368,-2.7785,-2.749,-2.749,-2.749,-2.749,-2.749,-2.749,-2.749,-2.749,-2.749,-2.749,-2.749,-2.749,-2.7699,-2.8046,-2.8307,-2.8629,-2.9039,-2.9954,-3.0398,-3.0607,-3.0607,-3.079,-3.0973,-3.0973,-3.0973,-3.0973,-3.0973,-3.0973,-3.0973,-3.0973,-3.0973,-3.0973,-3.0973,-3.0973,-3.0973,-3.0973,-3.0973,-3.0973,-3.0973,-3.0973,0.0,-3.0973,-3.0973,-3.0973,-3.0973,-3.0973,-3.0973,-3.0973,0.0,0.0,-3.0973,-3.1357,-3.2137,-3.3255,-3.4156,-3.5167,-3.6328,-3.7657,-3.8661,-3.9373,-3.8973,-3.8752,-3.8723,-3.8352,-3.7947,-3.7462,-3.7088,-3.6894,-3.6894,-3.6894,-3.7165,-3.7615,-3.7615,-3.7881,-3.8256,-3.8256,-3.8256,-3.8256,-3.686,-3.7113,-3.7193,-3.6664,-3.6762,-3.6716,-3.6114,-3.6454,-3.6585,-3.594,-3.5905,-3.5721,-3.5208,-3.5155,-3.4946,-3.445,-3.4868,-3.4711,-3.3666,-3.3587,-3.3326,-3.2725,-3.2594,-3.2333,-3.1823,-3.1719,-3.147,-3.0973,-3.0973,-3.0973,-3.0973,-3.0973,-3.0686,-3.0074,-2.9536,-2.8935,-2.8368,-2.7785,-2.749,-2.749,-2.749,-2.749,-2.749,-2.749,-2.749,-2.749,-2.749,-2.749,-2.749,-2.749,-2.749,-2.7568,-2.8098,-2.8307,-2.8525,-2.9022,-2.9614,-3.01,-3.01,-3.0555,-3.0973,-3.0973,-3.0973,-3.0973,-3.0973,-3.0973,-3.0973,-3.0973,-3.0973,-3.0973,-3.0973,-3.0973,-3.0973,-3.0973,-3.0973,-3.0973,-3.0973,0.0,-3.0973,-3.0973,-3.0973,-3.0973,-3.0973,-3.0973,-3.0973,-3.0973,-3.0973,-3.0973,0.0,-3.0973,-3.131,-3.1919,-3.3074,-3.418,-3.5236,-3.6844,-3.8123,-3.9017,-3.8818,-3.8745,-3.8833,-3.8136,-3.7758,-3.7606,-3.6816,-3.6543,-3.6543,-3.6543,-3.6621,-3.6738,-3.6738,-3.6816,-3.6894,-3.6894,-3.6894,-3.6894,-3.708,-3.7182,-3.7123,-3.6801,-3.6637,-3.6375,-3.5752,-3.5752,-3.5552,-3.4779,-3.4853,-3.491,-3.4596,-3.4528,-3.4502,-3.4397,-3.4476,-3.4267,-3.3639,-3.3587,-3.3326,-3.2725,-3.2228,-3.1902,-3.1797,-3.1365,-3.1078,-3.0973,-3.0973,-3.0973,-3.0973,-3.0973,-3.0686,-3.0074,-2.9536,-2.8935,-2.8368,-2.7785,-2.749,-2.749,-2.749,-2.749,-2.749,-2.749,-2.749,-2.749,-2.749,-2.749,-2.749,-2.749,-2.749,-2.7516,-2.7594,-2.7994,-2.842,-2.8525,-2.9274,-3.01,-3.01,-3.0555,-3.0973,-3.0973,-3.0973,-3.0973,-3.0973,-3.0973,-3.0973,-3.0973,-3.0973,-3.0973,-3.0973,-3.0973,-3.0973,-3.0973,-3.0973,-3.0973,-3.0973,0.0,-3.0973,-3.0973,-3.0973,-3.0973,-3.0973,-3.0973,-3.0973,-3.0973,-3.0973,-3.0973,-3.0973,-3.0973,-3.1048,-3.1161,-3.2509,-3.4073,-3.593,-3.5515,-3.5964,-3.7281,-3.608,-3.5758,-3.6255,-3.6136,-3.5696,-3.4991,-3.4868,-3.4786,-3.4786,-3.4786,-3.521,-3.5896,-3.5896,-3.6306,-3.6894,-3.6894,-3.6894,-3.6894,-3.6373,-3.6572,-3.6554,-3.6106,-3.6109,-3.5982,-3.5398,-3.5584,-3.5542,-3.485,-3.4588,-3.4362,-3.4158,-3.3828,-3.3604,-3.3483,-3.3483,-3.3247,-3.2698,-3.2934,-3.2698,-3.181,-3.1522,-3.1392,-3.1392,-3.113,-3.0973,-3.0973,-3.0973,-3.0973,-3.0973,-3.0973,-3.0843,-3.0581,-3.0006,-2.9405,-2.8865,-2.8229,-2.7811,-2.749,-2.749,-2.749,-2.749,-2.749,-2.749,-2.749,-2.749,-2.749,-2.749,-2.749,-2.749,-2.749,-2.749,-2.7915,-2.842,-2.842,-2.9222,-3.0153,-3.0503,-3.079,-3.0973,-3.0973,-3.0973,-3.0973,-3.0973,-3.0973,-3.0973,-3.0973,-3.0973,-3.0973,-3.0973,-3.0973,-3.0973,-3.0973,-3.0973,0.0,0.0,-3.0973,-3.0973,-3.0973,-3.0973,-3.1104,-3.1418,-3.1444,-3.1575,-3.1888,-3.1627,-3.1444,-3.1444,-3.1444,-3.1313,-3.0999,-3.1902,-3.35,-3.588,-3.5159,-3.5492,-3.6866,-3.6225,-3.6097,-3.6306,-3.5896,-3.5481,-3.5073,-3.4605,-3.4397,-3.4397,-3.4397,-3.4647,-3.4991,-3.4991,-3.521,-3.5575,-3.5575,-3.5575,-3.5575,-3.5453,-3.5751,-3.5844,-3.5548,-3.5639,-3.5607,-3.5034,-3.5287,-3.5367,-3.4739,-3.4326,-3.398,-3.378,-3.3318,-3.2948,-3.2778,-3.2738,-3.2437,-3.185,-3.2254,-3.2045,-3.1026,-3.0973,-3.0973,-3.0973,-3.0973,-3.0973,-3.0973,-3.0973,-3.0973,-3.0973,-3.0973,-3.0921,-3.0764,-3.0309,-2.9823,-2.9284,-2.8682,-2.8124,-2.7673,-2.7542,-2.749,-2.749,-2.749,-2.749,-2.749,-2.749,-2.749,-2.749,-2.749,-2.749,-2.749,-2.749,-2.802,-2.8629,-2.8629,-2.9405,-3.0424,-3.0869,-3.0973,-3.0973,-3.0973,-3.0973,-3.0973,-3.0973,-3.0973,-3.0973,-3.0973,-3.0973,-3.0973,-3.0973,-3.0973,-3.0973,-3.0973,0.0,0.0,0.0,-3.0973,-3.0973,-3.0973,-3.1104,-3.1365,-3.1771,-3.1928,-3.2228,-3.2672,-3.2111,-3.1797,-3.1797,-3.1797,-3.1667,-3.1392,-3.181,-3.2961,-3.4969,-3.4673,-3.5125,-3.6346,-3.6207,-3.6207,-3.6306,-3.5696,-3.5399,-3.5359,-3.4662,-3.4397,-3.4397,-3.4397,-3.4397,-3.4397,-3.4397,-3.4397,-3.4397,-3.4397,-3.4397,-3.4397,-3.4748,-3.4883,-3.5073,-3.5588,-3.5561,-3.5238,-3.4647,-3.4593,-3.4326,-3.354,-3.3551,-3.3563,-3.3368,-3.3158,-3.2988,-3.2988,-3.2817,-3.2437,-3.185,-3.185,-3.1588,-3.1026,-3.0973,-3.0973,-3.0973,-3.0973,-3.0973,-3.0973,-3.0973,-3.0973,-3.0973,-3.0973,-3.0712,-3.0153,-3.0127,-2.9823,-2.9284,-2.8682,-2.8394,-2.8255,-2.7758,-2.749,-2.749,-2.749,-2.749,-2.749,-2.749,-2.749,-2.749,-2.749,-2.749,-2.749,-2.749,-2.8307,-2.9222,-2.9222,-3.0032,-3.0921,-3.0973,-3.0973,-3.0973,-3.0973,-3.0973,-3.0973,-3.0973,-3.0973,-3.0973,-3.0973,-3.0973,-3.0973,-3.0973,-3.0973,-3.0973,-3.0973,0.0,0.0,-3.0973,-3.0973,-3.0973,-3.0973,-3.1444,-3.1771,-3.1797,-3.2333,-3.2646,-3.2698,-3.2111,-3.1797,-3.1797,-3.1797,-3.2032,-3.2542,-3.2594,-3.2738,-3.2922,-3.3447,-3.3971,-3.4579,-3.4079,-3.4106,-3.4579,-3.4522,-3.4522,-3.4481,-3.4439,-3.4397,-3.4397,-3.4397,-3.4397,-3.4397,-3.4397,-3.4397,-3.4397,-3.4397,-3.4397,-3.4397,-3.4124,-3.4233,-3.4314,-3.4531,-3.4507,-3.4386,-3.417,-3.4143,-3.4024,-3.3703,-3.343,-3.3214,-3.3024,-3.2475,-3.2084,-3.197,-3.1742,-3.1548,-3.1313,-3.1313,-3.1209,-3.0999,-3.0973,-3.0973,-3.0973,-3.0973,-3.0973,-3.0973,-3.0973,-3.0973,-3.0973,-3.0973,-3.0869,-3.066,-3.066,-3.0137,-2.9284,-2.9074,-2.8516,-2.7837,-2.7568,-2.749,-2.749,-2.749,-2.749,-2.749,-2.749,-2.749,-2.749,-2.749,-2.749,-2.749,-2.749,-2.8333,-2.9467,-3.0137,-3.0634,-3.0973,-3.0973,-3.0973,-3.0973,-3.0973,-3.0973,-3.0973,-3.0973,-3.0973,-3.1078,-3.1444,-3.1522,-3.1522,-3.1522,-3.181,-3.194,-3.1575,0.0,-3.2045,-3.2045,-3.2045,-3.1914,-3.1548,-3.2019,-3.2359,-3.2359,-3.2908,-3.3404,-3.3718,-3.3247,-3.2751,-3.2385,-3.1705,-3.1914,-3.3195,-3.2881,-3.2881,-3.3247,-3.3483,-3.3875,-3.4397,-3.4188,-3.4188,-3.4397,-3.4397,-3.4397,-3.4397,-3.4397,-3.4397,-3.4397,-3.4397,-3.4397,-3.4397,-3.4397,-3.4397,-3.4397,-3.4397,-3.4397,-3.4397,-3.3566,-3.3637,-3.3691,-3.388,-3.3908,-3.3853,-3.3664,-3.3637,-3.3555,-3.3365,-3.305,-3.2742,-3.2631,-3.2058,-3.1633,-3.1495,-3.1235,-3.1086,-3.1086,-3.1048,-3.0973,-3.0973,-3.0973,-3.0973,-3.0973,-3.0973,-3.0973,-3.0973,-3.0817,-3.0712,-3.0712,-3.0529,-3.0487,-3.0451,-3.0634,-3.0189,-2.931,-2.931,-2.8699,-2.7785,-2.7568,-2.749,-2.749,-2.749,-2.749,-2.749,-2.749,-2.749,-2.749,-2.749,-2.749,-2.749,-2.749,-2.8333,-2.951,-3.066,-3.0973,-3.0973,-3.0973,-3.0973,-3.0973,-3.0973,-3.0973,-3.0973,-3.0973,-3.0973,-3.1156,-3.1693,-3.1797,-3.185,-3.2032,-3.2437,-3.2568,-3.2137,-3.2437,-3.262,-3.2437,-3.2568,-3.2411,-3.1615,-3.2411,-3.2908,-3.2698,-3.3404,-3.4005,-3.4371,-3.3901,-3.3404,-3.2986,-3.1888,-3.1967,-3.3535,-3.3012,-3.2986,-3.3587,-3.377,-3.4031,-3.4397,-3.4397,-3.4397,-3.4397,-3.4397,-3.4397,-3.4397,-3.4397,-3.4397,-3.4397,-3.4397,-3.4397,-3.4397,-3.4397,-3.4397,-3.4397,-3.4397,-3.4397,-3.4397,-3.2979,-3.3088,-3.3278,-3.3799,-3.3908,-3.3691,-3.3169,-3.3088,-3.287,-3.23,-3.2218,-3.2218,-3.2218,-3.2036,-3.189,-3.189,-3.1532,-3.131,-3.131,-3.1086,-3.0973,-3.0973,-3.0973,-3.0973,-3.0973,-3.0973,-3.0973,-3.0973,-3.0361,-3.01,-3.0074,-2.9536,-2.931,-2.9301,-2.9839,-2.9823,-2.931,-2.931,-2.8935,-2.8368,-2.7758,-2.749,-2.749,-2.749,-2.749,-2.749,-2.749,-2.749,-2.7516,-2.7516,-2.7516,-2.7516,-2.7516,-2.836,-2.951,-3.066,-3.0973,-3.0973,-3.0973,-3.0973,-3.0973,-3.0973,-3.0973,-3.0973,-3.0973,-3.0973,-3.1156,-3.1693,-3.1823,-3.198,-3.2594,-3.2698,-3.2698,-3.2698,-3.2698,-3.2515,-3.1902,-3.2333,-3.228,-3.113,-3.2542,-3.3352,-3.2751,-3.3718,-3.4397,-3.4397,-3.3901,-3.3587,-3.3613,-3.245,-3.2346,-3.3561,-3.3012,-3.2986,-3.3587,-3.4136,-3.4397,-3.4397,-3.4397,-3.4397,-3.4397,-3.4397,-3.4397,-3.4397,-3.4397,-3.4397,-3.4397,-3.4397,-3.4397,-3.4397,-3.4397,-3.4397,-3.4397,-3.4397,-3.4397,-3.4397,-3.2436,-3.249,-3.2544,-3.2671,-3.2698,-3.2643,-3.2517,-3.249,-3.2409,-3.2246,-3.2218,-3.2218,-3.2218,-3.2036,-3.189,-3.189,-3.1532,-3.1235,-3.1086,-3.1011,-3.0973,-3.0973,-3.0973,-3.0973,-3.0973,-3.0973,-3.079,-3.0361,-3.0179,-2.9892,-2.9536,-2.9353,-2.9483,-2.9839,-2.964,-2.9431,-2.9284,-2.8865,-2.8307,-2.7758,-2.7568,-2.749,-2.749,-2.749,-2.749,-2.749,-2.749,-2.7785,-2.8124,-2.8124,-2.8412,-2.883,-2.9187,-2.9327,-2.951,-3.066,-3.0973,-3.0973,-3.0973,-3.0973,-3.0973,-3.0973,-3.0973,-3.0973,-3.0973,-3.0973,-3.1261,-3.2228,-3.2437,-3.262,-3.3221,-3.3639,-3.377,-3.3378,-3.3326,-3.3404,-3.3613,-3.3091,-3.2568,-3.2228,-3.3012,-3.3352,-3.2751,-3.3718,-3.4397,-3.4397,-3.3901,-3.3744,-3.4136,-3.3064,-3.296,-3.411,-3.3195,-3.2986,-3.3587,-3.4136,-3.4397,-3.4397,-3.4397,-3.4397,-3.4397,-3.4397,-3.4397,-3.4397,-3.4397,-3.4397,-3.4397,-3.4397,-3.4397,-3.4397,-3.4397,-3.4397,-3.4397,-3.4397,-3.4397,-3.4397,-3.2218,-3.2218,-3.2218,-3.2218,-3.2218,-3.2218,-3.2218,-3.2218,-3.2218,-3.2218,-3.2218,-3.2218,-3.2218,-3.2109,-3.2036,-3.2036,-3.1743,-3.1421,-3.1261,-3.1161,-3.1123,-3.1123,-3.1048,-3.0973,-3.0973,-3.0973,-3.0712,-3.01,-2.9902,-2.951,-2.8943,-2.8699,-2.8778,-2.9056,-2.8987,-2.8804,-2.8569,-2.8438,-2.8046,-2.749,-2.749,-2.749,-2.749,-2.749,-2.749,-2.749,-2.749,-2.7758,-2.8046,-2.8046,-2.8438,-2.9065,-2.9839,-2.9902,-2.9797,-3.0712,-3.0973,-3.0973,-3.0973,-3.0973,-3.0973,-3.0973,-3.0973,-3.0973,-3.0973,-3.0973,-3.1235,-3.2176,-3.2359,-3.2594,-3.343,-3.3849,-3.4031,-3.3927,-3.3927,-3.3875,-3.3744,-3.3326,-3.2803,-3.2097,-3.296,-3.3352,-3.2751,-3.3718,-3.4397,-3.4397,-3.4084,-3.4058,-3.4371,-3.3535,-3.3456,-3.4371,-3.3273,-3.2986,-3.3587,-3.3666,-3.3718,-3.3718,-3.4188,-3.4293,-3.4084,-3.4293,-3.4397,-3.4397,-3.4397,-3.4397,-3.4397,-3.4397,-3.4397,-3.4397,-3.4397,-3.4397,-3.4397,-3.4397,-3.4397,-3.4397,-3.2218,-3.2218,-3.2218,-3.2218,-3.2218,-3.2218,-3.2218,-3.2218,-3.2218,-3.2218,-3.2218,-3.2218,-3.2218,-3.2218,-3.2218,-3.2218,-3.2036,-3.1817,-3.1596,-3.141,-3.131,-3.131,-3.1086,-3.0973,-3.0973,-3.0973,-3.0712,-3.01,-2.9614,-2.91,-2.8472,-2.7863,-2.762,-2.7751,-2.8203,-2.8124,-2.7699,-2.8255,-2.8098,-2.749,-2.7542,-2.7542,-2.749,-2.749,-2.749,-2.749,-2.749,-2.7516,-2.7568,-2.762,-2.802,-2.8647,-2.9683,-3.0048,-3.0205,-3.0764,-3.0947,-3.0973,-3.0973,-3.0973,-3.0973,-3.0973,-3.0973,-3.0973,-3.0973,-3.0973,-3.1156,-3.1745,-3.1876,-3.2215,-3.3378,-3.3639,-3.3822,-3.4267,-3.4319,-3.3953,-3.2908,-3.3169,-3.2855,-3.1313,-3.2542,-3.33,-3.2829,-3.377,-3.4397,-3.4397,-3.4397,-3.4397,-3.4397,-3.3927,-3.3901,-3.4371,-3.3352,-3.3038,-3.3587,-3.2986,-3.2698,-3.2698,-3.3744,-3.3979,-3.3535,-3.4084,-3.4319,-3.4319,-3.4371,-3.4397,-3.4397,-3.4397,-3.4397,-3.4397,-3.4397,-3.4397,-3.4397,-3.4397,-3.4397,-3.4397,-3.2218,-3.2218,-3.2218,-3.2218,-3.2218,-3.2218,-3.2218,-3.2218,-3.2218,-3.2218,-3.2218,-3.2218,-3.2218,-3.2218,-3.2218,-3.2218,-3.2036,-3.1817,-3.1596,-3.141,-3.131,-3.131,-3.1086,-3.0973,-3.0973,-3.0973,-3.0712,-3.01,-2.997,-2.964,-2.91,-2.8464,-2.8699,-2.95,-2.8726,-2.8569,-2.8908,-2.9039,-2.849,-2.7542,-2.802,-2.7915,-2.749,-2.749,-2.749,-2.749,-2.749,-2.7811,-2.8281,-2.8752,-2.8987,-2.9153,-2.9379,-2.9771,-3.0127,-3.0257,-3.0634,-3.0973,-3.0973,-3.0973,-3.0973,-3.0973,-3.0973,-3.0973,-3.0973,-3.0973,-3.1287,-3.2306,-3.2515,-3.2725,-3.3456,-3.3927,-3.411,-3.3822,-3.377,-3.3692,-3.343,-3.2725,-3.2254,-3.2306,-3.2646,-3.3012,-3.3352,-3.4005,-3.4397,-3.4397,-3.4397,-3.4397,-3.4397,-3.4293,-3.4267,-3.4397,-3.3744,-3.3456,-3.3587,-3.2986,-3.2698,-3.2698,-3.2934,-3.3012,-3.2908,-3.3509,-3.377,-3.3796,-3.4214,-3.4397,-3.4397,-3.4397,-3.4397,-3.4397,-3.4397,-3.4397,-3.4397,-3.4397,-3.4397,-3.4397,-3.2218,-3.2218,-3.2218,-3.2218,-3.2218,-3.2218,-3.2218,-3.2218,-3.2218,-3.2218,-3.2218,-3.2218,-3.2218,-3.2218,-3.2218,-3.2218,-3.2109,-3.2,-3.189,-3.1706,-3.1532,-3.1447,-3.1235,-3.1086,-3.0973,-3.0973,-3.0712,-3.01,-3.01,-2.9849,-2.931,-2.8996,-2.9144,-2.9693,-2.8778,-2.8577,-2.8865,-2.8569,-2.8098,-2.7516,-2.7863,-2.7785,-2.749,-2.749,-2.749,-2.749,-2.749,-2.7673,-2.8098,-2.8987,-2.931,-2.9379,-2.9964,-3.0294,-3.0529,-3.0529,-3.0738,-3.0973,-3.0973,-3.0973,-3.0973,-3.0973,-3.0973,-3.0973,-3.0973,-3.0973,-3.1235,-3.2097,-3.228,-3.2542,-3.343,-3.3822,-3.4005,-3.3979,-3.3979,-3.3796,-3.3247,-3.2881,-3.2568,-3.2306,-3.2777,-3.3352,-3.3927,-3.4241,-3.4397,-3.4397,-3.4397,-3.4397,-3.4397,-3.4397,-3.4397,-3.4397,-3.3875,-3.3456,-3.3169,-3.2568,-3.215,-3.1888,-3.2437,-3.2698,-3.2698,-3.33,-3.3744,-3.4005,-3.4267,-3.4397,-3.4397,-3.4397,-3.4397,-3.4397,-3.4397,-3.4241,-3.4058,-3.4293,-3.4397,-3.4397,-3.2218,-3.2218,-3.2218,-3.2218,-3.2218,-3.2218,-3.2218,-3.2218,-3.2218,-3.2218,-3.2218,-3.2218,-3.2218,-3.2218,-3.2218,-3.2218,-3.2218,-3.2218,-3.2218,-3.1963,-3.178,-3.1633,-3.1384,-3.1198,-3.1048,-3.1011,-3.0738,-3.0231,-3.0231,-3.0032,-2.9598,-2.9457,-2.9483,-2.9572,-2.8856,-2.8577,-2.849,-2.802,-2.7673,-2.7516,-2.7594,-2.7568,-2.749,-2.749,-2.749,-2.7516,-2.762,-2.7699,-2.7934,-2.8961,-2.9353,-2.9588,-3.0424,-3.0817,-3.0973,-3.0869,-3.0921,-3.0973,-3.0973,-3.0973,-3.0973,-3.0973,-3.0973,-3.0973,-3.0973,-3.1052,-3.1287,-3.1823,-3.2032,-3.2398,-3.3404,-3.3666,-3.3849,-3.4214,-3.4345,-3.4031,-3.2986,-3.3273,-3.3221,-3.2215,-3.3091,-3.3901,-3.4345,-3.4397,-3.4397,-3.4397,-3.4397,-3.4397,-3.4397,-3.4397,-3.4397,-3.4397,-3.3953,-3.3483,-3.2986,-3.2372,-3.1876,-3.1444,-3.228,-3.2646,-3.2568,-3.3169,-3.3744,-3.4267,-3.4371,-3.4397,-3.4397,-3.4397,-3.4345,-3.4267,-3.4371,-3.4005,-3.3509,-3.4058,-3.4319,-3.4397,-3.2218,-3.2218,-3.2218,-3.2218,-3.2218,-3.2218,-3.2218,-3.2218,-3.2218,-3.2218,-3.2218,-3.2218,-3.2218,-3.2218,-3.2218,-3.2218,-3.2218,-3.2218,-3.2218,-3.1853,-3.1706,-3.1853,-3.131,-3.1086,-3.1272,-3.1086,-3.0947,-3.0869,-3.0869,-3.0817,-3.0738,-3.0241,-3.0294,-3.0712,-2.964,-2.9179,-2.9179,-2.9065,-2.8464,-2.7542,-2.8072,-2.7968,-2.749,-2.749,-2.749,-2.7568,-2.8098,-2.8595,-2.9065,-2.9222,-2.9614,-2.9918,-2.9614,-3.0226,-3.0895,-3.0361,-3.0607,-3.0973,-3.0973,-3.0973,-3.0973,-3.0973,-3.0973,-3.0973,-3.0973,-3.1365,-3.185,-3.2463,-3.2986,-3.3404,-3.3561,-3.3979,-3.4162,-3.377,-3.4084,-3.4188,-3.3561,-3.3535,-3.3535,-3.3378,-3.3901,-3.4319,-3.4397,-3.4397,-3.4397,-3.4397,-3.4397,-3.4397,-3.4397,-3.4397,-3.4397,-3.4397,-3.4319,-3.4241,-3.4162,-3.3613,-3.3326,-3.3221,-3.2855,-3.2437,-3.1928,-3.2542,-3.3143,-3.3718,-3.4188,-3.4397,-3.4397,-3.4397,-3.411,-3.3744,-3.4214,-3.3744,-3.2881,-3.3483,-3.4005,-3.4397,-3.2218,-3.2218,-3.2218,-3.2218,-3.2218,-3.2218,-3.2218,-3.2218,-3.2218,-3.2218,-3.2218,-3.2218,-3.2218,-3.2218,-3.2218,-3.2218,-3.2218,-3.2218,-3.2218,-3.2036,-3.1853,-3.1743,-3.1485,-3.1261,-3.1123,-3.1048,-3.0973,-3.0973,-3.0973,-3.0973,-3.0973,-3.0738,-3.0581,-3.0477,-2.964,-2.9127,-2.8813,-2.8813,-2.8307,-2.7542,-2.815,-2.8046,-2.749,-2.749,-2.7699,-2.8072,-2.8673,-2.91,-2.9362,-2.964,-2.9892,-3.01,-3.0215,-3.0581,-3.0947,-3.0686,-3.079,-3.0973,-3.0973,-3.0973,-3.0973,-3.0973,-3.0973,-3.1078,-3.1392,-3.1914,-3.2385,-3.2646,-3.2908,-3.3273,-3.3927,-3.4241,-3.4319,-3.4084,-3.4241,-3.4214,-3.3666,-3.3849,-3.4031,-3.4031,-3.4267,-3.4397,-3.4397,-3.4397,-3.4397,-3.4397,-3.4397,-3.4397,-3.4397,-3.4397,-3.4397,-3.4397,-3.4397,-3.4267,-3.3953,-3.3718,-3.343,-3.3091,-3.2829,-3.2568,-3.2333,-3.2934,-3.3352,-3.3613,-3.4162,-3.4397,-3.4397,-3.4397,-3.4267,-3.4031,-3.3979,-3.343,-3.2725,-3.2986,-3.3456,-3.4005]},{"header":{"parameterUnit":"m.s-1","parameterCategory":1,"la1":30.6,"la2":28.766,"lo1":-90.7593,"lo2":-88.6598,"dy":0.0162,"dx":0.0183,"nx":116,"ny":114,"refTime":"2023-08-08T12:00:00:Z","depth":0,"parameterNumber":3,"parameterNumberName":"V-component_of_WINDS"},"data":[0.0,0.0,0.0,0.0,0.0,0.0,0.0,0.0,0.0,0.0,0.0,0.0,0.0,0.0,0.0,0.0,0.0,0.0,0.0,0.0,0.0,0.0,0.0,0.0,0.0,0.0,0.0,0.0,0.0,0.0,0.0,0.0,0.0,0.0,0.0,0.0,0.0,0.0,0.0,0.0,0.0,0.0,0.0,0.0,0.0,0.0,0.0,0.0,0.0,0.0,0.0,0.0,0.0,0.0,0.0,0.0,0.0,0.0,0.0,0.0,0.0,0.0,0.0,0.0,0.0,0.0,0.0,0.0,0.0,0.0,0.0,0.0,0.0,0.0,0.0,0.0,0.0,0.0,0.0,0.0,0.0,0.0,0.0,0.0,0.0,0.0,0.0,0.0,0.0,0.0,0.0,0.0,0.0,0.0,0.0,0.0,0.0,0.0,0.0,0.0,0.0,0.0,0.0,0.0,0.0,0.0,0.0,0.0,0.0,0.0,0.0,0.0,0.0,0.0,0.0,0.0,0.0,0.0,0.0,0.0,0.0,0.0,0.0,0.0,0.0,0.0,0.0,0.0,0.0,0.0,0.0,0.0,0.0,0.0,0.0,0.0,0.0,0.0,0.0,0.0,0.0,0.0,0.0,0.0,0.0,0.0,0.0,0.0,0.0,0.0,0.0,0.0,0.0,0.0,0.0,0.0,0.0,0.0,0.0,0.0,0.0,0.0,0.0,0.0,0.0,0.0,0.0,0.0,0.0,0.0,0.0,0.0,0.0,0.0,0.0,0.0,0.0,0.0,0.0,0.0,0.0,0.0,0.0,0.0,0.0,0.0,0.0,0.0,0.0,0.0,0.0,0.0,0.0,0.0,0.0,0.0,0.0,0.0,0.0,0.0,0.0,0.0,0.0,0.0,0.0,0.0,0.0,0.0,0.0,0.0,0.0,0.0,0.0,0.0,0.0,0.0,0.0,0.0,0.0,0.0,0.0,0.0,0.0,0.0,0.0,0.0,0.0,0.0,0.0,0.0,0.0,0.0,0.0,0.0,0.0,0.0,0.0,0.0,0.0,0.0,0.0,0.0,0.0,0.0,0.0,0.0,0.0,0.0,0.0,0.0,0.0,0.0,0.0,0.0,0.0,0.0,0.0,0.0,0.0,0.0,0.0,0.0,0.0,0.0,0.0,0.0,0.0,0.0,0.0,0.0,0.0,0.0,0.0,0.0,0.0,0.0,0.0,0.0,0.0,0.0,0.0,0.0,0.0,0.0,0.0,0.0,0.0,0.0,0.0,0.0,0.0,0.0,0.0,0.0,0.0,0.0,0.0,0.0,0.0,0.0,0.0,0.0,0.0,0.0,0.0,0.0,0.0,0.0,0.0,0.0,0.0,0.0,0.0,0.0,0.0,0.0,0.0,0.0,0.0,0.0,0.0,0.0,0.0,0.0,0.0,0.0,0.0,0.0,0.0,0.0,0.0,0.0,0.0,0.0,0.0,0.0,0.0,0.0,0.0,0.0,0.0,0.0,0.0,0.0,0.0,0.0,0.0,0.0,0.0,0.0,0.0,0.0,0.0,0.0,0.0,0.0,0.0,0.0,0.0,0.0,0.0,0.0,0.0,0.0,0.0,0.0,0.0,0.0,0.0,0.0,0.0,0.0,0.0,0.0,0.0,0.0,0.0,0.0,0.0,0.0,0.0,0.0,0.0,0.0,0.0,0.0,0.0,0.0,0.0,0.0,0.0,0.0,0.0,0.0,0.0,0.0,0.0,0.0,0.0,0.0,0.0,0.0,0.0,0.0,0.0,0.0,0.0,0.0,0.0,0.0,0.0,0.0,0.0,0.0,0.0,0.0,0.0,0.0,0.0,0.0,0.0,0.0,0.0,0.0,0.0,0.0,0.0,0.0,0.0,0.0,0.0,0.0,0.0,0.0,0.0,0.0,0.0,0.0,0.0,0.0,0.0,0.0,0.0,0.0,0.0,0.0,0.0,0.0,0.0,0.0,0.0,0.0,0.0,0.0,0.0,0.0,0.0,0.0,0.0,0.0,0.0,0.0,0.0,0.0,0.0,0.0,0.0,0.0,0.0,0.0,0.0,0.0,0.0,0.0,0.0,0.0,0.0,0.0,0.0,0.0,0.0,0.0,0.0,0.0,0.0,0.0,0.0,0.0,0.0,0.0,0.0,0.0,0.0,0.0,0.0,0.0,0.0,0.0,0.0,0.0,0.0,0.0,0.0,0.0,0.0,0.0,0.0,0.0,0.0,0.0,0.0,0.0,0.0,0.0,0.0,0.0,0.0,0.0,0.0,0.0,0.0,0.0,0.0,0.0,0.0,0.0,0.0,0.0,0.0,0.0,0.0,0.0,0.0,0.0,0.0,0.0,0.0,0.0,0.0,0.0,0.0,0.0,0.0,0.0,0.0,0.0,0.0,0.0,0.0,0.0,0.0,0.0,0.0,0.0,0.0,0.0,0.0,0.0,0.0,0.0,0.0,0.0,0.0,0.0,0.0,0.0,0.0,0.0,0.0,0.0,0.0,0.0,0.0,0.0,0.0,0.0,0.0,0.0,0.0,0.0,0.0,0.0,0.0,0.0,0.0,0.0,0.0,0.0,0.0,0.0,0.0,0.0,0.0,0.0,0.0,0.0,0.0,0.0,0.0,0.0,0.0,0.0,0.0,0.0,0.0,0.0,0.0,0.0,0.0,0.0,0.0,0.0,0.0,0.0,0.0,0.0,0.0,0.0,0.0,0.0,0.0,0.0,0.0,0.0,0.0,0.0,0.0,0.0,0.0,0.0,0.0,0.0,0.0,0.0,0.0,0.0,0.0,0.0,0.0,0.0,0.0,0.0,0.0,0.0,0.0,0.0,0.0,0.0,0.0,0.0,0.0,0.0,0.0,0.0,0.0,0.0,0.0,0.0,0.0,0.0,0.0,0.0,0.0,0.0,0.0,0.0,0.0,0.0,0.0,0.0,0.0,0.0,0.0,0.0,0.0,0.0,0.0,0.0,0.0,0.0,0.0,0.0,0.0,0.0,0.0,0.0,0.0,0.0,0.0,0.0,0.0,0.0,0.0,0.0,0.0,0.0,0.0,0.0,0.0,0.0,0.0,0.0,0.0,0.0,0.0,0.0,0.0,0.0,0.0,0.0,0.0,0.0,0.0,0.0,0.0,0.0,0.0,0.0,0.0,0.0,0.0,0.0,0.0,0.0,0.0,0.0,0.0,0.0,0.0,0.0,0.0,0.0,0.0,0.0,0.0,0.0,0.0,0.0,0.0,0.0,0.0,0.0,0.0,0.0,0.0,0.0,0.0,0.0,0.0,0.0,0.0,0.0,0.0,0.0,0.0,0.0,0.0,0.0,0.0,0.0,0.0,0.0,0.0,0.0,0.0,0.0,0.0,0.0,0.0,0.0,0.0,0.0,0.0,0.0,0.0,0.0,0.0,0.0,0.0,0.0,0.0,0.0,0.0,0.0,0.0,0.0,0.0,0.0,0.0,0.0,0.0,0.0,0.0,0.0,0.0,0.0,0.0,0.0,0.0,0.0,0.0,0.0,0.0,0.0,0.0,0.0,0.0,0.0,0.0,0.0,0.0,0.0,0.0,0.0,0.0,0.0,0.0,0.0,0.0,0.0,0.0,0.0,0.0,0.0,0.0,0.0,0.0,0.0,0.0,0.0,0.0,0.0,0.0,0.0,0.0,0.0,0.0,0.0,0.0,0.0,0.0,0.0,0.0,0.0,0.0,0.0,0.0,0.0,0.0,0.0,0.0,0.0,0.0,0.0,0.0,0.0,0.0,0.0,0.0,0.0,0.0,0.0,0.0,0.0,0.0,0.0,0.0,0.0,0.0,0.0,0.0,0.0,0.0,0.0,0.0,0.0,0.0,0.0,0.0,0.0,0.0,0.0,0.0,0.0,0.0,0.0,0.0,0.0,0.0,0.0,0.0,0.0,0.0,0.0,0.0,0.0,0.0,0.0,0.0,0.0,0.0,0.0,0.0,0.0,0.0,0.0,0.0,0.0,0.0,0.0,0.0,0.0,0.0,0.0,0.0,0.0,0.0,0.0,0.0,0.0,0.0,0.0,0.0,0.0,0.0,0.0,0.0,0.0,0.0,0.0,0.0,0.0,0.0,0.0,0.0,0.0,0.0,0.0,0.0,0.0,0.0,0.0,0.0,0.0,0.0,0.0,0.0,0.0,0.0,0.0,0.0,0.0,0.0,0.0,0.0,0.0,0.0,0.0,0.0,0.0,0.0,0.0,0.0,0.0,0.0,0.0,0.0,0.0,0.0,0.0,0.0,0.0,0.0,0.0,0.0,0.0,0.0,0.0,0.0,0.0,0.0,0.0,0.0,0.0,0.0,0.0,0.0,0.0,0.0,0.0,0.0,0.0,0.0,0.0,0.0,0.0,0.0,0.0,0.0,0.0,0.0,0.0,0.0,0.0,0.0,0.0,0.0,0.0,0.0,0.0,0.0,0.0,0.0,0.0,0.0,0.0,0.0,0.0,0.0,0.0,0.0,0.0,0.0,0.0,0.0,0.0,0.0,0.0,0.0,0.0,0.0,0.0,0.0,0.0,0.0,0.0,0.0,0.0,0.0,0.0,0.0,0.0,0.0,0.0,0.0,0.0,0.0,0.0,0.0,0.0,0.0,0.0,0.0,0.0,0.0,0.0,0.0,0.0,0.0,0.0,0.0,0.0,0.0,0.0,0.0,0.0,0.0,0.0,0.0,0.0,0.0,0.0,0.0,0.0,0.0,0.0,0.0,0.0,0.0,0.0,0.0,0.0,0.0,0.0,0.0,0.0,0.0,0.0,0.0,0.0,0.0,0.0,0.0,0.0,0.0,0.0,0.0,0.0,0.0,0.0,0.0,0.0,0.0,0.0,0.0,0.0,0.0,0.0,0.0,0.0,0.0,0.0,0.0,0.0,0.0,0.0,0.0,0.0,0.0,0.0,0.0,0.0,0.0,0.0,0.0,0.0,0.0,0.0,0.0,0.0,0.0,0.0,0.0,0.0,0.0,0.0,0.0,0.0,0.0,0.0,0.0,0.0,0.0,0.0,0.0,0.0,0.0,0.0,0.0,0.0,0.0,0.0,0.0,0.0,0.0,0.0,0.0,0.0,0.0,0.0,0.0,0.0,0.0,0.0,0.0,0.0,0.0,0.0,0.0,0.0,0.0,0.0,0.0,0.0,0.0,0.0,0.0,0.0,0.0,0.0,0.0,0.0,0.0,0.0,0.0,0.0,0.0,0.0,0.0,0.0,0.0,0.0,0.0,0.0,0.0,0.0,0.0,0.0,0.0,0.0,0.0,0.0,0.0,0.0,0.0,0.0,0.0,0.0,0.0,0.0,0.0,0.0,0.0,0.0,0.0,0.0,0.0,0.0,0.0,0.0,0.0,0.0,0.0,0.0,0.0,0.0,0.0,0.0,0.0,0.0,0.0,0.0,0.0,0.0,0.0,0.0,0.0,0.0,0.0,0.0,0.0,0.0,0.0,0.0,0.0,0.0,0.0,0.0,0.0,0.0,0.0,0.0,0.0,0.0,0.0,0.0,0.0,0.0,0.0,0.0,0.0,0.0,0.0,0.0,0.0,0.0,0.0,0.0,0.0,0.0,0.0,0.0,0.0,0.0,0.0,0.0,0.0,0.0,0.0,0.0,0.0,0.0,0.0,0.0,0.0,0.0,0.0,0.0,0.0,0.0,0.0,0.0,0.0,0.0,0.0,0.0,0.0,0.0,0.0,0.0,0.0,0.0,0.0,0.0,0.0,0.0,0.0,0.0,0.0,0.0,0.0,0.0,0.0,0.0,0.0,0.0,0.0,0.0,0.0,0.0,0.0,0.0,0.0,0.0,0.0,0.0,0.0,0.0,0.0,0.0,0.0,0.0,0.0,0.0,0.0,0.0,0.0,0.0,0.0,0.0,0.0,0.0,0.0,0.0,0.0,0.0,0.0,0.0,0.0,0.0,0.0,0.0,0.0,0.0,0.0,0.0,0.0,0.0,0.0,0.0,0.0,0.0,0.0,0.0,0.0,0.0,0.0,0.0,0.0,0.0,0.0,0.0,0.0,0.0,0.0,0.0,0.0,0.0,0.0,0.0,-2.432,0.0,0.0,0.0,0.0,0.0,0.0,0.0,0.0,0.0,0.0,0.0,0.0,0.0,0.0,0.0,0.0,0.0,0.0,0.0,0.0,0.0,0.0,0.0,0.0,0.0,0.0,0.0,0.0,0.0,0.0,0.0,0.0,0.0,0.0,0.0,0.0,0.0,0.0,0.0,0.0,0.0,0.0,0.0,0.0,0.0,0.0,0.0,0.0,0.0,0.0,0.0,0.0,0.0,0.0,0.0,0.0,0.0,0.0,0.0,0.0,0.0,0.0,0.0,0.0,0.0,0.0,0.0,0.0,0.0,0.0,0.0,0.0,0.0,0.0,0.0,0.0,0.0,0.0,0.0,0.0,0.0,0.0,0.0,0.0,0.0,0.0,0.0,0.0,0.0,0.0,0.0,0.0,0.0,0.0,0.0,0.0,0.0,0.0,0.0,0.0,0.0,0.0,0.0,0.0,0.0,0.0,0.0,0.0,0.0,0.0,0.0,0.0,0.0,0.0,0.0,0.0,-2.5666,0.0,0.0,0.0,0.0,0.0,0.0,0.0,0.0,0.0,0.0,0.0,0.0,0.0,0.0,0.0,0.0,0.0,0.0,0.0,0.0,0.0,0.0,0.0,0.0,0.0,0.0,0.0,0.0,0.0,0.0,0.0,0.0,0.0,0.0,0.0,0.0,0.0,0.0,0.0,0.0,0.0,0.0,0.0,0.0,0.0,0.0,0.0,0.0,0.0,0.0,0.0,0.0,0.0,0.0,0.0,0.0,0.0,0.0,0.0,0.0,0.0,0.0,0.0,0.0,0.0,0.0,0.0,0.0,0.0,0.0,0.0,0.0,0.0,0.0,0.0,0.0,0.0,0.0,0.0,0.0,0.0,0.0,0.0,0.0,0.0,0.0,0.0,0.0,0.0,0.0,0.0,0.0,0.0,0.0,0.0,0.0,0.0,0.0,0.0,0.0,0.0,0.0,0.0,0.0,0.0,0.0,0.0,0.0,-3.0144,-3.0671,-3.0876,-3.0934,-3.0949,-3.089,-2.9998,-2.8939,-2.7804,0.0,0.0,0.0,0.0,0.0,0.0,0.0,0.0,0.0,0.0,0.0,0.0,0.0,0.0,0.0,0.0,0.0,0.0,0.0,0.0,0.0,0.0,0.0,0.0,0.0,0.0,0.0,0.0,0.0,0.0,0.0,0.0,0.0,0.0,0.0,0.0,0.0,0.0,0.0,-3.8442,-3.9496,-3.9572,-3.8718,-3.6335,0.0,0.0,0.0,0.0,0.0,0.0,0.0,0.0,0.0,0.0,0.0,0.0,0.0,0.0,0.0,0.0,0.0,0.0,0.0,0.0,0.0,0.0,0.0,0.0,0.0,0.0,0.0,0.0,0.0,0.0,0.0,0.0,0.0,0.0,0.0,0.0,0.0,0.0,0.0,0.0,0.0,0.0,0.0,-2.4525,-2.3889,0.0,0.0,0.0,0.0,0.0,0.0,0.0,0.0,0.0,0.0,0.0,0.0,0.0,0.0,-2.9281,-3.1417,-3.2529,-3.2632,-3.4388,-3.5105,-3.4979,-3.5163,-3.5295,-3.528,-3.616,0.0,-2.9233,-2.9807,0.0,0.0,0.0,0.0,0.0,0.0,0.0,0.0,0.0,0.0,0.0,0.0,0.0,0.0,0.0,0.0,0.0,0.0,0.0,0.0,0.0,0.0,0.0,0.0,0.0,0.0,0.0,0.0,0.0,0.0,0.0,0.0,0.0,0.0,0.0,0.0,-3.8818,-4.0453,-4.1204,-4.1982,-4.2975,-4.4023,-4.25,-4.0543,-3.8316,-3.7096,0.0,0.0,0.0,0.0,0.0,0.0,0.0,0.0,0.0,0.0,0.0,0.0,0.0,0.0,0.0,0.0,0.0,0.0,0.0,0.0,0.0,0.0,0.0,0.0,0.0,0.0,0.0,0.0,0.0,0.0,0.0,0.0,0.0,0.0,0.0,0.0,0.0,0.0,0.0,-2.5273,-2.6056,-2.4751,-2.4472,-2.3727,0.0,0.0,0.0,0.0,0.0,0.0,0.0,0.0,0.0,-2.9164,-3.0773,-3.209,-3.3189,-3.4636,-3.5588,-3.5968,-3.6992,-3.7504,-3.7563,-3.787,-3.8615,-3.962,-3.9937,-3.9372,-3.7963,-3.5708,-3.4647,-3.4284,0.0,0.0,0.0,0.0,-3.6506,-3.7332,0.0,0.0,0.0,0.0,0.0,0.0,0.0,0.0,0.0,0.0,0.0,0.0,0.0,0.0,0.0,0.0,0.0,0.0,0.0,0.0,0.0,0.0,0.0,0.0,0.0,0.0,0.0,0.0,-4.2187,-4.4219,-4.5068,-4.5788,-4.7158,-4.9059,-4.8665,-4.5807,-4.126,-4.0394,-3.921,0.0,0.0,0.0,0.0,0.0,0.0,0.0,0.0,0.0,0.0,0.0,0.0,0.0,0.0,0.0,0.0,0.0,0.0,0.0,0.0,0.0,0.0,0.0,0.0,0.0,0.0,0.0,0.0,0.0,0.0,0.0,0.0,0.0,0.0,0.0,0.0,0.0,0.0,-2.6738,-2.7685,-2.5877,-2.6734,-2.6313,0.0,0.0,0.0,0.0,0.0,0.0,-2.8008,-2.9705,-3.1242,-3.2617,-3.4241,-3.5631,-3.6744,-3.7475,-3.8119,-3.869,-3.8836,-3.9041,-3.929,-4.0238,-4.1285,-4.2509,-4.3165,-4.4478,-4.5662,-4.1318,-3.9645,-3.9796,-3.8906,-3.8708,-3.8876,-3.9584,-3.9902,-4.0261,0.0,0.0,0.0,0.0,0.0,0.0,0.0,0.0,0.0,0.0,0.0,0.0,0.0,0.0,0.0,0.0,0.0,-4.3564,0.0,0.0,0.0,0.0,0.0,0.0,0.0,0.0,0.0,-4.3645,-4.6614,-4.9008,-5.0721,-5.1832,-5.2729,-5.3392,-5.3365,-5.2217,-5.0066,-4.568,-4.359,-4.2863,0.0,0.0,0.0,0.0,0.0,0.0,0.0,0.0,0.0,0.0,0.0,0.0,0.0,0.0,0.0,0.0,0.0,0.0,0.0,0.0,0.0,0.0,0.0,0.0,0.0,0.0,0.0,0.0,0.0,0.0,0.0,0.0,0.0,0.0,0.0,0.0,0.0,0.0,0.0,-2.8286,-3.0528,0.0,0.0,0.0,0.0,-2.5838,-2.7071,-2.8769,-3.0978,-3.2924,-3.4695,-3.629,-3.7914,-3.9085,-3.9773,-3.9831,-4.0021,-4.0358,-4.0065,-3.9934,-4.0071,-4.2496,-4.3332,-4.2876,-4.6578,-4.8353,-4.8397,-4.5071,-4.3273,-4.2728,-4.2759,-4.2324,-4.1662,-4.241,-4.2994,-4.3387,0.0,0.0,0.0,0.0,0.0,0.0,0.0,0.0,0.0,0.0,0.0,0.0,0.0,0.0,0.0,0.0,0.0,0.0,0.0,0.0,0.0,0.0,0.0,0.0,0.0,0.0,-4.3585,-4.6329,-4.8409,-5.0313,-5.2054,-5.2489,-5.3641,-5.5468,-5.5468,-5.5519,-5.5396,-5.0472,-4.7453,-4.5643,-4.237,-3.9942,0.0,0.0,0.0,0.0,0.0,0.0,0.0,0.0,0.0,0.0,0.0,0.0,0.0,0.0,0.0,0.0,0.0,0.0,0.0,0.0,0.0,0.0,0.0,0.0,0.0,0.0,0.0,0.0,0.0,0.0,0.0,0.0,0.0,0.0,0.0,0.0,0.0,-3.2793,-3.425,0.0,0.0,-3.0845,-3.0341,-3.1246,-3.1661,-3.288,-3.4914,-3.648,-3.787,-3.9056,-3.986,-4.0563,-4.1207,-4.1046,-4.1319,-4.2181,-4.1851,-4.265,-4.4441,-4.5079,-4.6546,-4.8742,-4.9588,-5.09,-5.2317,-5.0555,-4.8882,-4.7344,-4.7028,-4.6226,-4.5195,-4.544,-4.5664,-4.5809,0.0,0.0,0.0,0.0,0.0,0.0,0.0,0.0,0.0,0.0,0.0,0.0,0.0,0.0,0.0,0.0,0.0,0.0,0.0,0.0,0.0,0.0,0.0,0.0,0.0,-4.4068,-4.6634,-4.956,-5.107,-5.2768,-5.4491,-5.4491,-5.5547,-5.7385,-5.7556,-5.8142,-5.8697,-5.4963,-5.1555,-4.8418,-4.545,-4.3286,-4.1426,0.0,0.0,0.0,0.0,0.0,0.0,0.0,0.0,0.0,0.0,0.0,0.0,0.0,0.0,0.0,0.0,0.0,0.0,0.0,0.0,0.0,0.0,0.0,0.0,0.0,0.0,0.0,0.0,0.0,0.0,0.0,0.0,0.0,0.0,0.0,-3.4655,-3.6082,-3.7982,-3.8538,-3.6812,-3.5987,-3.5719,-3.635,-3.6341,-3.707,-3.8867,-3.9285,-4.0183,-4.181,-4.1489,-4.1932,-4.3023,-4.1924,-4.2163,-4.3578,-4.3193,-4.4178,-4.6398,-4.7286,-4.8981,-5.1258,-5.1762,-5.2679,-5.3903,-5.3357,-5.2179,-5.0632,-5.0177,-4.9245,-4.8169,-4.8003,-4.7962,-4.7858,0.0,0.0,0.0,0.0,0.0,0.0,0.0,0.0,0.0,0.0,0.0,0.0,0.0,0.0,0.0,0.0,0.0,0.0,0.0,0.0,0.0,0.0,0.0,0.0,0.0,0.0,-5.1004,-5.3559,-5.4836,-5.6403,-5.8261,-5.8261,-5.8639,-5.9306,-5.9887,-6.0148,-6.0119,-5.8842,-5.5794,-5.1527,-4.8228,-4.6563,-4.5457,0.0,0.0,0.0,0.0,0.0,0.0,0.0,0.0,0.0,0.0,0.0,0.0,0.0,0.0,0.0,0.0,0.0,0.0,0.0,0.0,0.0,0.0,0.0,0.0,0.0,0.0,0.0,0.0,0.0,0.0,0.0,0.0,0.0,-3.1984,-3.4854,-3.7162,-3.8096,-4.1572,-4.2695,-3.9552,-4.1686,-4.2596,-4.0898,-4.0562,-4.0996,-4.2461,-4.1284,-4.184,-4.4487,-4.2901,-4.3105,-4.5488,-4.2819,-4.2599,-4.4641,-4.4301,-4.4611,-4.5632,-4.9266,-5.0545,-5.0119,-5.3104,-5.3903,-5.314,-5.3199,-5.293,-5.2454,-5.1978,-5.1232,-5.0363,-4.9928,-4.9763,-4.9473,0.0,0.0,0.0,0.0,0.0,0.0,0.0,0.0,0.0,0.0,0.0,0.0,0.0,0.0,0.0,0.0,0.0,0.0,0.0,0.0,0.0,0.0,0.0,0.0,0.0,0.0,0.0,-5.4894,-5.5736,-5.6636,-5.7565,-5.7565,-5.7942,-5.8581,-5.8755,-5.9335,-6.0119,-5.8842,-5.7594,-5.6055,-5.1468,-4.8943,-4.7532,0.0,0.0,0.0,0.0,0.0,0.0,0.0,0.0,0.0,0.0,0.0,0.0,0.0,0.0,0.0,0.0,0.0,0.0,0.0,0.0,0.0,0.0,0.0,0.0,0.0,0.0,0.0,0.0,0.0,0.0,0.0,0.0,-3.4891,-3.5658,-3.8176,-4.0724,-4.2863,-4.5197,-4.6538,-4.6199,-4.6138,-4.5816,-4.4972,-4.3539,-4.2997,-4.3911,-4.2973,-4.3431,-4.5535,-4.4615,-4.5107,-4.7198,-4.5361,-4.6193,-4.969,-4.7768,-4.8697,-5.2196,-5.1889,-5.2558,-5.3706,-5.4197,-5.4094,-5.3652,-5.3622,-5.3199,-5.2454,-5.1978,-5.1232,-5.0404,-5.028,-4.9825,-4.908,0.0,0.0,0.0,0.0,0.0,0.0,0.0,0.0,0.0,0.0,0.0,0.0,0.0,0.0,0.0,0.0,0.0,0.0,0.0,0.0,0.0,0.0,0.0,0.0,0.0,0.0,0.0,0.0,-5.6229,-5.6723,-5.7303,-5.7594,-5.7942,-5.8319,-5.8871,-5.9364,-5.9771,-5.9045,-5.8552,-5.8,-5.4487,-5.231,-5.0772,-4.7288,-4.5001,-4.3342,-4.1087,-3.9794,-3.8769,-3.6181,0.0,0.0,0.0,0.0,0.0,0.0,0.0,0.0,0.0,0.0,0.0,0.0,0.0,0.0,0.0,0.0,0.0,0.0,0.0,0.0,0.0,0.0,0.0,0.0,-3.691,-3.9065,-4.0534,-4.1785,-4.3616,-4.639,-4.7996,-4.932,-5.0238,-5.0161,-4.9896,-4.9733,-4.8176,-4.7495,-4.8337,-4.6956,-4.7137,-4.9358,-4.8071,-4.8373,-5.0557,-4.8687,-4.9123,-5.1924,-5.0444,-5.1201,-5.3906,-5.3418,-5.3787,0.0,-5.4648,-5.4379,-5.411,-5.3716,-5.3261,0.0,0.0,0.0,0.0,0.0,-4.9431,-4.8417,0.0,0.0,0.0,0.0,0.0,0.0,0.0,0.0,0.0,0.0,0.0,0.0,0.0,0.0,0.0,0.0,0.0,0.0,0.0,0.0,0.0,0.0,0.0,0.0,0.0,0.0,0.0,0.0,0.0,-5.7013,-5.7536,-5.8145,-5.8464,-5.8552,-5.9684,-5.9945,-5.951,-5.9364,-5.8958,-5.829,-5.7013,-5.5707,-5.4057,-5.0361,-4.8439,-4.7308,-4.4075,-4.1868,-4.0229,-3.8336,0.0,0.0,0.0,0.0,0.0,0.0,0.0,0.0,0.0,0.0,0.0,0.0,0.0,0.0,0.0,0.0,0.0,0.0,0.0,0.0,0.0,0.0,0.0,0.0,-4.0862,-4.3449,-4.5747,-4.5616,-4.6163,-4.8775,-5.0114,-5.124,-5.2308,-5.3447,-5.4013,-5.3969,-5.3083,-5.2808,-5.3605,0.0,0.0,0.0,0.0,-5.216,-5.4482,-5.2323,-5.1755,-5.2973,-5.2801,-5.2869,-5.313,-5.4142,-5.4586,-5.4544,-5.4544,-5.4482,-5.4317,-5.3509,-5.3116,-5.2992,-5.2516,-5.1791,-5.0922,-5.0011,-4.8873,-4.7755,0.0,0.0,0.0,0.0,0.0,0.0,0.0,0.0,0.0,0.0,0.0,0.0,0.0,0.0,0.0,0.0,0.0,0.0,0.0,0.0,0.0,0.0,0.0,0.0,0.0,0.0,0.0,0.0,0.0,0.0,-5.8929,-5.9045,-5.9364,-5.9829,-6.009,-6.0438,-6.0758,-5.9742,-5.9219,-5.8987,-5.7681,-5.6084,-5.4206,-5.1413,-4.8865,-4.6499,-4.4333,-4.3325,-4.2806,-4.1106,-4.0676,-4.0576,-3.8944,0.0,0.0,0.0,0.0,0.0,0.0,0.0,0.0,0.0,0.0,0.0,0.0,0.0,0.0,0.0,0.0,0.0,0.0,0.0,0.0,-4.0448,-4.3221,-4.5809,-4.8086,-4.9283,-4.9764,-4.9556,-5.1409,-5.2898,-5.3371,-5.4674,-5.5074,-5.411,-5.3931,-5.3729,-5.3518,-5.2527,0.0,-5.4674,-5.3904,-5.4356,-5.6195,-5.4717,-5.5157,-5.7393,0.0,0.0,-5.5869,-5.5338,-5.4875,-5.4544,-5.4544,-5.411,-5.3427,-5.3261,-5.2743,-5.2019,-5.1564,-5.1046,-5.0446,-4.9535,-4.879,-4.8127,0.0,0.0,0.0,0.0,0.0,0.0,0.0,0.0,0.0,0.0,0.0,0.0,0.0,0.0,0.0,0.0,0.0,0.0,0.0,0.0,0.0,0.0,0.0,0.0,0.0,0.0,0.0,0.0,0.0,0.0,-5.9771,-6.009,-6.0584,-6.1164,-6.1483,-6.1483,-6.1164,-6.0526,-5.9684,-5.8755,-5.8058,-5.6868,-5.5221,-5.3015,-5.0739,-4.8463,-4.655,-4.534,-4.4443,-4.3037,-4.276,-4.2635,-4.0701,-3.8339,-3.6015,0.0,0.0,0.0,0.0,0.0,0.0,0.0,0.0,0.0,0.0,0.0,0.0,0.0,0.0,-3.4099,0.0,0.0,-4.0779,-4.3511,-4.5498,-4.732,-4.9162,-5.0384,-5.1019,-5.0751,-5.2353,-5.3776,-5.4408,-5.5309,-5.6033,-5.6273,-5.6325,-5.6538,-5.6701,-5.6372,-5.649,-5.7078,-5.7058,-5.7281,-5.7673,-5.75,-5.77,-5.825,-5.6843,-5.6271,-5.618,-5.5269,-5.4751,-5.4524,-5.4296,-5.3923,-5.3489,-5.3013,-5.2433,-5.175,-5.1294,-5.0818,-5.028,-4.9142,-4.8417,-4.7941,0.0,0.0,0.0,0.0,0.0,0.0,0.0,0.0,0.0,0.0,0.0,0.0,0.0,0.0,0.0,0.0,0.0,0.0,0.0,0.0,0.0,0.0,0.0,0.0,0.0,0.0,0.0,0.0,0.0,0.0,0.0,-6.1309,-6.1832,-6.2325,-6.2848,-6.2441,-6.1367,-6.1106,-6.0032,-5.8464,-5.8203,-5.7308,-5.596,-5.4008,-5.2259,-5.0574,-4.8405,-4.6481,-4.492,-4.4317,-4.384,-4.3181,-4.1554,-3.981,-3.7892,-3.55,-3.3224,0.0,0.0,0.0,0.0,0.0,0.0,0.0,0.0,0.0,-3.2644,-3.4921,-3.6121,-3.7591,-4.0386,-4.2083,-4.3822,-4.6223,-4.7444,-4.85,-4.9721,-5.0673,-5.1419,-5.1874,-5.3075,-5.4192,-5.5103,-5.5683,-5.6614,-5.8105,-5.8539,-5.9036,-5.9678,-5.9885,-5.9781,-5.9305,-5.9657,-5.9492,-5.8746,-5.9492,-5.9285,-5.8187,-5.7711,-5.6966,-5.5973,-5.5165,-5.471,-5.4503,-5.3965,-5.3654,-5.353,-5.2702,-5.2143,-5.175,-5.1191,-5.0736,-5.0259,-4.8873,-4.8086,-4.761,0.0,0.0,0.0,0.0,0.0,0.0,0.0,0.0,0.0,0.0,0.0,0.0,0.0,0.0,0.0,0.0,0.0,0.0,0.0,0.0,0.0,0.0,0.0,0.0,0.0,0.0,0.0,0.0,0.0,0.0,0.0,-6.2848,-6.2906,-6.2993,-6.3051,-6.2674,-6.1919,-6.0787,-5.9887,-5.9074,-5.7884,-5.668,-5.5245,-5.2887,-5.1544,-5.0489,-4.7023,-4.4684,-4.3463,-4.4844,-4.3966,-4.2468,-4.2919,-4.1605,-3.9204,-3.5666,0.0,-3.099,-2.9111,-2.8977,-2.958,-3.0719,-3.1402,-3.2747,0.0,0.0,-3.7384,-3.964,-4.0841,-4.1855,-4.3014,-4.4691,-4.6244,-4.7361,-4.8666,-4.9721,-5.0259,-5.115,-5.1895,-5.2371,-5.3261,-5.4192,-5.5103,-5.5973,-5.6573,-5.678,-5.8312,-5.9098,-5.8788,-5.9554,-5.9781,-5.9305,-5.9347,-5.9326,-5.9222,-5.9326,-5.9305,-5.914,-5.8684,-5.7773,-5.6469,-5.5952,-5.5289,-5.4482,-5.3633,-5.3013,-5.2599,-5.2081,-5.1853,-5.1708,-5.0839,-5.0466,-5.0259,-4.8873,-4.8086,-4.7568,0.0,0.0,0.0,0.0,0.0,0.0,0.0,0.0,0.0,0.0,0.0,0.0,0.0,0.0,0.0,0.0,0.0,0.0,0.0,0.0,0.0,0.0,0.0,0.0,0.0,0.0,0.0,0.0,0.0,0.0,0.0,0.0,-6.4038,-6.4735,-6.4357,-6.3835,-6.3167,-6.2267,-6.1077,-5.9742,-5.8842,-5.7053,-5.4679,-5.2248,-4.9918,-4.7572,-4.4954,-4.3162,0.0,0.0,-4.1444,-4.0691,-4.0749,-3.9245,-3.6961,-3.4302,-3.248,0.0,-3.0743,-3.0706,0.0,0.0,-3.3886,-3.5811,-3.8067,-3.904,-4.0179,-4.2745,-4.3801,-4.4691,-4.6119,-4.701,-4.7734,0.0,-4.9204,-4.9908,-5.0363,-5.0529,-5.088,-5.1605,-5.2019,-5.293,-5.4648,-5.5393,-5.6097,-5.6883,-5.7649,-5.825,-5.8581,-5.9222,-5.9264,-5.8519,-5.9285,-5.945,-5.8912,-5.9429,-5.9699,-5.9699,-5.8684,-5.7773,-5.6925,-5.5931,-5.4834,-5.3716,-5.3054,-5.2516,-5.2081,-5.1874,-5.1646,-5.1336,-5.0673,-5.0094,-4.9494,-4.8376,-4.7858,-4.7548,0.0,0.0,0.0,0.0,0.0,0.0,0.0,0.0,0.0,0.0,0.0,0.0,0.0,0.0,0.0,0.0,0.0,0.0,0.0,0.0,0.0,0.0,0.0,0.0,0.0,0.0,0.0,0.0,0.0,0.0,0.0,0.0,-6.5228,-6.5896,-6.5257,-6.4648,-6.3917,-6.2993,-6.1658,-6.0119,-5.8782,-5.6477,-5.3492,-5.0615,-4.7498,-4.4367,-4.287,-4.1204,0.0,0.0,-3.842,-3.8022,-3.7678,-3.6567,-3.4967,-3.3051,-3.1901,-3.1257,-3.1588,0.0,0.0,-3.4527,-3.6949,-3.9288,-4.0468,-4.169,-4.3221,-4.5457,-4.6099,-4.672,-4.8272,-4.8459,0.0,-4.8997,-4.9349,-4.968,-5.0011,-4.9763,-4.9763,-5.0301,-5.0466,-5.1294,-5.322,-5.4379,-5.5517,-5.6759,-5.709,-5.7587,-5.8374,-5.8974,-5.8933,-5.8125,-5.9202,-5.9471,-5.8808,-5.9471,-5.9802,-5.9781,-5.8519,-5.7608,-5.6987,-5.5496,-5.4151,-5.2971,-5.264,-5.2226,-5.1791,-5.1667,-5.1336,-5.086,-5.028,-4.9576,-4.8769,-4.7838,-4.7506,-4.7382,0.0,0.0,0.0,0.0,0.0,0.0,0.0,0.0,0.0,0.0,0.0,0.0,0.0,0.0,0.0,0.0,0.0,0.0,0.0,0.0,0.0,0.0,0.0,0.0,0.0,0.0,0.0,0.0,0.0,0.0,0.0,0.0,0.0,-6.5896,-6.5257,-6.4648,-6.3859,-6.2035,-6.0845,-5.9914,-5.6874,-5.4102,-5.1452,-4.7469,-4.4077,-4.1329,-4.0777,0.0,0.0,0.0,-3.5235,-3.4245,-3.4268,-3.4483,0.0,-3.2574,-3.1381,0.0,0.0,0.0,-3.5314,-3.8005,-4.0737,-4.3242,-4.5064,-4.6182,-4.7113,-4.8086,-4.792,-4.792,-4.8873,-4.8686,-4.8521,-4.8997,-4.908,-4.91,-4.91,-4.91,-4.8935,-4.85,-4.8852,-4.9494,0.0,-5.2971,-5.4938,-5.5848,-5.6738,-5.7442,-5.7918,-5.8808,-5.9078,-5.8601,-5.9057,-5.9305,-5.9285,-5.9305,-5.9326,-5.9305,-5.8374,-5.7442,-5.6531,-5.471,-5.3385,-5.2516,-5.2495,-5.2226,-5.1771,-5.1315,-5.086,-5.0363,-4.9452,-4.881,-4.8293,-4.7382,-4.7051,-4.6927,0.0,0.0,0.0,0.0,0.0,0.0,0.0,0.0,0.0,0.0,0.0,0.0,0.0,0.0,0.0,0.0,0.0,0.0,0.0,0.0,0.0,0.0,0.0,0.0,0.0,0.0,0.0,0.0,0.0,0.0,0.0,0.0,0.0,0.0,-6.4212,-6.3603,-6.3312,-6.1832,-6.1077,-6.0493,-5.6533,-5.377,-5.1401,-4.6538,-4.2344,-3.8818,0.0,0.0,0.0,0.0,0.0,0.0,-2.9557,-2.9888,0.0,-3.0182,-3.0657,-3.1609,0.0,0.0,-3.9019,-4.1772,-4.3842,-4.5602,-4.7113,-4.7713,-4.8003,-4.8314,-4.7527,-4.6699,-4.6409,-4.6244,-4.6285,-4.674,-4.8086,-4.9183,-4.9473,-5.0032,-4.9804,-4.8107,-4.9121,0.0,0.0,0.0,0.0,-5.4855,-5.5538,-5.62,-5.6987,-5.7898,-5.8312,-5.8146,-5.8891,-5.9305,-5.9305,-5.9305,-5.914,-5.8808,-5.6987,-5.5786,-5.5165,-5.3633,-5.2785,-5.2474,-5.2164,-5.1771,-5.1336,-5.117,-5.0487,-4.9494,-4.9183,-4.8417,-4.7444,-4.7154,-4.6658,-4.6057,0.0,0.0,0.0,0.0,0.0,0.0,0.0,0.0,0.0,0.0,0.0,0.0,0.0,0.0,0.0,0.0,0.0,0.0,0.0,0.0,0.0,0.0,0.0,0.0,0.0,0.0,0.0,0.0,0.0,0.0,0.0,0.0,0.0,0.0,-6.1948,-6.1513,-6.1629,-6.0119,-5.9074,-5.8089,-5.3867,-5.0712,-4.7947,-4.2915,-3.9032,0.0,0.0,0.0,0.0,0.0,0.0,0.0,0.0,-2.7657,-2.8835,-2.9766,-3.1485,-3.3741,-3.6763,-3.9454,-4.2186,-4.5436,-4.6906,-4.792,-4.9287,-4.9224,-4.8686,-4.8024,-4.6678,-4.5333,-4.4422,-4.3842,-4.378,-4.4567,-4.6057,-4.7444,-4.8417,-4.9307,-4.939,-4.8086,-4.8976,0.0,0.0,0.0,0.0,-5.3882,-5.4751,-5.5517,-5.6283,-5.7484,-5.8167,-5.8167,-5.9057,-5.9471,-5.9305,-5.914,-5.8581,-5.7608,-5.5807,-5.4627,-5.4027,-5.2971,-5.2412,-5.2226,-5.175,-5.1294,-5.0839,-5.0508,-4.9659,-4.8562,-4.8396,-4.7713,-4.6761,-4.6616,-4.6078,-4.5395,0.0,0.0,0.0,0.0,0.0,0.0,0.0,0.0,0.0,0.0,0.0,0.0,0.0,0.0,0.0,0.0,0.0,0.0,0.0,0.0,0.0,0.0,0.0,0.0,-4.9407,-5.0133,-5.1091,-5.2368,0.0,0.0,0.0,0.0,0.0,0.0,-5.8493,-5.8261,-5.8639,-5.6754,-5.4869,-5.2827,-4.8795,-4.5111,-4.1531,-3.7124,0.0,0.0,0.0,0.0,0.0,0.0,0.0,0.0,0.0,0.0,-3.0305,-3.1264,-3.3806,-3.6949,-3.9723,-4.2166,-4.4877,-4.8831,-4.9912,-5.0156,-5.1419,-5.0611,-4.91,-4.7279,-4.5374,-4.376,0.0,0.0,-4.1234,-4.2621,-4.3387,-4.4422,-4.6204,-4.7361,-4.8086,0.0,0.0,0.0,0.0,0.0,0.0,-5.2992,0.0,-5.5372,-5.5848,-5.7566,-5.8539,-5.8581,-5.9429,-5.9657,-5.9202,-5.8684,-5.7546,-5.5807,-5.4896,-5.4006,-5.3137,-5.2661,-5.2226,-5.1771,-5.1315,-5.0839,-5.0322,-4.9431,-4.85,-4.761,-4.7196,-4.6679,-4.6204,-4.583,-4.5374,-4.4981,0.0,0.0,0.0,0.0,0.0,0.0,0.0,0.0,0.0,0.0,0.0,0.0,0.0,0.0,0.0,0.0,0.0,0.0,0.0,0.0,0.0,0.0,0.0,0.0,0.0,-4.6998,-4.8449,0.0,0.0,0.0,0.0,0.0,0.0,0.0,0.0,-5.2601,-5.1331,-5.0306,-4.9281,-4.797,0.0,-4.163,-4.0665,0.0,0.0,0.0,0.0,0.0,0.0,0.0,0.0,0.0,0.0,-3.0408,-3.1967,-3.4652,-3.7425,-4.0261,-4.3035,-4.5933,-4.8603,-5.0342,-5.0756,-5.0673,-5.0342,-4.8955,-4.7217,-4.5374,-4.2725,-4.0365,0.0,0.0,0.0,-4.1628,-4.4298,0.0,-4.908,-5.0756,0.0,-5.0052,0.0,-5.1501,-5.0363,-5.1191,0.0,0.0,-5.3923,-5.5041,-5.5828,-5.6966,-5.7732,-5.8084,-5.8332,-5.8229,-5.7753,-5.6635,-5.5662,-5.4875,-5.3965,-5.322,-5.2661,-5.2185,-5.1915,-5.1771,-5.1315,-5.0653,-4.9887,-4.9307,-4.8334,-4.7196,-4.7092,-4.6679,-4.6244,-4.5457,-4.5084,-4.4898,0.0,0.0,0.0,0.0,0.0,0.0,0.0,0.0,0.0,0.0,0.0,0.0,0.0,0.0,0.0,0.0,0.0,0.0,0.0,0.0,0.0,0.0,0.0,0.0,0.0,0.0,0.0,0.0,0.0,0.0,0.0,0.0,0.0,0.0,0.0,-4.7189,-4.6085,0.0,0.0,0.0,0.0,0.0,0.0,0.0,0.0,0.0,0.0,0.0,0.0,0.0,0.0,-2.9415,-3.1505,-3.3203,-3.5024,-3.8026,0.0,-4.3532,-4.6099,-4.8666,-5.088,-5.1791,-5.1398,-5.0508,-4.9411,-4.7424,-4.5147,-4.2704,-4.0137,0.0,0.0,0.0,0.0,0.0,0.0,0.0,-4.9059,-5.1108,-5.2329,0.0,-5.3261,0.0,-5.2329,-5.2743,-5.3095,0.0,-5.4172,-5.5041,-5.5538,-5.6821,-5.7649,-5.7918,-5.7918,-5.7504,-5.6635,-5.5476,-5.4668,-5.4213,-5.3302,-5.2743,-5.2474,-5.2019,-5.1791,-5.175,0.0,-5.0115,-4.939,-4.8521,-4.761,-4.672,-4.6513,-4.6285,-4.5954,-4.5022,-4.4691,-4.4588,0.0,0.0,0.0,0.0,0.0,0.0,0.0,0.0,0.0,0.0,0.0,0.0,0.0,0.0,0.0,0.0,0.0,0.0,0.0,0.0,0.0,0.0,0.0,0.0,0.0,0.0,0.0,0.0,0.0,0.0,0.0,0.0,0.0,0.0,0.0,0.0,0.0,0.0,0.0,0.0,0.0,0.0,0.0,0.0,0.0,0.0,0.0,0.0,0.0,0.0,-3.1319,-3.2277,-3.4341,-3.6453,-3.8771,-4.1565,-4.4174,-4.6616,-4.8831,-5.0673,-5.2164,-5.2909,-5.175,-4.999,-4.8376,-4.585,-4.2952,-3.9827,0.0,-3.5976,-3.4857,0.0,-3.5666,-3.8212,0.0,-4.3573,-4.8272,-5.0404,-5.2392,-5.4896,-5.4896,-5.471,-5.471,-5.4296,-5.4027,-5.4027,-5.4751,-5.5207,-5.5269,-5.6904,-5.7794,-5.7732,-5.767,-5.7028,-5.5703,-5.4855,-5.4172,-5.3654,-5.2868,-5.2454,-5.2392,-5.1978,-5.1729,-5.1543,0.0,0.0,-4.879,-4.7548,-4.6679,-4.6225,-4.585,-4.5643,-4.5478,-4.4546,-4.4215,-4.4153,0.0,0.0,0.0,0.0,0.0,0.0,0.0,0.0,0.0,0.0,-3.5706,0.0,0.0,0.0,0.0,0.0,0.0,0.0,0.0,0.0,0.0,0.0,0.0,0.0,0.0,0.0,0.0,0.0,0.0,0.0,0.0,0.0,0.0,0.0,0.0,0.0,0.0,0.0,0.0,0.0,0.0,0.0,0.0,0.0,0.0,0.0,0.0,0.0,0.0,0.0,-3.3058,-3.5811,-3.8771,-4.0737,-4.26,-4.5705,-4.7506,-4.8893,-5.0798,-5.2122,-5.2888,-5.2661,-5.1501,-4.968,-4.6803,-4.3718,0.0,0.0,0.0,-3.3906,-3.3658,-3.4297,0.0,-4.0303,0.0,0.0,0.0,0.0,-5.382,0.0,0.0,0.0,0.0,0.0,0.0,0.0,0.0,0.0,-5.5745,-5.6759,-5.7173,-5.6821,-5.6428,-5.5766,-5.4772,-5.4234,-5.3551,-5.2723,-5.2557,-5.2288,-5.1915,-5.1833,-5.1377,-5.0632,0.0,0.0,-4.7879,-4.7279,-4.6679,-4.6225,-4.585,-4.5457,-4.5002,-4.407,-4.3739,-4.3656,0.0,0.0,0.0,0.0,0.0,0.0,0.0,0.0,0.0,0.0,-3.7854,-3.678,0.0,0.0,0.0,0.0,0.0,0.0,0.0,0.0,0.0,0.0,0.0,0.0,0.0,0.0,0.0,0.0,0.0,0.0,0.0,0.0,0.0,0.0,0.0,0.0,0.0,0.0,0.0,0.0,0.0,0.0,0.0,0.0,0.0,0.0,0.0,0.0,0.0,0.0,-3.3451,-3.7032,-4.0241,-4.2828,-4.5105,-4.7092,-4.8852,-5.0425,-5.1791,-5.3178,-5.4006,-5.3075,-5.1439,-4.9059,-4.5126,0.0,0.0,0.0,0.0,-3.2685,-3.2685,0.0,0.0,0.0,0.0,0.0,0.0,0.0,0.0,0.0,0.0,0.0,0.0,0.0,0.0,0.0,0.0,0.0,-5.5869,-5.6511,-5.6676,-5.6221,-5.5538,-5.4855,-5.4192,-5.3489,-5.293,-5.2495,-5.2247,-5.2019,-5.1791,-5.1543,-5.1067,-5.0363,-4.9431,0.0,-4.7631,-4.6947,-4.6473,-4.6225,-4.585,-4.5395,-4.4919,-4.4215,-4.3822,-4.3573,0.0,0.0,0.0,0.0,0.0,0.0,0.0,-3.6228,-3.768,-4.0379,-4.006,-3.9218,-3.8231,-3.6838,-3.5654,0.0,0.0,0.0,0.0,0.0,0.0,0.0,0.0,0.0,0.0,0.0,0.0,0.0,0.0,0.0,0.0,0.0,0.0,0.0,0.0,0.0,0.0,0.0,0.0,0.0,0.0,0.0,0.0,0.0,0.0,0.0,0.0,0.0,0.0,0.0,-3.2954,-3.6328,-3.9433,-4.2932,-4.6057,-4.6865,-4.8935,-5.117,-5.2102,-5.3675,-5.4751,-5.3489,-5.1315,-4.8293,-4.3801,-3.9889,0.0,0.0,-3.2153,-3.1919,-3.1967,0.0,0.0,0.0,0.0,0.0,0.0,0.0,0.0,0.0,0.0,0.0,0.0,0.0,0.0,0.0,0.0,0.0,0.0,-5.6366,-5.6262,-5.56,-5.4896,-5.4213,-5.3571,-5.2847,-5.2433,-5.235,-5.1978,-5.175,-5.1646,-5.1274,-5.0694,-4.9928,-4.8831,0.0,0.0,-4.6637,-4.6266,-4.6204,-4.5747,-4.525,-4.4795,-4.4319,-4.3863,-4.347,0.0,0.0,0.0,0.0,0.0,0.0,0.0,-3.7244,-3.916,-4.2324,-4.1686,-4.0873,-4.0757,-3.9073,-3.7215,0.0,0.0,0.0,0.0,0.0,0.0,0.0,0.0,0.0,0.0,0.0,0.0,0.0,0.0,0.0,0.0,0.0,0.0,0.0,0.0,0.0,0.0,0.0,0.0,0.0,0.0,0.0,0.0,0.0,0.0,0.0,0.0,0.0,0.0,0.0,0.0,-3.2897,-3.5749,-4.0241,-4.4588,-4.5084,0.0,0.0,-5.1605,-5.3199,-5.4358,-5.3427,-5.0818,-4.7403,-4.3338,0.0,0.0,0.0,-3.1754,-3.1567,-3.1905,-3.2091,0.0,0.0,0.0,0.0,0.0,0.0,0.0,0.0,0.0,0.0,0.0,0.0,0.0,0.0,0.0,0.0,0.0,-5.6531,-5.5973,-5.471,-5.4586,-5.3923,-5.2619,-5.2536,-5.2288,-5.1853,-5.1812,-5.1584,-5.117,-5.1129,-5.0177,-4.8562,0.0,0.0,0.0,-4.6308,-4.6266,-4.6184,-4.5395,-4.4774,-4.4319,-4.3842,-4.3387,-4.3056,0.0,0.0,0.0,0.0,0.0,0.0,0.0,-3.5938,-3.7796,-4.1395,-4.1395,-4.125,-4.1657,-4.0641,-3.887,0.0,0.0,0.0,0.0,0.0,0.0,0.0,0.0,0.0,0.0,0.0,0.0,0.0,0.0,0.0,0.0,0.0,0.0,0.0,0.0,0.0,0.0,0.0,0.0,0.0,0.0,0.0,0.0,0.0,0.0,0.0,0.0,0.0,0.0,0.0,0.0,0.0,-3.2168,-3.5252,0.0,0.0,-4.554,-4.8479,-5.0756,-5.2723,-5.3903,-5.2992,-5.0156,-4.6554,-4.2725,0.0,0.0,-3.238,-3.1692,-3.1505,-3.1961,-3.2215,-3.3016,0.0,0.0,0.0,0.0,0.0,0.0,0.0,0.0,0.0,0.0,0.0,0.0,0.0,0.0,0.0,0.0,-5.5993,-5.5662,-5.4565,-5.4006,-5.3323,-5.2495,-5.2226,-5.1978,-5.1791,-5.1791,-5.1564,-5.1087,-5.0549,-4.9597,-4.8334,0.0,0.0,0.0,-4.6266,-4.6891,-4.7688,-4.6041,-4.5733,-4.6134,-4.5586,-4.4533,-4.3476,0.0,0.0,0.0,0.0,0.0,0.0,-3.3848,-3.498,-3.6845,-4.0118,-4.0699,-4.1047,-4.1715,-4.1047,-3.9625,-3.736,0.0,0.0,0.0,0.0,0.0,0.0,0.0,0.0,0.0,0.0,-3.5479,-3.5683,0.0,0.0,0.0,0.0,0.0,0.0,0.0,0.0,0.0,0.0,0.0,0.0,0.0,0.0,0.0,0.0,0.0,0.0,0.0,0.0,0.0,0.0,0.0,0.0,0.0,0.0,0.0,0.0,-4.287,-4.6119,-4.879,-5.1232,-5.2826,-5.1915,-4.9038,-4.554,0.0,0.0,0.0,-3.2297,-3.1795,-3.1671,-3.1926,-3.2256,-3.2664,0.0,0.0,0.0,0.0,0.0,0.0,0.0,0.0,0.0,0.0,0.0,0.0,0.0,0.0,0.0,0.0,0.0,-5.5062,-5.4172,-5.3385,-5.2764,-5.2288,-5.1957,-5.1729,-5.1584,-5.1584,-5.1274,-5.0673,-5.0408,-4.953,0.0,0.0,0.0,0.0,-4.7052,-4.7963,-4.9184,-4.7553,-4.7288,-4.7733,-4.7113,-4.5928,-4.4784,0.0,0.0,0.0,0.0,0.0,0.0,0.0,-3.5096,-3.7012,-3.8957,-3.9741,-4.0379,-4.1047,-3.9973,-3.9218,-3.9189,0.0,0.0,0.0,0.0,0.0,0.0,0.0,0.0,0.0,0.0,-3.5712,-3.6286,-3.6983,-3.7302,0.0,0.0,0.0,0.0,0.0,0.0,0.0,0.0,0.0,0.0,0.0,0.0,0.0,0.0,0.0,0.0,0.0,0.0,0.0,0.0,0.0,0.0,0.0,0.0,0.0,0.0,-3.9723,-4.3946,-4.5354,-4.8376,-5.0922,-5.0011,-4.7382,-4.4298,0.0,0.0,0.0,-3.2416,-3.1988,-3.1988,-3.1988,-3.1988,-3.2132,-3.2607,0.0,0.0,0.0,0.0,0.0,0.0,0.0,0.0,0.0,0.0,0.0,0.0,0.0,0.0,0.0,0.0,-5.413,-5.322,-5.2743,-5.2267,-5.1812,-5.1791,-5.1564,-5.1108,-5.1108,-5.0632,-4.9849,-5.0994,0.0,0.0,0.0,0.0,0.0,-4.8741,-4.9474,-5.0414,-4.991,-4.9382,-4.8736,-4.78,-4.7339,-4.7056,0.0,0.0,0.0,0.0,0.0,0.0,0.0,-3.2367,-3.3877,-3.6293,-3.7128,-3.8086,-3.9625,-3.945,-3.9189,-3.9189,0.0,0.0,0.0,0.0,0.0,0.0,0.0,0.0,0.0,0.0,-3.6315,-3.6983,-3.8086,-3.8275,-3.7629,-3.6944,-3.5421,0.0,0.0,0.0,0.0,0.0,0.0,0.0,0.0,0.0,0.0,0.0,0.0,0.0,0.0,0.0,0.0,0.0,0.0,0.0,0.0,0.0,0.0,0.0,0.0,0.0,-4.169,-4.3698,-4.4981,-4.4712,-4.2704,-4.0323,-3.8502,0.0,0.0,0.0,-3.2194,-3.207,-3.2401,-3.2463,-3.2768,-3.3513,0.0,0.0,0.0,0.0,0.0,0.0,0.0,0.0,0.0,0.0,0.0,0.0,0.0,0.0,0.0,0.0,-5.3344,-5.2723,-5.2578,-5.2267,-5.1812,-5.1791,-5.1564,-5.1108,-5.197,-5.1831,-5.0973,-5.1871,0.0,0.0,0.0,0.0,0.0,-5.0081,-5.0825,-5.1946,-4.9943,-4.9514,-5.0009,-4.9274,-4.8076,-4.6719,0.0,0.0,0.0,0.0,0.0,0.0,0.0,-3.1119,-3.2193,-3.4051,-3.5038,-3.6228,-3.7912,-3.8347,-3.858,-3.8812,0.0,0.0,0.0,0.0,0.0,0.0,0.0,0.0,0.0,-3.6025,-3.6983,-3.7651,-3.9233,-3.9508,-3.8527,-3.8075,-3.6515,-3.4053,-3.3385,0.0,0.0,0.0,0.0,0.0,0.0,0.0,-3.1683,0.0,0.0,0.0,0.0,0.0,0.0,0.0,0.0,0.0,0.0,0.0,0.0,0.0,-3.1629,0.0,0.0,-4.0116,-4.1358,-4.0841,-3.9392,0.0,0.0,0.0,0.0,0.0,0.0,0.0,0.0,0.0,0.0,0.0,0.0,0.0,0.0,0.0,0.0,0.0,0.0,0.0,0.0,0.0,0.0,0.0,0.0,0.0,0.0,0.0,-5.2702,-5.2247,-5.2226,-5.2102,-5.1791,-5.1626,-5.1569,-5.1516,-5.2132,-5.2221,-5.1915,0.0,0.0,0.0,0.0,0.0,0.0,-5.1652,-5.2244,-5.3302,-5.1249,-5.0744,-5.1052,-5.0343,-4.8875,-4.7097,0.0,0.0,0.0,0.0,0.0,0.0,0.0,0.0,0.0,0.0,-3.3529,-3.4806,-3.6025,-3.6809,-3.7476,0.0,0.0,0.0,0.0,0.0,0.0,0.0,0.0,0.0,-3.545,-3.6664,-3.7585,-3.8147,-4.0294,-4.0752,-3.9661,-3.9508,-3.799,-3.5314,-3.447,-3.3445,0.0,0.0,0.0,0.0,0.0,-3.3834,0.0,0.0,0.0,0.0,0.0,0.0,0.0,0.0,0.0,0.0,0.0,0.0,0.0,0.0,0.0,0.0,0.0,0.0,0.0,0.0,0.0,0.0,0.0,0.0,0.0,0.0,0.0,0.0,0.0,0.0,0.0,0.0,0.0,0.0,0.0,0.0,0.0,0.0,0.0,0.0,0.0,0.0,0.0,0.0,0.0,0.0,0.0,0.0,0.0,-5.193,-5.1889,-5.1889,-5.193,-5.1453,-5.1604,-5.2337,-5.198,-5.2138,-5.2796,0.0,0.0,0.0,0.0,0.0,0.0,-5.3176,-5.3593,-5.4336,-5.3281,-5.2503,-5.185,-5.077,-4.9529,-4.7978,0.0,0.0,0.0,0.0,0.0,0.0,0.0,0.0,0.0,0.0,-3.2603,-3.3993,-3.4777,-3.588,-3.6809,0.0,0.0,0.0,0.0,0.0,0.0,0.0,0.0,0.0,-3.6083,-3.6896,-3.7489,-3.7879,-4.0153,-4.0656,-3.9502,-3.99,-3.8907,-3.6713,-3.6074,-3.5203,0.0,0.0,0.0,0.0,-3.3457,-3.2762,0.0,0.0,0.0,0.0,-2.8731,-2.8317,0.0,0.0,0.0,0.0,0.0,0.0,0.0,0.0,-2.9532,-3.0398,-3.2516,0.0,-3.2934,-3.2975,0.0,0.0,0.0,0.0,0.0,0.0,0.0,0.0,0.0,0.0,0.0,0.0,0.0,0.0,0.0,0.0,0.0,0.0,0.0,0.0,0.0,0.0,0.0,0.0,0.0,0.0,0.0,0.0,0.0,-5.323,-5.2886,-5.2864,-5.323,-5.2756,-5.2881,-5.3723,-5.4048,-5.4171,-5.3974,0.0,0.0,0.0,0.0,0.0,-5.3694,-5.3545,-5.3408,-5.3256,-5.2553,-5.1699,-5.072,-5.0042,-4.9321,-4.8397,0.0,0.0,0.0,0.0,0.0,0.0,0.0,0.0,0.0,0.0,0.0,0.0,0.0,0.0,0.0,0.0,0.0,0.0,0.0,0.0,0.0,0.0,0.0,-3.5967,-3.6286,-3.7535,-3.8179,-3.8178,-4.0371,-4.0781,-3.9399,-4.005,-3.9141,-3.6832,-3.5981,-3.5303,-3.4751,-3.4956,-3.4756,-3.429,-3.372,0.0,0.0,0.0,0.0,0.0,-2.838,-2.8007,0.0,-2.9444,-2.975,-2.9556,0.0,0.0,0.0,0.0,-2.9952,-3.0404,-3.17,-3.2275,-3.236,-3.1923,-3.2362,-3.2877,0.0,0.0,0.0,0.0,0.0,0.0,0.0,0.0,0.0,0.0,0.0,0.0,0.0,0.0,0.0,0.0,0.0,0.0,0.0,0.0,0.0,0.0,0.0,0.0,0.0,0.0,0.0,0.0,-5.4235,-5.3989,-5.4172,-5.3682,-5.3859,-5.463,-5.4479,-5.4434,-5.45,-5.4605,0.0,0.0,0.0,0.0,-5.3331,-5.308,-5.2804,-5.2477,-5.1649,-5.0946,-5.0343,-4.9791,-4.8828,-4.7617,0.0,0.0,0.0,0.0,0.0,0.0,0.0,0.0,0.0,0.0,0.0,0.0,0.0,0.0,0.0,0.0,0.0,0.0,0.0,0.0,0.0,0.0,0.0,-3.6548,-3.6751,-3.826,-3.8875,-3.856,-4.0668,-4.0973,-3.9573,-4.0489,-3.9446,-3.6857,-3.5629,-3.5002,-3.4831,-3.5382,-3.4977,-3.3934,-3.4291,0.0,0.0,0.0,0.0,0.0,0.0,0.0,0.0,-3.086,-3.0644,-2.9578,-3.1999,0.0,0.0,0.0,0.0,0.0,-3.1926,-3.3552,-3.4515,-3.2827,-3.354,-3.4285,-3.296,0.0,0.0,0.0,0.0,0.0,0.0,0.0,0.0,0.0,0.0,0.0,0.0,0.0,0.0,0.0,0.0,0.0,0.0,0.0,0.0,0.0,0.0,0.0,0.0,0.0,0.0,0.0,-5.5422,-5.4904,-5.4917,-5.4488,-5.4733,-5.5371,-5.4361,-5.4157,-5.4687,-5.4336,0.0,0.0,0.0,0.0,-5.2528,-5.2126,-5.1925,-5.1749,-5.0795,-5.0368,-5.0218,-4.9565,-4.8244,-4.6738,0.0,0.0,0.0,0.0,0.0,0.0,0.0,0.0,0.0,0.0,0.0,0.0,0.0,0.0,0.0,0.0,0.0,0.0,0.0,0.0,0.0,0.0,-3.7418,-3.7651,-3.8725,-3.8492,-3.8342,-3.8351,-4.0537,-4.1172,-4.0357,-4.1886,-4.1379,-3.912,-3.7513,-3.6282,-3.5408,-3.6006,-3.5328,-3.382,-3.3126,0.0,0.0,0.0,0.0,0.0,0.0,0.0,0.0,-2.9092,-3.0394,-3.1689,-3.0905,0.0,0.0,0.0,0.0,0.0,-3.4265,-3.5833,-3.6211,-3.3681,-3.3582,-3.419,-3.4377,0.0,0.0,0.0,0.0,0.0,0.0,0.0,0.0,0.0,0.0,0.0,0.0,0.0,0.0,0.0,0.0,0.0,0.0,0.0,0.0,0.0,0.0,0.0,0.0,0.0,0.0,0.0,0.0,-5.5226,-5.5312,-5.5106,-5.5573,-5.6676,-5.5653,-5.5199,-5.5189,-5.3331,-5.2402,0.0,0.0,-5.087,-5.0845,-5.1247,-5.1122,-5.067,-5.0494,-5.0117,-4.959,-4.856,-4.7983,-4.7571,0.0,0.0,0.0,0.0,0.0,0.0,0.0,0.0,0.0,0.0,0.0,0.0,0.0,0.0,0.0,0.0,0.0,0.0,0.0,0.0,0.0,-3.8725,-3.8463,-3.8609,-3.9189,-3.9567,-3.971,-3.9618,-4.1302,-4.1702,-4.0899,-4.0501,-3.9597,-3.8266,-3.6584,-3.5579,-3.5082,-3.5378,-3.4876,-3.384,0.0,0.0,0.0,0.0,0.0,0.0,0.0,0.0,0.0,0.0,-3.1507,-3.2018,-3.2493,0.0,0.0,0.0,0.0,0.0,-3.4215,-3.5454,-3.6121,-3.5527,-3.6251,-3.6804,-3.5833,0.0,0.0,0.0,0.0,0.0,0.0,0.0,0.0,0.0,0.0,0.0,0.0,0.0,0.0,0.0,0.0,0.0,0.0,0.0,0.0,0.0,0.0,0.0,0.0,0.0,0.0,0.0,0.0,0.0,-5.539,-5.5015,-5.5114,-5.5691,-5.4863,-5.4185,-5.3582,-5.2578,-5.1448,-5.0318,0.0,-4.9891,-4.9113,-4.969,-4.959,-4.9088,-4.9414,-4.9364,-4.9038,-4.8209,-4.7908,-4.7757,0.0,0.0,0.0,0.0,0.0,0.0,0.0,0.0,0.0,0.0,0.0,0.0,0.0,0.0,0.0,0.0,0.0,0.0,0.0,0.0,-3.7941,-3.8928,-3.9247,-3.9567,-3.9857,-4.0429,-4.0816,-4.0958,-4.1818,-4.1896,-4.125,-3.932,-3.7965,-3.7111,-3.5604,-3.4731,-3.455,-3.4756,-3.4449,-3.3683,0.0,0.0,0.0,0.0,0.0,0.0,0.0,0.0,0.0,0.0,0.0,0.0,0.0,0.0,0.0,-3.3077,-3.3111,-3.3219,-3.3897,-3.4901,-3.5931,-3.6784,0.0,-3.8716,-3.7871,-3.858,0.0,0.0,0.0,0.0,0.0,0.0,0.0,0.0,0.0,0.0,0.0,0.0,0.0,0.0,0.0,0.0,0.0,0.0,0.0,0.0,0.0,0.0,0.0,0.0,0.0,0.0,0.0,0.0,-5.4813,-5.4511,-5.4436,-5.4561,-5.3858,-5.308,-5.2277,-5.19,-5.072,-4.9012,-4.9715,-4.9213,-4.7933,-4.8385,-4.8309,-4.7958,-4.841,-4.8485,-4.8335,-4.7883,-4.7631,-4.7431,0.0,0.0,0.0,0.0,0.0,0.0,0.0,0.0,0.0,0.0,0.0,0.0,0.0,0.0,0.0,0.0,0.0,0.0,0.0,0.0,-3.8173,-3.826,-3.9392,-4.0612,-4.186,-4.0404,-4.0293,-4.1693,-4.1301,-4.1183,-4.125,-4.0124,-3.8718,-3.7136,-3.5959,-3.4881,-3.4022,-3.5006,-3.4575,-3.3226,-3.3796,0.0,0.0,0.0,0.0,0.0,0.0,0.0,0.0,0.0,0.0,0.0,0.0,0.0,-3.3082,-3.3093,-3.3111,-3.3319,-3.4374,-3.5454,-3.638,-3.6455,-3.6556,0.0,-4.1,-4.1451,0.0,-4.5146,0.0,0.0,0.0,0.0,0.0,0.0,0.0,0.0,0.0,0.0,0.0,0.0,0.0,0.0,0.0,0.0,0.0,0.0,0.0,0.0,0.0,0.0,0.0,0.0,0.0,0.0,-5.3105,-5.3557,-5.4034,-5.4561,-5.3482,-5.2955,-5.2804,-5.1247,-5.0167,-4.9515,-4.9088,-4.851,-4.7908,-4.7958,-4.7933,-4.7908,-4.7958,-4.7682,-4.7255,-4.7143,-4.6853,-4.6401,0.0,0.0,0.0,0.0,0.0,0.0,0.0,0.0,0.0,0.0,0.0,0.0,0.0,0.0,0.0,0.0,0.0,0.0,0.0,0.0,-3.7389,-3.8173,-3.9073,-4.0147,-4.1453,-4.1312,-4.1754,-4.2836,-4.2112,-4.1425,-4.0802,-3.9697,-3.8341,-3.6681,-3.5529,-3.46,-3.3922,-3.4349,-3.4148,-3.3627,-3.4264,-3.3687,0.0,0.0,0.0,0.0,0.0,0.0,0.0,0.0,-3.281,-3.3111,0.0,0.0,-3.3111,-3.3111,-3.3111,-3.3212,-3.3596,-3.5253,-3.6832,-3.648,-3.7461,0.0,0.0,-4.3062,-4.4568,-4.6828,-4.8586,0.0,0.0,0.0,0.0,0.0,0.0,0.0,0.0,0.0,0.0,0.0,0.0,0.0,0.0,0.0,0.0,0.0,0.0,0.0,0.0,0.0,0.0,0.0,0.0,0.0,0.0,-5.2779,-5.2829,-5.303,-5.2628,-5.1875,-5.0845,-5.0193,-4.9238,-4.8058,-4.8184,-4.7732,-4.6928,-4.728,-4.723,-4.6954,-4.728,-4.7506,-4.7581,-4.7193,-4.6943,-4.6778,0.0,0.0,0.0,0.0,0.0,0.0,0.0,0.0,0.0,0.0,0.0,0.0,0.0,0.0,0.0,0.0,0.0,0.0,-3.3761,-3.5183,-3.6489,-3.7564,-3.8638,-3.9683,-4.0757,-4.1265,-4.2029,-4.2922,-4.211,-4.0978,-3.9697,-3.8944,-3.7838,-3.6355,-3.5403,-3.4731,-3.4424,-3.4424,-3.4324,-3.4223,-3.4951,-3.4575,0.0,0.0,0.0,0.0,0.0,0.0,0.0,0.0,0.0,0.0,0.0,0.0,0.0,0.0,-3.3111,-3.3111,-3.3111,-3.47,-3.6408,-3.6405,0.0,0.0,-4.3363,-4.5171,-4.7079,-4.9941,-5.1222,0.0,0.0,0.0,0.0,0.0,0.0,0.0,0.0,0.0,0.0,0.0,0.0,0.0,0.0,0.0,0.0,0.0,0.0,0.0,0.0,0.0,0.0,0.0,0.0,0.0,0.0,-5.185,-5.1473,-5.1322,-5.1147,-5.0544,-4.959,-4.9213,-4.836,-4.7093,-4.7506,-4.7154,-4.6351,-4.6728,-4.6552,-4.6075,-4.6276,-4.6552,-4.6828,-4.6476,-4.6351,-4.6301,0.0,0.0,0.0,0.0,0.0,0.0,0.0,0.0,0.0,0.0,0.0,0.0,0.0,0.0,0.0,0.0,0.0,0.0,-3.2452,-3.4283,-3.5683,-3.6286,-3.8144,-3.945,-4.006,-3.9944,-4.0445,-4.1686,-4.09,-3.9647,-3.8015,-3.8015,-3.7412,-3.638,-3.5805,-3.5508,-3.5508,-3.5483,-3.5182,-3.4826,-3.5952,-3.5705,-3.468,0.0,0.0,0.0,0.0,0.0,0.0,0.0,-3.3111,0.0,0.0,0.0,0.0,0.0,-3.3111,-3.3136,-3.3111,-3.3897,-3.5002,0.0,0.0,0.0,-4.6778,-4.7958,-4.9604,-5.5064,0.0,0.0,0.0,0.0,0.0,0.0,0.0,0.0,0.0,0.0,0.0,0.0,0.0,0.0,0.0,0.0,0.0,0.0,0.0,0.0,0.0,0.0,0.0,0.0,0.0,0.0,-5.1272,-5.0695,-5.0117,-4.959,-4.9012,-4.9038,-4.954,-4.841,-4.7606,-4.7068,-4.7068,-4.6803,-4.6301,-4.6301,-4.5974,-4.5422,-4.4844,-4.4618,-4.4618,-4.4618,-4.4618,-4.4618,0.0,0.0,0.0,0.0,0.0,0.0,0.0,0.0,0.0,0.0,0.0,0.0,0.0,0.0,0.0,0.0,0.0,0.0,-3.2481,-3.3877,-3.498,-3.5654,-3.707,-3.7881,-3.7877,-3.7373,-3.8004,-3.9719,-3.95,-3.8894,-3.8015,-3.8015,-3.7412,-3.6405,-3.6182,-3.5906,-3.5483,-3.5082,-3.5056,-3.5282,-3.5608,-3.5353,-3.468,0.0,0.0,0.0,0.0,0.0,0.0,0.0,0.0,0.0,0.0,0.0,0.0,-3.3194,-3.3345,-3.3571,-3.3194,-3.4494,0.0,0.0,0.0,0.0,0.0,0.0,0.0,0.0,0.0,0.0,0.0,0.0,0.0,0.0,0.0,0.0,0.0,0.0,0.0,0.0,0.0,0.0,0.0,0.0,0.0,0.0,0.0,0.0,0.0,0.0,0.0,0.0,0.0,0.0,-5.067,-4.9741,-4.9163,-4.9012,-4.7682,-4.733,-4.7857,-4.7506,-4.7054,-4.6552,-4.6552,-4.625,-4.5698,-4.5296,-4.502,-4.4869,-4.4694,-4.4618,-4.4618,-4.4618,-4.4618,-4.4618,0.0,0.0,0.0,0.0,0.0,0.0,0.0,0.0,0.0,0.0,-3.2629,0.0,0.0,0.0,0.0,0.0,0.0,0.0,0.0,-3.3061,-3.4051,-3.4951,-3.6228,-3.6862,-3.6745,-3.6258,-3.6393,-3.7211,-3.7712,-3.7462,-3.6709,-3.7588,-3.7538,-3.6757,-3.7209,-3.6935,-3.6157,-3.5604,-3.5429,-3.5508,-3.5508,-3.5433,-3.5328,0.0,0.0,0.0,0.0,0.0,0.0,0.0,0.0,0.0,0.0,0.0,0.0,-3.3043,-3.2993,-3.2968,-3.3319,0.0,0.0,0.0,0.0,0.0,0.0,0.0,0.0,0.0,0.0,0.0,0.0,0.0,0.0,0.0,0.0,0.0,0.0,0.0,0.0,0.0,0.0,0.0,0.0,0.0,0.0,0.0,0.0,0.0,0.0,0.0,0.0,0.0,0.0,0.0,-4.9414,-4.8335,-4.7807,-4.7782,-4.6326,-4.5824,-4.615,-4.615,-4.5949,-4.5648,-4.5648,-4.5447,-4.5095,-4.4543,-4.4292,-4.4267,-4.4066,-4.3966,-4.3966,-4.3966,-4.3966,-4.3966,0.0,0.0,0.0,0.0,0.0,0.0,0.0,0.0,0.0,0.0,-3.1872,-3.1727,0.0,0.0,0.0,0.0,0.0,0.0,0.0,0.0,-3.3122,-3.4516,-3.5767,-3.6448,-3.6605,-3.6075,-3.5447,-3.465,-3.5705,-3.573,-3.4806,-3.696,-3.7663,-3.7236,-3.8266,-3.8115,-3.7061,-3.6455,-3.5881,-3.5433,-3.5433,-3.578,-3.6153,-3.5102,0.0,0.0,0.0,0.0,0.0,0.0,0.0,0.0,0.0,0.0,0.0,-3.2641,-3.2265,-3.1888,0.0,0.0,0.0,0.0,0.0,0.0,0.0,0.0,0.0,0.0,0.0,0.0,0.0,0.0,0.0,0.0,0.0,0.0,0.0,0.0,0.0,0.0,0.0,0.0,0.0,0.0,0.0,0.0,0.0,0.0,0.0,0.0,0.0,0.0,0.0,0.0,-4.7606,-4.6652,-4.6125,0.0,-4.5045,-4.4543,-4.4543,-4.4593,-4.4618,-4.4618,-4.4568,-4.4543,-4.4518,-4.3966,-4.374,-4.3689,-4.3162,-4.2986,-4.2986,-4.2986,-4.2986,-4.2986,0.0,0.0,0.0,0.0,0.0,0.0,0.0,0.0,0.0,0.0,0.0,0.0,0.0,0.0,0.0,0.0,0.0,0.0,0.0,0.0,-3.3496,-3.5793,-3.6732,-3.7181,-3.7187,-3.5314,-3.425,-3.4073,-3.4751,-3.5177,-3.5357,-3.6734,-3.7287,-3.7186,-3.7437,-3.7235,-3.6505,-3.5027,-3.46,-3.4856,-3.4856,-3.4977,-3.5052,-3.4801,-3.4449,0.0,0.0,0.0,0.0,0.0,0.0,0.0,-3.2365,-3.224,-3.1989,-3.1813,-3.2215,0.0,0.0,0.0,0.0,0.0,0.0,0.0,0.0,0.0,0.0,0.0,0.0,0.0,0.0,0.0,0.0,0.0,0.0,0.0,0.0,0.0,0.0,0.0,0.0,0.0,0.0,0.0,0.0,0.0,0.0,0.0,0.0,0.0,0.0,0.0,0.0,-4.6225,-4.5347,-4.5095,-4.4769,0.0,-4.4091,-4.3991,-4.3991,-4.4418,-4.4618,-4.4593,-4.4166,-4.3991,-4.394,-4.3388,-4.3162,-4.3137,-4.3037,-4.2986,-4.2986,-4.2986,-4.2986,-4.2986,0.0,0.0,0.0,0.0,0.0,0.0,0.0,0.0,0.0,0.0,0.0,0.0,0.0,0.0,0.0,0.0,0.0,0.0,0.0,0.0,0.0,-3.5988,-3.6917,-3.7057,-3.638,-3.4981,-3.3897,-3.3093,-3.3646,-3.4223,-3.4776,-3.5881,-3.6684,-3.7186,-3.7186,-3.6885,-3.6304,-3.4876,-3.4449,-3.468,-3.468,-3.4831,-3.5006,-3.4525,-3.3972,-3.3395,-3.2566,0.0,0.0,0.0,0.0,0.0,0.0,0.0,-3.1436,-3.1411,-3.1637,-3.2139,0.0,0.0,0.0,0.0,0.0,0.0,0.0,0.0,0.0,0.0,0.0,0.0,0.0,0.0,0.0,0.0,0.0,0.0,0.0,0.0,0.0,0.0,0.0,0.0,0.0,0.0,0.0,0.0,0.0,0.0,0.0,0.0,0.0,0.0,-4.5271,-4.4694,-4.384,-4.3564,-4.3438,-4.3413,-4.3137,-4.3162,-4.3413,-4.3714,-4.384,-4.3815,-4.3539,-4.3413,-4.3388,-4.3087,-4.2986,-4.2986,-4.2986,-4.2986,-4.2986,-4.2986,-4.2986,-4.2986,0.0,0.0,0.0,0.0,0.0,0.0,0.0,0.0,0.0,0.0,0.0,0.0,0.0,0.0,0.0,0.0,0.0,0.0,0.0,0.0,0.0,-3.5835,-3.6593,-3.646,-3.5407,-3.4761,-3.3796,-3.2516,-3.2692,-3.3319,0.0,-3.5253,-3.6232,-3.7186,-3.7186,-3.6835,-3.6157,-3.5052,-3.4525,-3.4449,-3.455,-3.468,-3.4831,-3.4073,-3.3345,-3.2667,-3.1738,-3.1461,-3.1612,-3.2064,0.0,0.0,0.0,0.0,-3.0683,-3.1009,-3.0884,-3.0959,0.0,0.0,0.0,0.0,0.0,0.0,0.0,0.0,0.0,0.0,0.0,0.0,0.0,0.0,0.0,0.0,0.0,0.0,0.0,0.0,0.0,0.0,0.0,0.0,0.0,0.0,0.0,0.0,0.0,0.0,0.0,0.0,-4.4192,-4.3539,-4.3514,-4.3212,-4.2559,-4.2238,-4.2238,-4.2534,-4.2183,-4.2263,-4.2559,-4.266,-4.2785,-4.2961,-4.2886,-4.2886,-4.2986,-4.2986,-4.2986,-4.2986,-4.2986,-4.2986,-4.2986,-4.2986,-4.2986,-4.2986,0.0,0.0,0.0,0.0,0.0,0.0,0.0,0.0,0.0,0.0,0.0,0.0,0.0,0.0,0.0,0.0,0.0,0.0,0.0,0.0,0.0,-3.5929,-3.5736,-3.5693,-3.5983,-3.4244,-3.342,-3.3671,-3.229,0.0,0.0,0.0,0.0,-3.7186,-3.7186,-3.6609,-3.5533,-3.4474,-3.3746,-3.3345,-3.3822,-3.347,-3.2692,-3.3043,-3.2541,-3.1587,-3.1436,-3.1687,-3.2114,-3.219,-3.2164,0.0,0.0,0.0,-3.0532,-3.0131,-3.0306,0.0,0.0,0.0,0.0,0.0,0.0,0.0,0.0,0.0,0.0,0.0,0.0,0.0,0.0,0.0,0.0,0.0,0.0,0.0,0.0,0.0,0.0,0.0,0.0,0.0,0.0,0.0,0.0,0.0,0.0,0.0,0.0,0.0,-4.3438,-4.2464,-4.2439,-4.1936,-4.0852,-4.1254,-4.1254,-4.0852,-4.1254,-4.1229,-4.0852,-4.1354,-4.2082,-4.2961,-4.2539,-4.259,-4.2986,-4.2986,-4.2986,-4.2986,-4.2986,-4.2986,-4.2986,-4.2986,-4.2986,-4.2986,0.0,0.0,0.0,0.0,0.0,0.0,0.0,0.0,0.0,0.0,0.0,0.0,0.0,0.0,0.0,-3.109,0.0,0.0,0.0,0.0,0.0,-3.4183,-3.4606,-3.45,-3.3913,-3.3359,-3.2742,-3.2064,0.0,0.0,0.0,-3.6709,-3.809,0.0,0.0,-3.7387,-3.6737,-3.4751,-3.3571,-3.3093,-3.3345,-3.3144,-3.2641,-3.2265,-3.1813,-3.1311,-3.0708,-3.0658,-3.0909,-3.121,-3.1311,-3.126,-3.1035,0.0,0.0,0.0,-3.0181,0.0,0.0,0.0,0.0,0.0,0.0,0.0,0.0,0.0,0.0,0.0,0.0,0.0,0.0,0.0,0.0,0.0,0.0,0.0,0.0,0.0,0.0,0.0,0.0,0.0,0.0,0.0,0.0,0.0,0.0,0.0,0.0,-4.2158,-4.2057,-4.1254,-4.1229,0.0,-4.0074,-4.03,-4.045,-4.0526,-4.1025,-4.1175,-4.0924,-4.0849,-4.1153,-4.163,-4.2062,-4.2108,-4.2108,-4.2735,-4.2986,-4.2986,-4.2986,-4.2986,-4.2986,-4.2986,-4.2986,-4.2986,0.0,0.0,0.0,0.0,0.0,0.0,0.0,0.0,0.0,0.0,0.0,0.0,0.0,0.0,0.0,0.0,-3.0858,0.0,0.0,0.0,0.0,-3.2326,-3.304,-3.2998,-3.2014,-3.2441,-3.2039,0.0,0.0,0.0,-3.5378,-3.7161,-3.9421,0.0,-4.0074,-3.8718,-3.7663,-3.5454,-3.4223,-3.3646,-3.2943,-3.2566,-3.2365,-3.1662,-3.1311,-3.1085,-3.0281,-3.008,-3.0256,-3.0507,-3.0708,-3.0783,-3.0658,-3.0608,0.0,0.0,0.0,0.0,0.0,0.0,0.0,0.0,0.0,0.0,0.0,0.0,0.0,0.0,0.0,0.0,0.0,0.0,0.0,0.0,0.0,0.0,0.0,0.0,0.0,0.0,0.0,0.0,0.0,0.0,0.0,0.0,0.0,0.0,-4.0874,-4.1,-4.0824,-4.0325,-4.0174,-3.9898,-3.9496,-3.9496,-3.9697,-4.0099,-4.0651,-4.0852,-4.0701,-4.0425,-4.0149,-3.9948,-4.1204,-4.143,-4.1003,-4.2258,-4.2685,-4.2585,-4.2861,-4.2986,-4.2986,-4.2986,-4.2986,-4.2986,0.0,0.0,0.0,0.0,0.0,0.0,0.0,0.0,0.0,0.0,0.0,0.0,-3.1524,-3.1495,-3.1264,-3.0714,-3.0627,-3.0585,-3.0559,-2.9866,0.0,-3.0981,-3.0892,0.0,-3.1411,-3.1461,0.0,0.0,0.0,0.0,-3.7061,-3.7713,-4.0023,-4.3639,-4.3011,-4.0676,-3.7186,0.0,-3.5909,-3.5132,-3.2541,-3.1185,-3.0783,-3.1235,-3.1085,-3.0658,-3.0583,-3.0884,-3.1235,-3.0758,-3.0934,-3.126,-3.0758,-3.0608,-3.0507,0.0,0.0,0.0,0.0,0.0,0.0,0.0,0.0,0.0,0.0,0.0,0.0,0.0,0.0,0.0,0.0,0.0,0.0,0.0,0.0,0.0,0.0,0.0,0.0,0.0,0.0,0.0,0.0,0.0,0.0,0.0,0.0,0.0,-3.9848,-4.0275,-4.03,-3.9747,-3.922,-3.8994,-3.8969,-3.8969,-3.8969,-3.902,-3.9521,-3.9496,-3.9019,-3.9521,-3.9145,-3.8241,-3.9873,-4.03,-3.9898,-4.1584,-4.1882,-4.1476,-4.2585,-4.2986,-4.2986,-4.2986,-4.2986,-4.2986,0.0,0.0,0.0,0.0,0.0,0.0,0.0,0.0,0.0,0.0,0.0,0.0,0.0,-3.1756,-3.1438,-3.1206,-3.083,-3.0594,-3.0582,-2.9758,0.0,-3.1088,-3.0801,-3.0922,-3.1563,-3.1468,0.0,0.0,0.0,-3.1612,-3.4575,-3.6207,-3.7713,-3.9094,-4.0325,-4.0099,-3.8617,-3.5931,0.0,0.0,0.0,-3.1486,-3.1562,-3.0683,-3.0909,-3.1562,0.0,0.0,0.0,0.0,-3.1009,-3.0859,-3.0683,-3.0357,-3.0055,-2.9854,-2.9804,0.0,0.0,0.0,0.0,0.0,0.0,0.0,0.0,0.0,0.0,0.0,0.0,0.0,0.0,0.0,0.0,0.0,0.0,0.0,0.0,0.0,0.0,0.0,0.0,0.0,0.0,0.0,0.0,0.0,0.0,0.0,-3.922,-3.9346,-3.9195,-3.8642,-3.8417,-3.8316,-3.8316,-3.8743,-3.8743,-3.8316,-3.9245,-3.9396,-3.8944,-3.9446,-3.927,-3.8617,-3.9572,-3.9672,-3.927,-4.0576,-4.0978,-4.0802,-4.0852,-4.1078,-4.143,-4.1806,-4.2158,-4.2564,0.0,0.0,0.0,0.0,0.0,0.0,0.0,0.0,0.0,-3.1177,0.0,0.0,0.0,0.0,-3.199,-3.1524,-3.1119,-3.0739,-3.0296,-2.9736,-2.9866,-3.0926,-3.1056,-3.1293,-3.1693,0.0,0.0,0.0,0.0,0.0,0.0,-3.4951,-3.6217,-3.6553,-3.791,-3.8736,0.0,0.0,0.0,-3.4042,0.0,0.0,-3.2432,0.0,0.0,0.0,0.0,0.0,0.0,0.0,0.0,-3.0608,-3.0608,-3.0231,-2.9804,-2.9804,-2.9804,0.0,0.0,0.0,0.0,0.0,0.0,0.0,0.0,0.0,0.0,0.0,0.0,0.0,0.0,0.0,0.0,0.0,0.0,0.0,0.0,0.0,0.0,0.0,0.0,0.0,0.0,0.0,0.0,0.0,0.0,0.0,-3.8592,-3.8567,-3.8316,-3.7739,-3.7563,-3.7462,-3.7462,-3.7663,-3.7663,-3.7462,-3.8216,-3.8467,-3.8366,-3.8868,-3.8919,-3.8617,-3.9371,-3.927,-3.8693,-3.9973,-4.03,-3.9973,-4.0174,-4.0249,-4.0325,-4.1025,-4.1555,-4.1957,0.0,0.0,0.0,0.0,0.0,0.0,0.0,0.0,-3.1293,-3.0714,0.0,0.0,0.0,0.0,0.0,-3.1669,-3.1553,-3.1015,-2.9741,-2.9651,-2.9835,-3.0324,0.0,0.0,0.0,0.0,0.0,0.0,0.0,0.0,0.0,0.0,-3.5706,-3.659,-3.6269,-3.6813,-3.7813,0.0,-3.683,-3.6142,0.0,-3.2309,-3.3308,0.0,0.0,0.0,-3.4368,-3.3966,0.0,-3.2064,0.0,0.0,0.0,-3.0256,-2.9804,-2.9804,-2.9804,-2.9804,0.0,0.0,0.0,0.0,0.0,0.0,0.0,0.0,0.0,0.0,0.0,0.0,0.0,0.0,0.0,0.0,0.0,0.0,0.0,0.0,0.0,0.0,0.0,0.0,0.0,0.0,0.0,0.0,0.0,-3.799,-3.799,-3.7965,-3.7713,-3.7161,-3.6659,-3.6358,-3.6355,-3.5805,-3.5805,-3.6355,-3.6405,-3.6707,-3.7186,-3.7764,-3.804,-3.809,-3.922,-3.9069,-3.8191,-3.9798,-3.9848,-3.9019,-4.0626,-4.0601,-3.9772,-4.0824,-4.1225,-4.1326,0.0,0.0,0.0,0.0,0.0,0.0,0.0,-3.1119,-3.1437,0.0,0.0,0.0,-3.2249,-3.2977,-3.3358,-3.298,-3.2951,-3.2391,-3.1075,-3.052,-3.0732,-3.1813,-3.1564,0.0,0.0,0.0,0.0,0.0,0.0,0.0,0.0,0.0,0.0,0.0,-3.4513,-3.4778,-3.4752,-3.4677,0.0,0.0,-3.3631,-3.4098,0.0,0.0,0.0,0.0,0.0,-3.5815,-3.6011,0.0,-3.3771,-3.2792,0.0,-3.0532,-2.9804,-2.9804,-2.9804,-2.9804,-2.9804,0.0,0.0,0.0,0.0,0.0,0.0,0.0,0.0,0.0,0.0,0.0,0.0,0.0,0.0,0.0,0.0,0.0,0.0,0.0,0.0,0.0,0.0,0.0,0.0,0.0,0.0,0.0,0.0,-3.7839,-3.7437,-3.7036,-3.6558,-3.5984,-3.5809,-3.5533,-3.5177,-3.5382,-3.5382,-3.5177,-3.6383,-3.6835,-3.6659,-3.8015,-3.8617,-3.8668,-3.9396,-3.9521,-3.9245,-3.9295,-3.9145,-3.8868,-3.8919,-3.8743,-3.8617,-3.9747,-4.0149,-4.03,0.0,0.0,0.0,0.0,0.0,0.0,0.0,-3.2135,-3.2542,0.0,0.0,0.0,-3.3674,-3.4283,-3.4578,-3.4317,-3.4055,-3.3441,-3.2396,-3.1441,-3.1521,-3.2861,-3.2382,-3.2898,0.0,0.0,0.0,0.0,0.0,0.0,0.0,0.0,0.0,0.0,0.0,0.0,0.0,0.0,0.0,0.0,-3.4498,0.0,0.0,-3.6933,-3.8017,0.0,0.0,0.0,-3.8948,-3.7292,-3.5734,0.0,0.0,0.0,-3.0658,0.0,-2.9955,-3.0131,-3.0131,-3.0131,-3.0181,0.0,0.0,0.0,0.0,0.0,0.0,0.0,0.0,0.0,0.0,0.0,0.0,0.0,0.0,0.0,0.0,0.0,0.0,0.0,0.0,0.0,0.0,0.0,0.0,0.0,-3.6985,-3.6935,-3.6883,-3.6307,-3.5881,-3.5508,-3.5056,-3.4655,-3.4374,-3.4474,-3.4474,-3.4399,-3.5353,-3.578,-3.5755,-3.6935,-3.7613,-3.7913,-3.8642,-3.912,-3.9346,-3.9245,-3.9069,-3.8919,-3.8743,-3.8417,-3.814,-3.927,-3.9697,-3.9823,0.0,0.0,0.0,0.0,0.0,0.0,0.0,-3.3641,-3.4022,0.0,-3.3877,-3.4864,-3.5537,-3.6083,-3.6199,-3.5654,-3.498,-3.4312,-3.3649,-3.2338,-3.2135,-3.3358,-3.3387,-3.36,-3.4128,0.0,0.0,0.0,0.0,0.0,0.0,0.0,0.0,0.0,0.0,0.0,0.0,0.0,0.0,-3.3625,-3.5264,-3.6615,0.0,0.0,-4.1074,0.0,-4.1442,-4.1707,-4.1871,-3.9513,-3.7252,0.0,0.0,0.0,0.0,0.0,-3.0413,-3.0727,-3.0683,-3.0708,-3.0809,0.0,0.0,0.0,-2.9955,-3.0256,-3.0683,0.0,0.0,0.0,0.0,0.0,0.0,0.0,0.0,0.0,0.0,0.0,0.0,0.0,0.0,0.0,0.0,0.0,0.0,-3.5382,-3.5408,-3.5655,-3.6204,-3.5705,-3.5382,-3.5307,-3.4349,-3.3771,-3.3721,-3.3219,-3.3269,-3.3796,-3.3922,-3.4274,-3.4826,-3.5332,-3.5906,-3.6455,-3.7462,-3.8241,-3.8818,-3.9371,-3.9346,-3.907,-3.9496,-3.9044,-3.8241,-3.9295,-3.9647,-3.9672,-3.138,0.0,0.0,0.0,0.0,0.0,0.0,-3.4254,-3.4516,-3.4811,-3.5473,-3.6199,-3.6867,-3.7041,-3.707,-3.6954,-3.6315,-3.5444,-3.4312,-3.3035,-3.2425,-3.2687,-3.2716,-3.3198,-3.4306,0.0,0.0,0.0,0.0,0.0,0.0,0.0,0.0,0.0,0.0,0.0,0.0,0.0,0.0,-3.2887,-3.4761,0.0,-3.9545,-3.9474,-4.1159,-4.344,-4.2469,-4.2579,-4.2887,-4.0631,-3.8298,-3.6263,0.0,0.0,0.0,-3.228,0.0,0.0,0.0,0.0,0.0,0.0,0.0,0.0,-3.0105,-3.0532,-3.111,0.0,0.0,0.0,0.0,0.0,0.0,0.0,0.0,0.0,0.0,0.0,0.0,0.0,0.0,0.0,0.0,0.0,-3.4731,-3.4831,-3.4831,-3.4926,-3.5027,-3.4951,-3.4675,-3.4248,-3.3571,-3.3018,-3.2541,-3.2441,-3.2667,-3.3244,-3.4148,-3.4806,-3.5357,-3.5956,-3.6304,-3.6455,-3.7061,-3.7663,-3.8216,-3.8793,-3.922,-3.9546,-3.9647,-3.9295,-3.8768,-3.9446,-3.9421,-3.912,-3.1437,0.0,0.0,0.0,0.0,0.0,0.0,0.0,-3.5967,-3.6286,-3.7157,-3.7767,-3.7767,-3.8057,-3.8115,-3.7796,-3.7186,-3.6402,-3.5415,-3.3877,-3.3006,-3.3006,-3.2367,-3.2629,-3.3906,-3.3616,0.0,0.0,0.0,0.0,0.0,0.0,0.0,0.0,0.0,0.0,0.0,0.0,-3.2481,-3.2745,-3.5299,0.0,-3.9247,-4.0263,-4.2034,-4.3936,-4.3384,-4.3224,-4.298,-4.1254,-3.9522,0.0,0.0,-3.5605,-3.4627,0.0,-3.3539,-3.3196,0.0,0.0,0.0,-3.2515,0.0,0.0,0.0,-3.0583,0.0,0.0,0.0,0.0,0.0,0.0,0.0,0.0,0.0,0.0,0.0,0.0,0.0,0.0,0.0,0.0,0.0,0.0,-3.3696,-3.4274,-3.4299,-3.4424,-3.47,-3.4198,-3.3771,-3.3495,-3.2943,-3.2365,-3.1813,-3.2064,-3.2365,-3.2667,-3.4048,-3.468,-3.4751,-3.5303,-3.5554,-3.5554,-3.583,-3.6257,-3.686,-3.799,-3.8592,-3.8919,-3.9471,-3.9521,-3.932,-3.9597,-3.9521,-3.927,-3.1495,0.0,0.0,0.0,0.0,0.0,0.0,0.0,-3.707,-3.7447,-3.8492,-3.9044,-3.8609,-3.8957,-3.9189,-3.9131,-3.7883,-3.7157,-3.7215,-3.4898,-3.3503,-3.3503,-3.2338,-3.2135,-3.3097,-3.2716,0.0,0.0,0.0,0.0,0.0,0.0,0.0,0.0,0.0,0.0,0.0,0.0,0.0,-3.2948,0.0,-3.7302,-3.8086,-4.0437,-4.2121,-4.3282,-4.3544,-4.3195,-4.2469,-4.1453,0.0,-3.9276,-3.7307,-3.666,0.0,0.0,0.0,0.0,0.0,0.0,0.0,0.0,0.0,-3.2424,0.0,0.0,0.0,0.0,0.0,0.0,0.0,0.0,0.0,0.0,0.0,0.0,0.0,0.0,0.0,0.0,0.0,0.0,0.0,0.0,-3.2441,-3.3345,-3.342,-3.3621,-3.4048,-3.3244,-3.2784,-3.2784,-3.229,-3.1788,-3.1235,-3.1888,-3.2215,-3.224,-3.3696,-3.4274,-3.4073,-3.4299,-3.4474,-3.4575,-3.4575,-3.4831,-3.5458,-3.6935,-3.7663,-3.7965,-3.922,-3.9697,-3.9697,-3.9697,-3.9697,-3.9622,-3.1495,-3.1642,0.0,0.0,0.0,0.0,0.0,0.0,-3.6235,-3.7883,-3.8754,-3.9363,-3.9828,-3.9479,-4.0089,-4.2266,-3.8754,0.0,-4.0379,0.0,-3.3503,-3.3503,0.0,0.0,-3.1758,-3.222,-3.2191,0.0,0.0,0.0,0.0,0.0,0.0,0.0,-3.0598,0.0,0.0,0.0,-3.2832,0.0,-3.5014,-3.6002,0.0,-3.8115,-3.9421,-4.0699,-4.1889,-4.1889,-4.1279,0.0,-4.0271,-3.9208,0.0,-3.8101,-3.7118,0.0,0.0,0.0,0.0,0.0,0.0,0.0,-3.4981,0.0,0.0,0.0,0.0,0.0,0.0,0.0,0.0,0.0,0.0,0.0,0.0,0.0,0.0,0.0,0.0,0.0,0.0,0.0,0.0,0.0,0.0,-3.1662,-3.1662,-3.1687,-3.1763,-3.1637,-3.1587,-3.1587,-3.1512,-3.1235,-3.0708,-3.1712,-3.2215,-3.2215,-3.2918,-3.3746,-3.46,-3.3671,-3.352,-3.3997,-3.3997,-3.4299,-3.4831,-3.5508,-3.6408,-3.7437,-3.9069,-3.9697,-3.9697,-3.9697,-3.9697,-3.9697,-3.0974,-3.1584,0.0,0.0,0.0,0.0,0.0,0.0,-3.7883,-3.8667,-3.9683,-4.067,0.0,0.0,0.0,0.0,0.0,-4.006,0.0,0.0,-3.5706,-3.5706,0.0,0.0,0.0,-3.2336,-3.1756,0.0,-3.1148,0.0,0.0,0.0,0.0,0.0,-3.1119,0.0,-3.2104,0.0,0.0,0.0,0.0,0.0,0.0,-3.7447,-3.8986,-4.0205,-4.1163,-4.1076,-4.0408,0.0,-3.9334,0.0,0.0,0.0,0.0,0.0,0.0,0.0,0.0,0.0,0.0,0.0,0.0,0.0,-3.3359,0.0,-3.2257,0.0,0.0,0.0,0.0,0.0,0.0,0.0,0.0,0.0,0.0,0.0,0.0,0.0,0.0,0.0,0.0,0.0,0.0,0.0,0.0,-3.106,-3.1361,-3.111,-3.0934,-3.0934,-3.1235,-3.1135,-3.0633,-3.1662,-3.2039,-3.1763,-3.2968,-3.3621,-3.3771,-3.3621,-3.3671,-3.3872,-3.3571,-3.3545,-3.3847,-3.47,-3.5328,-3.5931,-3.7588,-3.8642,-3.9245,-3.9572,-3.9697,-3.9647,-3.0598,-3.1322,0.0,0.0,0.0,0.0,0.0,0.0,0.0,0.0,0.0,0.0,-4.2847,-4.2905,0.0,0.0,-4.3747,-4.2615,0.0,0.0,-3.7389,0.0,0.0,0.0,0.0,0.0,0.0,0.0,0.0,0.0,0.0,0.0,0.0,0.0,0.0,-3.1872,-3.2539,0.0,0.0,-3.3794,-3.4225,-3.4516,-3.4864,-3.6722,-3.8115,-3.916,-3.9828,-3.9741,-3.9218,-3.8463,-3.8522,0.0,-3.8173,0.0,0.0,0.0,0.0,0.0,-3.7912,0.0,0.0,0.0,0.0,0.0,0.0,0.0,0.0,0.0,0.0,0.0,0.0,0.0,0.0,0.0,0.0,0.0,0.0,0.0,0.0,0.0,0.0,0.0,0.0,0.0,0.0,0.0,-3.0507,0.0,-3.0708,-3.0507,-3.0382,-3.0382,-3.0909,-3.0984,-3.0608,-3.1662,-3.2014,-3.1637,-3.2842,-3.3319,-3.3136,-3.3319,-3.352,-3.3646,-3.3244,-3.3111,-3.3144,-3.3947,-3.4349,-3.4625,-3.5981,-3.7186,-3.8341,-3.9145,-3.9471,-3.9421,-3.0598,-3.0627,0.0,0.0,0.0,0.0,0.0,0.0,0.0,0.0,0.0,0.0,0.0,0.0,0.0,0.0,0.0,-4.4705,-4.6488,0.0,-3.7622,0.0,0.0,-3.4172,0.0,0.0,0.0,0.0,0.0,0.0,0.0,0.0,0.0,0.0,0.0,-3.1872,-3.2539,-3.3242,-3.3819,-3.437,-3.4399,-3.4777,-3.5363,0.0,-3.5886,-3.6519,-3.7186,0.0,0.0,-3.8028,-3.8202,0.0,0.0,0.0,0.0,0.0,0.0,0.0,0.0,0.0,0.0,-3.6802,0.0,0.0,0.0,0.0,-3.3936,0.0,0.0,0.0,0.0,0.0,-3.2572,-3.1474,-3.2228,0.0,0.0,0.0,0.0,0.0,0.0,0.0,0.0,0.0,0.0,0.0,-2.9528,0.0,-2.8988,-2.9528,-2.9829,-2.9829,-3.0357,-3.0633,-3.0608,-3.1662,-3.2215,-3.219,-3.224,-3.2541,-3.3068,-3.2516,-3.2566,-3.3093,-3.3136,-3.3111,-3.3111,-3.3162,-3.3445,-3.3972,-3.4575,-3.5479,-3.6681,-3.8341,-3.8944,-3.902,0.0,0.0,0.0,0.0,0.0,0.0,0.0,-3.5299,0.0,0.0,0.0,0.0,0.0,0.0,-4.903,0.0,0.0,-4.7666,-4.7462,-4.3631,0.0,0.0,0.0,-3.7273,0.0,0.0,0.0,0.0,0.0,0.0,0.0,0.0,0.0,0.0,0.0,-3.1872,0.0,0.0,0.0,0.0,0.0,-3.4806,-3.545,0.0,0.0,-3.6344,-3.6577,-3.6635,0.0,-3.6867,-3.6954,-3.6983,-3.7215,-3.6838,-3.6489,-3.7302,-3.7273,0.0,0.0,0.0,-3.8289,-3.7244,0.0,0.0,0.0,0.0,0.0,0.0,0.0,0.0,0.0,0.0,-3.3788,-3.3397,-3.334,-3.3056,0.0,0.0,0.0,0.0,0.0,0.0,0.0,0.0,0.0,-2.9707,-2.9048,-2.875,0.0,-2.9088,-2.9402,-2.9779,-3.0331,-3.0608,-3.0608,-3.1662,-3.2215,-3.2215,-3.2591,-3.2893,-3.3111,-3.2867,-3.2893,-3.3111,-3.3111,-3.3111,-3.3111,-3.3111,-3.3237,-3.3395,-3.3972,-3.4625,-3.5479,-3.7136,-3.799,-3.8316,-3.0656,0.0,0.0,0.0,0.0,0.0,0.0,0.0,0.0,0.0,-4.3079,0.0,-4.9524,0.0,-5.1062,0.0,-5.1556,-4.9959,-4.8217,-4.5547,0.0,-4.2034,-4.0612,0.0,0.0,0.0,0.0,0.0,0.0,-3.1758,0.0,0.0,0.0,0.0,0.0,0.0,0.0,0.0,-3.3707,0.0,0.0,-3.4661,0.0,0.0,-3.5764,-3.5967,0.0,-3.5967,-3.5996,-3.6228,-3.6315,-3.6344,-3.6548,-3.617,-3.5793,-3.6606,-3.6751,-3.6751,-3.736,-3.7854,0.0,-3.7447,-3.6983,0.0,-3.5595,0.0,0.0,0.0,0.0,0.0,0.0,0.0,-3.469,-3.4457,-3.4254,-3.3939,0.0,-3.2901,0.0,0.0,0.0,0.0,0.0,0.0,-3.0082,-2.915,-2.8718,-2.8504,0.0,0.0,-2.9202,-2.9779,-3.0131,-3.0407,-3.0608,-3.1311,-3.1838,-3.2215,-3.2591,-3.2767,-3.2767,-3.2993,-3.2968,-3.2792,-3.2993,-3.3111,-3.3111,-3.3111,-3.3111,-3.3119,-3.347,-3.3947,-3.4625,-3.6282,-3.7362,-3.804,0.0,0.0,0.0,0.0,-3.1729,0.0,0.0,0.0,-4.0554,0.0,-4.4995,-4.7416,-4.8808,-5.0656,-5.2252,-5.3442,-5.2949,0.0,-4.9001,-4.6998,0.0,0.0,-4.0873,-3.945,-3.577,0.0,0.0,0.0,0.0,0.0,0.0,0.0,0.0,0.0,-3.2133,0.0,-3.1553,-3.3467,-3.3993,-3.3561,-3.4109,-3.4399,-3.4457,-3.4428,0.0,-3.5392,-3.5363,-3.5363,-3.545,-3.5996,-3.6228,-3.6112,-3.5566,-3.4922,-3.4428,-3.4486,-3.4922,-3.5537,-3.6141,-3.7186,-3.797,-3.7389,0.0,0.0,0.0,0.0,-3.5909,0.0,0.0,0.0,0.0,0.0,0.0,-3.4516,-3.4922,-3.4724,-3.2861,0.0,0.0,0.0,0.0,0.0,0.0,-3.0726,-3.0007,-2.7592,-2.8373,0.0,0.0,0.0,0.0,-2.9779,-2.9804,-3.0055,-3.0557,-3.0608,-3.1135,-3.2139,-3.2164,-3.219,-3.224,-3.2792,-3.2742,-3.229,-3.2842,-3.3111,-3.3111,-3.3111,-3.3111,-3.3111,-3.3111,-3.342,-3.4098,-3.5776,-3.701,-3.804,-3.0743,-3.1351,-3.2309,0.0,-3.2919,-3.3325,0.0,0.0,0.0,0.0,-4.6853,-4.9465,-5.2688,-5.3471,-5.3907,-5.4226,-5.3239,0.0,0.0,0.0,0.0,-4.3747,-4.2905,-4.1599,-3.9654,-3.8696,0.0,-3.5822,0.0,0.0,-3.222,0.0,0.0,0.0,0.0,0.0,-3.0916,-3.2367,-3.318,-3.3503,-3.3678,-3.4317,0.0,0.0,-3.4806,-3.5334,-3.4835,-3.4661,-3.469,-3.4835,-3.4893,-3.4951,-3.5305,-3.4922,-3.4603,-3.5532,-3.559,-3.5537,-3.6141,-3.6548,-3.6751,-3.6606,-3.6199,-3.5799,0.0,0.0,0.0,0.0,0.0,0.0,0.0,0.0,0.0,-3.4428,-3.4545,-3.4486,0.0,0.0,0.0,0.0,0.0,0.0,0.0,0.0,-2.9639,-2.8972,-2.7825,0.0,0.0,0.0,0.0,-2.9754,-2.9804,-2.9854,-3.0005,-3.0407,-3.0758,-3.1035,-3.1411,-3.1813,-3.2215,-3.2365,-3.2591,-3.2867,-3.3018,-3.3111,-3.3111,-3.3111,-3.3111,-3.3111,-3.3111,-3.342,-3.4048,-3.5303,-3.6458,-3.7362,-3.1061,0.0,0.0,-3.5009,0.0,0.0,-3.7651,0.0,0.0,-4.4966,-4.7346,0.0,-5.1759,-5.2746,-5.3355,-5.3646,-5.2484,0.0,0.0,0.0,0.0,-4.4124,-4.3369,-4.2121,-4.0321,-3.945,0.0,-3.6025,0.0,0.0,-3.1642,0.0,0.0,0.0,0.0,-3.1322,0.0,-3.2077,-3.3035,-3.3848,-3.362,0.0,0.0,-3.4545,-3.4632,-3.4893,-3.4545,-3.4399,-3.4399,-3.4399,-3.4399,-3.4486,-3.4835,-3.469,-3.4545,-3.527,-3.5415,-3.5479,-3.5793,-3.6112,-3.6315,-3.6315,-3.6025,-3.5741,-3.545,-3.5392,-3.5218,0.0,0.0,0.0,0.0,0.0,0.0,-3.4399,-3.4399,0.0,0.0,0.0,0.0,0.0,0.0,0.0,0.0,0.0,0.0,0.0,0.0,0.0,0.0,0.0,0.0,-2.9754,-3.003,-3.003,-2.9804,-3.0331,-3.0608,-3.0633,-3.1135,-3.1436,-3.1537,-3.2265,-3.2491,-3.2365,-3.2867,-3.3111,-3.3111,-3.3111,-3.3111,-3.3111,-3.3111,-3.342,-3.3972,-3.46,-3.5529,-3.6458,0.0,0.0,0.0,0.0,0.0,0.0,0.0,-4.1744,0.0,-4.5024,0.0,-4.9117,-4.9117,-5.054,-5.173,-5.2281,0.0,-4.9901,-4.8682,-4.7358,-4.5634,-4.3224,-4.2963,-4.1744,-3.9363,-3.9596,0.0,0.0,0.0,0.0,0.0,0.0,0.0,0.0,0.0,0.0,0.0,-3.2048,-3.3006,0.0,-3.3558,-3.3761,-3.4399,-3.4399,-3.4399,-3.4399,-3.4399,-3.4399,-3.4399,-3.4399,-3.4399,-3.4399,-3.4399,-3.4399,-3.4399,-3.4399,-3.4806,-3.5276,-3.5276,-3.5648,-3.6054,-3.6054,-3.6054,-3.5909,-3.5392,-3.5276,-3.5101,-3.4516,-3.4399,-3.4399,0.0,0.0,0.0,0.0,0.0,0.0,0.0,0.0,0.0,0.0,0.0,0.0,0.0,0.0,0.0,0.0,0.0,0.0,0.0,0.0,0.0,0.0,-3.0256,0.0,-3.0005,0.0,-3.0583,-3.0708,-3.1035,-3.0984,-3.0658,-3.2164,-3.2315,-3.1461,-3.2491,-3.2968,-3.2968,-3.2968,-3.3061,-3.3111,-3.3111,-3.337,-3.3796,-3.3796,-3.4449,-3.5382,0.0,0.0,0.0,0.0,0.0,-4.1221,-4.3021,-4.4385,-4.5721,-4.7085,-4.9524,0.0,-5.112,-5.0946,-5.0888,-5.1004,-4.9814,0.0,0.0,0.0,0.0,-4.3892,-4.2818,-4.1541,-3.9973,-3.8522,-3.7186,0.0,0.0,0.0,0.0,0.0,0.0,0.0,0.0,0.0,-3.1496,-3.109,0.0,-3.28,-3.2716,-3.3383,-3.4399,-3.4399,-3.4399,-3.4399,-3.4399,-3.4399,-3.4399,-3.4399,-3.4399,-3.4399,-3.4399,-3.4399,-3.4399,-3.4399,-3.4486,-3.4574,-3.4574,-3.4661,-3.4748,-3.4748,-3.4748,-3.4719,-3.4603,-3.4574,-3.4545,-3.4428,-3.4399,-3.4399,-3.4399,0.0,0.0,0.0,0.0,0.0,0.0,0.0,0.0,0.0,0.0,0.0,0.0,0.0,0.0,0.0,0.0,0.0,0.0,0.0,0.0,0.0,0.0,0.0,0.0,0.0,0.0,-3.1235,-3.0457,-3.0256,-3.0633,-3.1361,-3.1587,-3.1436,-3.2089,-3.2365,-3.2365,-3.2365,-3.2641,-3.3111,-3.3111,-3.3187,-3.3219,-3.3219,-3.3621,-3.4324,0.0,0.0,0.0,0.0,0.0,0.0,0.0,-4.5837,0.0,-4.6795,-4.7579,-4.813,-4.813,-4.8449,-4.8682,-4.8682,-4.7491,-4.6592,-4.6301,-4.5082,-4.4124,-4.3515,-4.2266,0.0,-3.9654,-3.8115,-3.6809,-3.5822,0.0,0.0,0.0,0.0,0.0,0.0,0.0,-3.1495,0.0,0.0,0.0,-3.3006,-3.3006,-3.3558,-3.4399,-3.4399,-3.4225,-3.3906,-3.3906,-3.3906,-3.3964,-3.4283,-3.4399,-3.4399,-3.4399,-3.4399,-3.4399,-3.4399,-3.4399,-3.4399,-3.4399,-3.4399,-3.4399,-3.4399,-3.4399,-3.4399,-3.4399,-3.4399,-3.4399,-3.4399,-3.4399,-3.4399,-3.4399,-3.4399,0.0,0.0,0.0,0.0,0.0,0.0,0.0,0.0,0.0,0.0,0.0,0.0,0.0,0.0,0.0,0.0,0.0,0.0,0.0,0.0,0.0,0.0,0.0,0.0,0.0,-3.0557,-3.0331,-3.0206,-3.0206,-3.1035,-3.1235,-3.1035,-3.1863,-3.2215,-3.224,-3.2541,-3.2817,-3.3111,-3.3111,-3.3111,-3.3111,-3.3111,-3.342,-3.4022,0.0,-3.8318,0.0,0.0,-4.2382,0.0,0.0,-4.6214,-4.7056,-4.6214,-4.575,-4.5401,-4.514,-4.6011,-4.6517,-4.6417,-4.5372,-4.4589,-4.4298,-4.3369,-4.2673,-4.2382,-4.1308,-4.0147,-3.9015,-3.7738,-3.6402,0.0,0.0,0.0,0.0,0.0,0.0,0.0,0.0,0.0,0.0,0.0,-3.2745,-3.3503,-3.3503,-3.3794,-3.4225,-3.4225,-3.3819,-3.3329,-3.3445,-3.3416,-3.3416,-3.4167,-3.4399,-3.4399,-3.4399,-3.4399,-3.4399,-3.4399,-3.4399,-3.4399,-3.4399,-3.4399,-3.4399,-3.4399,-3.4399,-3.4399,-3.4399,-3.4399,-3.4399,-3.4399,-3.4399,-3.4399,-3.4399,-3.4399,0.0,0.0,0.0,0.0,0.0,0.0,0.0,0.0,0.0,0.0,0.0,0.0,0.0,0.0,0.0,0.0,0.0,0.0,0.0,0.0,0.0,-3.0331,-3.0131,0.0,-3.0407,0.0,-3.0507,-3.0457,-3.0156,-3.1135,-3.1286,-3.0834,-3.1788,-3.2215,-3.2265,-3.2842,-3.3111,-3.3111,-3.3111,-3.3111,-3.3111,-3.3111,-3.3345,-3.3796,0.0,0.0,0.0,0.0,0.0,0.0,0.0,-4.5198,-4.6214,-4.6633,-4.7201,-4.7056,-4.5924,-4.5895,-4.5721,-4.5111,-4.4472,-4.3573,-4.244,-4.2237,-4.1628,-4.0408,-3.9741,-3.9044,-3.8318,-3.7041,-3.5503,0.0,0.0,0.0,0.0,0.0,0.0,0.0,0.0,0.0,0.0,-3.1553,-3.2338,-3.3503,-3.3503,-3.3532,-3.359,-3.359,-3.3151,-3.2687,-3.33,-3.3093,-3.2803,-3.3993,-3.4399,-3.4399,-3.4399,-3.4399,-3.4399,-3.4399,-3.4399,-3.4399,-3.4399,-3.4399,-3.4399,-3.4399,-3.4399,-3.4399,-3.4399,-3.4399,-3.4399,-3.4399,-3.4399,-3.4399,-3.4399,-3.4399,-3.4399,0.0,0.0,0.0,0.0,0.0,0.0,0.0,0.0,0.0,0.0,0.0,0.0,0.0,0.0,0.0,0.0,0.0,0.0,-2.9754,0.0,-3.0306,-3.1235,-3.0331,0.0,-3.1964,-3.106,-3.0834,-3.126,-3.1863,-3.1838,-3.1361,-3.1964,-3.2215,-3.2265,-3.2842,-3.3111,-3.3111,-3.3111,-3.3111,-3.3111,-3.3111,-3.3119,-3.3244,0.0,0.0,0.0,0.0,0.0,0.0,0.0,-4.5285,-4.5837,-4.5692,-4.5576,-4.5459,-4.5314,-4.4618,-4.4037,-4.3776,-4.2847,-4.2034,-4.1541,-4.1105,-4.0641,-4.0118,-3.9509,-3.8725,-3.768,-3.678,-3.5561,0.0,0.0,0.0,0.0,0.0,0.0,0.0,0.0,-3.1495,-3.1524,-3.2367,-3.2774,-3.2919,-3.3358,-3.3271,-3.289,-3.289,-3.2483,-3.193,-3.2193,-3.2396,-3.2568,-3.309,-3.3529,-3.3906,-3.4283,-3.4399,-3.4399,-3.4399,-3.4399,-3.4399,-3.4399,-3.4399,-3.4399,-3.4399,-3.4399,-3.4399,-3.4399,-3.4399,-3.4399,-3.4399,-3.4399,-3.4399,-3.4399,-3.4399,-3.4399,0.0,0.0,0.0,0.0,0.0,0.0,0.0,0.0,0.0,0.0,0.0,0.0,0.0,0.0,0.0,0.0,0.0,0.0,-2.9793,0.0,-3.0005,-3.0432,-3.0005,-3.0105,-3.0758,-3.0331,-3.0407,-3.0934,-3.116,-3.1486,-3.1888,-3.2114,-3.2416,-3.2742,-3.2993,-3.3111,-3.3111,-3.3111,-3.3111,-3.3111,-3.3111,-3.3111,-3.3119,-4.1976,0.0,-4.2702,0.0,-4.3979,-4.4066,-4.4298,-4.4734,-4.4879,-4.4385,-4.3805,-4.366,-4.4269,-4.3515,-4.2934,-4.2731,-4.1715,-4.1018,-4.0815,-4.0205,-3.9741,-3.9538,-3.9131,0.0,-3.7331,-3.6664,-3.5677,-3.4399,-3.3964,0.0,0.0,0.0,0.0,0.0,-3.1089,-3.1495,-3.1553,-3.2513,-3.2861,-3.2832,-3.3093,-3.2919,-3.2452,-3.2278,-3.1816,-3.1293,-3.164,-3.1874,-3.2048,-3.26,-3.2977,-3.3325,-3.4167,-3.4399,-3.4399,-3.4399,-3.4399,-3.4399,-3.4399,-3.4399,-3.4399,-3.4399,-3.4399,-3.4399,-3.4399,-3.4399,-3.4399,-3.4399,-3.4399,-3.4399,-3.4399,-3.4399,-3.4399,-3.4399,0.0,0.0,0.0,0.0,0.0,0.0,0.0,-3.3678,-3.408,0.0,0.0,0.0,0.0,0.0,0.0,0.0,0.0,0.0,0.0,0.0,0.0,-2.9955,-3.0105,-3.0256,-3.0432,-3.0809,-3.1336,-3.1336,-3.1763,-3.2466,-3.2466,-3.2692,-3.3111,-3.3111,-3.3111,-3.3111,-3.3111,-3.3111,-3.3111,-3.3111,-3.3111,-3.3111,-4.1976,-4.2586,-4.3195,-4.3863,-4.3979,-4.3776,-4.3108,-4.3021,-4.3021,-4.3021,-4.2498,-4.2353,-4.2963,-4.2992,-4.276,-4.215,-4.1482,-4.0815,-4.0147,-3.9538,-3.8928,0.0,0.0,-3.7941,-3.7331,-3.6664,-3.5677,-3.4399,0.0,0.0,-3.1495,0.0,-3.1466,-3.1466,-3.1466,-3.1495,-3.1495,-3.1526,-3.228,-3.3445,-3.2774,-3.251,-3.2454,-3.1756,-3.1148,-3.0801,-3.2048,-3.1671,-3.0917,-3.2835,-3.3035,-3.2713,-3.4022,-3.4399,-3.4399,-3.4399,-3.4399,-3.4399,-3.4399,-3.4399,-3.4399,-3.4399,-3.4399,-3.4399,-3.4399,-3.4399,-3.4399,-3.4399,-3.4399,-3.4399,-3.4399,-3.4399,-3.4399,-3.4399,0.0,0.0,0.0,0.0,0.0,0.0,-3.3848,-3.3503,-3.3503,0.0,0.0,0.0,0.0,0.0,0.0,0.0,0.0,-2.9793,-3.0507,0.0,-2.9804,-3.0331,-3.0859,-3.1386,-3.1913,-3.2491,-3.3086,-3.3086,-3.3086,-3.3111,-3.3111,-3.3111,-3.3111,-3.3111,-3.3111,-3.3111,-3.3111,-3.3111,-3.3111,-3.3111,-3.3111,-3.3111,-4.2498,-4.2847,-4.305,-4.3282,-4.3689,-4.3776,-4.3079,-4.3369,-4.366,-4.366,-4.3108,-4.2789,-4.2963,-4.2615,-4.2121,0.0,-4.0815,-4.0147,0.0,-3.887,-3.8434,-3.8202,-3.8202,-3.7709,-3.6664,-3.6431,-3.5677,-3.4399,0.0,0.0,0.0,-3.2396,-3.1961,-3.1495,-3.1495,-3.1495,-3.1524,-3.1988,-3.2133,-3.2135,-3.1901,-3.1584,-3.1177,-3.0945,-3.0772,-3.0656,-3.1061,-3.1206,-3.1322,-3.1932,-3.26,-3.3238,-3.3678,-3.408,-3.4399,-3.4399,-3.4399,-3.4399,-3.4399,-3.4399,-3.4399,-3.4399,-3.4399,-3.4399,-3.4399,-3.4399,-3.4399,-3.4399,-3.4399,-3.4399,-3.4399,-3.4399,-3.4399,-3.4399,-3.4399,0.0,0.0,0.0,0.0,0.0,0.0,-3.4109,0.0,-3.3935,0.0,0.0,0.0,0.0,0.0,0.0,0.0,0.0,-3.0024,0.0,-3.0357,-3.0532,-3.0884,-3.1386,-3.1562,-3.1938,-3.2491,-3.2893,-3.3111,-3.3111,-3.3111,-3.3111,-3.3111,-3.3111,-3.3111,-3.3111,-3.3111,-3.3111,-3.3111,-3.3111,-3.3111,-3.3111,-4.244,-4.2644,-4.2644,-4.2644,-4.2992,-4.3137,-4.2731,-4.3021,-4.3282,-4.3282,-4.2905,-4.2557,-4.2295,-4.1947,0.0,-4.1134,-4.0495,-3.9828,-3.9247,-3.858,-3.8202,-3.8202,-3.8202,-3.7622,-3.6344,0.0,0.0,-3.4399,-3.4167,-3.3993,-3.379,-3.2919,-3.2278,-3.1843,-3.1611,-3.138,-3.1206,-3.1613,-3.17,-3.1466,-3.1264,-3.1061,-3.0887,-3.0685,-3.0598,-3.0627,-3.0858,-3.1032,-3.1206,-3.1438,-3.2048,-3.2774,-3.3035,-3.3558,-3.4109,-3.4341,-3.4399,-3.4399,-3.4399,-3.4399,-3.4399,-3.4399,-3.4399,-3.4399,-3.4399,-3.4399,-3.4399,-3.4399,-3.4399,-3.4399,-3.4399,-3.4399,-3.4399,-3.4399,-3.4399,-3.4399,-3.4399,0.0,0.0,0.0,0.0,0.0,0.0,-3.4399,0.0,0.0,0.0,0.0,0.0,0.0,0.0,-3.0228,-3.0739,0.0,-3.0608,-3.1331,-3.1686,-3.1712,-3.1913,-3.219,-3.2541,-3.2918,-3.3111,-3.3111,-3.3111,-3.3111,-3.3111,-3.3111,-3.3111,-3.3111,-3.3111,-3.3111,-3.3111,-3.3111,-3.3111,-3.3111,-4.1906,-4.2092,0.0,0.0,-4.2092,0.0,-4.2034,-4.2034,-4.2005,-4.1976,-4.1947,-4.1715,-4.1105,-4.1018,-4.1018,-4.096,0.0,0.0,0.0,-3.8551,-3.8202,-3.8202,-3.8173,-3.7564,-3.6344,-3.6257,-3.5648,-3.4399,-3.3819,-3.3848,-3.4399,-3.3151,-3.2568,-3.2542,-3.1814,-3.1206,-3.0656,-3.0627,-3.0916,-3.1409,-3.0829,-3.0945,-3.138,-3.083,-3.0598,-3.0685,-3.1235,-3.109,-3.0685,-3.1264,-3.1466,-3.1611,-3.222,-3.289,-3.3561,-3.4225,-3.4399,-3.4399,-3.4399,-3.4399,-3.4399,-3.4399,-3.4399,-3.4399,-3.4399,-3.4399,-3.4399,-3.4399,-3.4399,-3.4399,-3.4399,-3.4399,-3.4399,-3.4399,-3.4399,-3.4399,-3.4399,0.0,0.0,0.0,0.0,0.0,0.0,-3.4399,-3.4399,0.0,0.0,0.0,0.0,0.0,-3.1928,-3.0906,-3.2198,-3.2167,-3.0658,-3.2478,-3.3044,-3.229,-3.2902,-3.3197,-3.3197,-3.3197,-3.324,-3.3283,-3.3283,-3.3283,-3.3283,-3.3283,-3.324,-3.3197,-3.3197,-3.3154,-3.3111,-3.3111,-3.3111,-3.3111,0.0,0.0,-4.1856,-4.2051,-4.2092,-4.1918,-4.1395,-4.1337,-4.1163,-4.0641,-4.0583,-4.0495,-4.035,-4.0321,-4.0147,-3.9683,-3.9509,-3.9131,-3.8492,-3.8289,-3.8202,-3.8202,-3.7767,-3.7128,-3.6315,-3.5822,-3.5212,-3.4399,-3.4254,-3.4254,-3.4399,-3.3616,-3.3271,-3.318,-3.2048,-3.1438,-3.1264,-3.0801,-3.0685,-3.0801,-3.0656,-3.0685,-3.0801,-3.0656,-3.0598,-3.0627,-3.0772,-3.0743,-3.0627,-3.0772,-3.1119,-3.1555,-3.1669,-3.2222,-3.2977,-3.408,-3.4399,-3.4399,-3.4399,-3.4399,-3.4399,-3.4399,-3.4399,-3.4399,-3.4399,-3.4399,-3.4399,-3.4399,-3.4399,-3.4399,-3.4399,-3.4399,-3.4399,-3.4399,-3.4399,-3.4399,-3.4399,-3.4399,0.0,0.0,-3.4399,-3.4399,-3.4399,-3.4399,-3.4399,0.0,0.0,0.0,0.0,-3.3413,-3.2341,-3.0932,-3.1634,-3.1734,-3.121,-3.207,-3.2651,-3.291,-3.3716,-3.4105,-3.4105,-3.4105,-3.4413,-3.502,-3.502,-3.502,-3.502,-3.502,-3.4635,-3.4105,-3.4105,-3.3709,-3.3111,-3.3111,-3.3111,-3.3111,-4.0531,-4.1027,-4.1254,-4.1088,-4.1372,-4.1424,-4.0757,-4.0902,-4.0844,-4.0176,-4.0089,-4.0002,-3.9712,-3.9683,-3.9421,-3.8812,-3.9015,-3.8812,-3.7854,-3.7796,-3.7651,-3.7331,-3.7012,-3.6548,-3.588,-3.5566,-3.5072,-3.4399,-3.4399,-3.4399,-3.4399,-3.4051,-3.3765,-3.3445,-3.2425,-3.1785,-3.1437,-3.0858,-3.0598,-3.0598,-3.0598,-3.0598,-3.0598,-3.0598,-3.0598,-3.0598,-3.0598,-3.0598,-3.0598,-3.0598,-3.083,-3.1148,-3.1438,-3.1727,-3.2251,-3.3267,-3.3761,-3.3993,-3.3993,-3.4196,-3.4399,-3.4399,-3.4399,-3.4399,-3.4399,-3.4399,-3.4399,-3.4399,-3.4399,-3.4399,-3.4399,-3.4399,-3.4399,-3.4399,-3.4399,-3.4399,-3.4399,-3.4399,0.0,-3.4399,-3.4399,-3.4399,-3.4399,-3.4399,-3.4399,-3.4399,0.0,0.0,-3.4399,-3.3997,-3.3206,-3.1974,-3.284,-3.3081,-3.2567,-3.2952,-3.3166,-3.3111,-3.3581,-3.3836,-3.381,-3.423,-3.462,-3.5087,-3.5427,-3.5628,-3.5628,-3.5628,-3.5346,-3.4924,-3.4924,-3.4635,-3.422,-3.422,-3.422,-3.422,-3.9441,-4.006,-4.0412,-3.9837,-4.0383,-4.0688,-4.0021,-4.0398,-4.0543,-3.9915,-3.9789,-3.9586,-3.9102,-3.9044,-3.8812,-3.826,-3.8725,-3.8551,-3.7389,-3.7302,-3.7012,-3.6344,-3.6199,-3.5909,-3.5421,-3.5305,-3.4951,-3.4399,-3.4399,-3.4399,-3.4399,-3.4399,-3.408,-3.3474,-3.2803,-3.2135,-3.1437,-3.0858,-3.0598,-3.0598,-3.0598,-3.0598,-3.0598,-3.0598,-3.0598,-3.0598,-3.0598,-3.0598,-3.0598,-3.0598,-3.0598,-3.0685,-3.1206,-3.1438,-3.1611,-3.2162,-3.289,-3.3503,-3.3503,-3.3935,-3.4399,-3.4399,-3.4399,-3.4399,-3.4399,-3.4399,-3.4399,-3.4399,-3.4399,-3.4399,-3.4399,-3.4399,-3.4399,-3.4399,-3.4399,-3.4399,-3.4399,0.0,-3.4399,-3.4399,-3.4399,-3.4399,-3.4399,-3.4399,-3.4399,-3.4399,-3.4399,-3.4399,0.0,-3.4399,-3.4094,-3.3416,-3.4474,-3.4706,-3.4027,-3.4433,-3.4251,-3.3471,-3.3522,-3.3606,-3.3683,-3.4413,-3.4827,-3.4991,-3.5709,-3.5989,-3.5989,-3.5989,-3.5909,-3.5789,-3.5789,-3.5709,-3.5628,-3.5628,-3.5628,-3.5628,-3.9074,-3.9353,-3.9463,-3.955,-3.9808,-3.9783,-3.9188,-3.9188,-3.9054,-3.8542,-3.837,-3.8265,-3.8339,-3.8347,-3.8318,-3.8202,-3.8289,-3.8057,-3.736,-3.7302,-3.7012,-3.6344,-3.5793,-3.5508,-3.5392,-3.4835,-3.4516,-3.4399,-3.4399,-3.4399,-3.4399,-3.4399,-3.408,-3.3474,-3.2803,-3.2135,-3.1437,-3.0858,-3.0598,-3.0598,-3.0598,-3.0598,-3.0598,-3.0598,-3.0598,-3.0598,-3.0598,-3.0598,-3.0598,-3.0598,-3.0598,-3.0627,-3.0714,-3.109,-3.1495,-3.1611,-3.2513,-3.3503,-3.3503,-3.3935,-3.4399,-3.4399,-3.4399,-3.4399,-3.4399,-3.4399,-3.4399,-3.4399,-3.4399,-3.4399,-3.4399,-3.4399,-3.4399,-3.4399,-3.4399,-3.4399,-3.4399,0.0,-3.4399,-3.4399,-3.4399,-3.4399,-3.4399,-3.4399,-3.4399,-3.4399,-3.4399,-3.4399,-3.4399,-3.4399,-3.4332,-3.423,-3.4257,-3.4372,-3.4546,-3.5361,-3.5574,-3.5224,-3.5456,-3.5836,-3.6334,-3.6452,-3.6883,-3.7606,-3.772,-3.7796,-3.7796,-3.7796,-3.7347,-3.6688,-3.6688,-3.6227,-3.5628,-3.5628,-3.5628,-3.5628,-3.7913,-3.8371,-3.8604,-3.8382,-3.8807,-3.8925,-3.8294,-3.8494,-3.8533,-3.7949,-3.75,-3.7336,-3.7523,-3.7242,-3.7076,-3.7186,-3.7186,-3.6925,-3.6315,-3.6577,-3.6315,-3.5328,-3.5009,-3.4864,-3.4864,-3.4574,-3.4399,-3.4399,-3.4399,-3.4399,-3.4399,-3.4399,-3.4254,-3.3964,-3.3325,-3.2658,-3.1988,-3.1351,-3.0887,-3.0598,-3.0598,-3.0598,-3.0598,-3.0598,-3.0598,-3.0598,-3.0598,-3.0598,-3.0598,-3.0598,-3.0598,-3.0598,-3.0598,-3.1003,-3.1495,-3.1495,-3.2454,-3.3561,-3.3877,-3.4196,-3.4399,-3.4399,-3.4399,-3.4399,-3.4399,-3.4399,-3.4399,-3.4399,-3.4399,-3.4399,-3.4399,-3.4399,-3.4399,-3.4399,-3.4399,0.0,0.0,-3.4399,-3.4399,-3.4399,-3.4399,-3.4545,-3.4893,-3.4922,-3.5067,-3.5415,-3.5125,-3.4922,-3.4922,-3.4922,-3.4777,-3.4428,-3.4663,-3.5147,-3.588,-3.5934,-3.5881,-3.5601,-3.5754,-3.594,-3.6227,-3.6688,-3.7144,-3.7529,-3.8014,-3.8202,-3.8202,-3.8202,-3.7976,-3.7606,-3.7606,-3.7347,-3.7,-3.7,-3.7,-3.7,-3.6792,-3.7264,-3.7607,-3.7296,-3.7802,-3.81,-3.7405,-3.7758,-3.7843,-3.7253,-3.673,-3.6519,-3.6704,-3.628,-3.6036,-3.6244,-3.628,-3.6025,-3.545,-3.5822,-3.559,-3.4457,-3.4399,-3.4399,-3.4399,-3.4399,-3.4399,-3.4399,-3.4399,-3.4399,-3.4399,-3.4399,-3.4341,-3.4167,-3.3736,-3.3122,-3.2452,-3.1785,-3.1235,-3.0801,-3.0656,-3.0598,-3.0598,-3.0598,-3.0598,-3.0598,-3.0598,-3.0598,-3.0598,-3.0598,-3.0598,-3.0598,-3.0598,-3.1119,-3.1727,-3.1727,-3.2658,-3.379,-3.4283,-3.4399,-3.4399,-3.4399,-3.4399,-3.4399,-3.4399,-3.4399,-3.4399,-3.4399,-3.4399,-3.4399,-3.4399,-3.4399,-3.4399,-3.4399,0.0,0.0,0.0,-3.4399,-3.4399,-3.4399,-3.4545,-3.4835,-3.5363,-3.5537,-3.5793,-3.6286,-3.5741,-3.5392,-3.5392,-3.5392,-3.5247,-3.4864,-3.5328,-3.5971,-3.6769,-3.6458,-3.6294,-3.6188,-3.605,-3.605,-3.6227,-3.6883,-3.7222,-3.726,-3.791,-3.8202,-3.8202,-3.8202,-3.8202,-3.8202,-3.8202,-3.8202,-3.8202,-3.8202,-3.8202,-3.8202,-3.6061,-3.6202,-3.6399,-3.6933,-3.7229,-3.7214,-3.659,-3.6533,-3.6409,-3.5968,-3.5744,-3.5679,-3.5861,-3.5949,-3.6,-3.6,-3.6208,-3.6025,-3.545,-3.545,-3.516,-3.4457,-3.4399,-3.4399,-3.4399,-3.4399,-3.4399,-3.4399,-3.4399,-3.4399,-3.4399,-3.4399,-3.4109,-3.3561,-3.3532,-3.3122,-3.2452,-3.1785,-3.1466,-3.138,-3.0829,-3.0598,-3.0598,-3.0598,-3.0598,-3.0598,-3.0598,-3.0598,-3.0598,-3.0598,-3.0598,-3.0598,-3.0598,-3.1438,-3.2454,-3.2454,-3.3354,-3.4341,-3.4399,-3.4399,-3.4399,-3.4399,-3.4399,-3.4399,-3.4399,-3.4399,-3.4399,-3.4399,-3.4399,-3.4399,-3.4399,-3.4399,-3.4399,-3.4399,0.0,0.0,-3.4399,-3.4399,-3.4399,-3.4399,-3.4922,-3.5363,-3.5392,-3.5909,-3.6257,-3.6315,-3.5741,-3.5392,-3.5392,-3.5392,-3.5654,-3.6141,-3.6199,-3.628,-3.6324,-3.6903,-3.7482,-3.7985,-3.7436,-3.7465,-3.7985,-3.8089,-3.8089,-3.8127,-3.8165,-3.8202,-3.8202,-3.8202,-3.8202,-3.8202,-3.8202,-3.8202,-3.8202,-3.8202,-3.8202,-3.8202,-3.5414,-3.5527,-3.5611,-3.5836,-3.5968,-3.5921,-3.5695,-3.5667,-3.5619,-3.5439,-3.4998,-3.4772,-3.4952,-3.4825,-3.4708,-3.4813,-3.5021,-3.5038,-3.4777,-3.4777,-3.4661,-3.4428,-3.4399,-3.4399,-3.4399,-3.4399,-3.4399,-3.4399,-3.4399,-3.4399,-3.4399,-3.4399,-3.4283,-3.4051,-3.4051,-3.347,-3.2452,-3.222,-3.1671,-3.0916,-3.0685,-3.0598,-3.0598,-3.0598,-3.0598,-3.0598,-3.0598,-3.0598,-3.0598,-3.0598,-3.0598,-3.0598,-3.0598,-3.1467,-3.2655,-3.347,-3.4022,-3.4399,-3.4399,-3.4399,-3.4399,-3.4399,-3.4399,-3.4399,-3.4399,-3.4399,-3.4516,-3.4922,-3.5009,-3.5009,-3.5009,-3.5328,-3.5473,-3.5067,0.0,-3.559,-3.559,-3.559,-3.5444,-3.5038,-3.5561,-3.5938,-3.5938,-3.6548,-3.7099,-3.7447,-3.6925,-3.6373,-3.5967,-3.5212,-3.5444,-3.6867,-3.6519,-3.6519,-3.6925,-3.7186,-3.7622,-3.8202,-3.797,-3.797,-3.8202,-3.8202,-3.8202,-3.8202,-3.8202,-3.8202,-3.8202,-3.8202,-3.8202,-3.8202,-3.8202,-3.8202,-3.8202,-3.8202,-3.8202,-3.8202,-3.4759,-3.4908,-3.4964,-3.5161,-3.5189,-3.5133,-3.4936,-3.4908,-3.4823,-3.4626,-3.4225,-3.398,-3.4086,-3.393,-3.3848,-3.3922,-3.4162,-3.4298,-3.4298,-3.4332,-3.4399,-3.4399,-3.4399,-3.4399,-3.4399,-3.4399,-3.4399,-3.4399,-3.4225,-3.4109,-3.4109,-3.3906,-3.3786,-3.3819,-3.4022,-3.3529,-3.2481,-3.2481,-3.1874,-3.0858,-3.0685,-3.0598,-3.0598,-3.0598,-3.0598,-3.0598,-3.0598,-3.0598,-3.0598,-3.0598,-3.0598,-3.0598,-3.0598,-3.1467,-3.2774,-3.4051,-3.4399,-3.4399,-3.4399,-3.4399,-3.4399,-3.4399,-3.4399,-3.4399,-3.4399,-3.4399,-3.4603,-3.5276,-3.5392,-3.545,-3.5654,-3.6025,-3.617,-3.577,-3.6025,-3.6228,-3.6025,-3.617,-3.5996,-3.5189,-3.5996,-3.6548,-3.6315,-3.7099,-3.7767,-3.8173,-3.7651,-3.7099,-3.6635,-3.5415,-3.5503,-3.7244,-3.6664,-3.6635,-3.7302,-3.7506,-3.7796,-3.8202,-3.8202,-3.8202,-3.8202,-3.8202,-3.8202,-3.8202,-3.8202,-3.8202,-3.8202,-3.8202,-3.8202,-3.8202,-3.8202,-3.8202,-3.8202,-3.8202,-3.8202,-3.8202,-3.4076,-3.4189,-3.4385,-3.5077,-3.5189,-3.4964,-3.4273,-3.4189,-3.3964,-3.3375,-3.329,-3.329,-3.329,-3.3466,-3.3605,-3.3605,-3.3888,-3.4094,-3.4094,-3.4298,-3.4399,-3.4399,-3.4399,-3.4399,-3.4399,-3.4399,-3.4399,-3.4399,-3.3794,-3.3503,-3.3474,-3.2803,-3.2481,-3.2542,-3.3213,-3.3122,-3.2481,-3.2481,-3.2135,-3.1437,-3.0829,-3.0598,-3.0598,-3.0598,-3.0598,-3.0598,-3.0598,-3.0598,-3.0627,-3.0627,-3.0627,-3.0627,-3.0627,-3.1496,-3.2774,-3.4051,-3.4399,-3.4399,-3.4399,-3.4399,-3.4399,-3.4399,-3.4399,-3.4399,-3.4399,-3.4399,-3.4603,-3.5276,-3.5421,-3.5595,-3.6199,-3.6315,-3.6315,-3.6315,-3.6315,-3.6112,-3.5508,-3.5909,-3.5851,-3.4574,-3.6141,-3.7041,-3.6373,-3.7447,-3.8202,-3.8202,-3.7651,-3.7302,-3.7331,-3.6119,-3.6002,-3.7273,-3.6664,-3.6635,-3.7302,-3.7912,-3.8202,-3.8202,-3.8202,-3.8202,-3.8202,-3.8202,-3.8202,-3.8202,-3.8202,-3.8202,-3.8202,-3.8202,-3.8202,-3.8202,-3.8202,-3.8202,-3.8202,-3.8202,-3.8202,-3.8202,-3.3515,-3.3571,-3.3627,-3.3831,-3.3859,-3.3803,-3.3599,-3.3571,-3.3487,-3.3319,-3.329,-3.329,-3.329,-3.3466,-3.3605,-3.3605,-3.3888,-3.4162,-3.4298,-3.4366,-3.4399,-3.4399,-3.4399,-3.4399,-3.4399,-3.4399,-3.4196,-3.3794,-3.359,-3.3271,-3.2803,-3.26,-3.2745,-3.3213,-3.2919,-3.2687,-3.2452,-3.1988,-3.1438,-3.0829,-3.0685,-3.0598,-3.0598,-3.0598,-3.0598,-3.0598,-3.0598,-3.0858,-3.1235,-3.1235,-3.1555,-3.2019,-3.2486,-3.2571,-3.2774,-3.4051,-3.4399,-3.4399,-3.4399,-3.4399,-3.4399,-3.4399,-3.4399,-3.4399,-3.4399,-3.4399,-3.4719,-3.5793,-3.6025,-3.6228,-3.6896,-3.736,-3.7506,-3.707,-3.7012,-3.7099,-3.7331,-3.6751,-3.617,-3.5793,-3.6664,-3.7041,-3.6373,-3.7447,-3.8202,-3.8202,-3.7651,-3.7476,-3.7912,-3.6722,-3.6606,-3.7883,-3.6867,-3.6635,-3.7302,-3.7912,-3.8202,-3.8202,-3.8202,-3.8202,-3.8202,-3.8202,-3.8202,-3.8202,-3.8202,-3.8202,-3.8202,-3.8202,-3.8202,-3.8202,-3.8202,-3.8202,-3.8202,-3.8202,-3.8202,-3.8202,-3.329,-3.329,-3.329,-3.329,-3.329,-3.329,-3.329,-3.329,-3.329,-3.329,-3.329,-3.329,-3.329,-3.3396,-3.3466,-3.3466,-3.3744,-3.3991,-3.4191,-3.423,-3.4264,-3.4264,-3.4332,-3.4399,-3.4399,-3.4399,-3.4109,-3.3503,-3.3209,-3.2774,-3.2075,-3.1874,-3.1961,-3.2341,-3.2193,-3.199,-3.1729,-3.1584,-3.1148,-3.0598,-3.0598,-3.0598,-3.0598,-3.0598,-3.0598,-3.0598,-3.0598,-3.0829,-3.1148,-3.1148,-3.1584,-3.228,-3.3213,-3.3209,-3.3093,-3.4109,-3.4399,-3.4399,-3.4399,-3.4399,-3.4399,-3.4399,-3.4399,-3.4399,-3.4399,-3.4399,-3.469,-3.5735,-3.5938,-3.6199,-3.7128,-3.7593,-3.7796,-3.768,-3.768,-3.7622,-3.7476,-3.7012,-3.6431,-3.5648,-3.6606,-3.7041,-3.6373,-3.7447,-3.8202,-3.8202,-3.7854,-3.7825,-3.8173,-3.7244,-3.7157,-3.8173,-3.6954,-3.6635,-3.7302,-3.7389,-3.7447,-3.7447,-3.797,-3.8086,-3.7854,-3.8086,-3.8202,-3.8202,-3.8202,-3.8202,-3.8202,-3.8202,-3.8202,-3.8202,-3.8202,-3.8202,-3.8202,-3.8202,-3.8202,-3.8202,-3.329,-3.329,-3.329,-3.329,-3.329,-3.329,-3.329,-3.329,-3.329,-3.329,-3.329,-3.329,-3.329,-3.329,-3.329,-3.329,-3.3466,-3.3675,-3.3882,-3.4054,-3.4094,-3.4094,-3.4298,-3.4399,-3.4399,-3.4399,-3.4109,-3.3503,-3.289,-3.2249,-3.1553,-3.0945,-3.0743,-3.0888,-3.1322,-3.1235,-3.083,-3.138,-3.1206,-3.0598,-3.0656,-3.0656,-3.0598,-3.0598,-3.0598,-3.0598,-3.0598,-3.0627,-3.0685,-3.0743,-3.1119,-3.1816,-3.3038,-3.3445,-3.362,-3.4167,-3.437,-3.4399,-3.4399,-3.4399,-3.4399,-3.4399,-3.4399,-3.4399,-3.4399,-3.4399,-3.4603,-3.5334,-3.5479,-3.5857,-3.707,-3.736,-3.7564,-3.8057,-3.8115,-3.7709,-3.6548,-3.6838,-3.6489,-3.4777,-3.6141,-3.6983,-3.646,-3.7506,-3.8202,-3.8202,-3.8202,-3.8202,-3.8202,-3.768,-3.7651,-3.8173,-3.7041,-3.6693,-3.7302,-3.6635,-3.6315,-3.6315,-3.7476,-3.7738,-3.7244,-3.7854,-3.8115,-3.8115,-3.8173,-3.8202,-3.8202,-3.8202,-3.8202,-3.8202,-3.8202,-3.8202,-3.8202,-3.8202,-3.8202,-3.8202,-3.329,-3.329,-3.329,-3.329,-3.329,-3.329,-3.329,-3.329,-3.329,-3.329,-3.329,-3.329,-3.329,-3.329,-3.329,-3.329,-3.3466,-3.3675,-3.3882,-3.4054,-3.4094,-3.4094,-3.4298,-3.4399,-3.4399,-3.4399,-3.4109,-3.3503,-3.3358,-3.2919,-3.2249,-3.1613,-3.1874,-3.2835,-3.1903,-3.1729,-3.2106,-3.2251,-3.1642,-3.0656,-3.1119,-3.1003,-3.0598,-3.0598,-3.0598,-3.0598,-3.0598,-3.0887,-3.1409,-3.1932,-3.2193,-3.2307,-3.2629,-3.3064,-3.3532,-3.3678,-3.4022,-3.4399,-3.4399,-3.4399,-3.4399,-3.4399,-3.4399,-3.4399,-3.4399,-3.4399,-3.4748,-3.588,-3.6112,-3.6344,-3.7157,-3.768,-3.7883,-3.7564,-3.7506,-3.7418,-3.7128,-3.6344,-3.5822,-3.588,-3.6257,-3.6664,-3.7041,-3.7767,-3.8202,-3.8202,-3.8202,-3.8202,-3.8202,-3.8086,-3.8057,-3.8202,-3.7476,-3.7157,-3.7302,-3.6635,-3.6315,-3.6315,-3.6577,-3.6664,-3.6548,-3.7215,-3.7506,-3.7535,-3.7999,-3.8202,-3.8202,-3.8202,-3.8202,-3.8202,-3.8202,-3.8202,-3.8202,-3.8202,-3.8202,-3.8202,-3.329,-3.329,-3.329,-3.329,-3.329,-3.329,-3.329,-3.329,-3.329,-3.329,-3.329,-3.329,-3.329,-3.329,-3.329,-3.329,-3.3396,-3.3501,-3.3605,-3.3779,-3.3888,-3.402,-3.4162,-3.4298,-3.4399,-3.4399,-3.4109,-3.3503,-3.3503,-3.3151,-3.2481,-3.2133,-3.2367,-3.2977,-3.1961,-3.1669,-3.1988,-3.1729,-3.1206,-3.0627,-3.0945,-3.0858,-3.0598,-3.0598,-3.0598,-3.0598,-3.0598,-3.0801,-3.1206,-3.2193,-3.2481,-3.2629,-3.3206,-3.3645,-3.3906,-3.3906,-3.4138,-3.4399,-3.4399,-3.4399,-3.4399,-3.4399,-3.4399,-3.4399,-3.4399,-3.4399,-3.469,-3.5648,-3.5851,-3.6141,-3.7128,-3.7564,-3.7767,-3.7738,-3.7738,-3.7535,-3.6925,-3.6519,-3.617,-3.588,-3.6402,-3.7041,-3.768,-3.8028,-3.8202,-3.8202,-3.8202,-3.8202,-3.8202,-3.8202,-3.8202,-3.8202,-3.7622,-3.7157,-3.6838,-3.617,-3.5706,-3.5415,-3.6025,-3.6315,-3.6315,-3.6983,-3.7476,-3.7767,-3.8057,-3.8202,-3.8202,-3.8202,-3.8202,-3.8202,-3.8202,-3.8028,-3.7825,-3.8086,-3.8202,-3.8202,-3.329,-3.329,-3.329,-3.329,-3.329,-3.329,-3.329,-3.329,-3.329,-3.329,-3.329,-3.329,-3.329,-3.329,-3.329,-3.329,-3.329,-3.329,-3.329,-3.3536,-3.3709,-3.3848,-3.4025,-3.4196,-3.4332,-3.4366,-3.4138,-3.3649,-3.3649,-3.3354,-3.28,-3.2716,-3.2745,-3.2771,-3.2048,-3.1669,-3.1642,-3.1119,-3.0801,-3.0627,-3.0714,-3.0685,-3.0598,-3.0598,-3.0598,-3.0627,-3.0743,-3.083,-3.1092,-3.2164,-3.26,-3.2861,-3.379,-3.4225,-3.4399,-3.4283,-3.4341,-3.4399,-3.4399,-3.4399,-3.4399,-3.4399,-3.4399,-3.4399,-3.4399,-3.4486,-3.4748,-3.5421,-3.5654,-3.606,-3.7099,-3.7389,-3.7593,-3.7999,-3.8144,-3.7796,-3.6635,-3.6954,-3.6896,-3.5857,-3.6751,-3.7651,-3.8144,-3.8202,-3.8202,-3.8202,-3.8202,-3.8202,-3.8202,-3.8202,-3.8202,-3.8202,-3.7709,-3.7186,-3.6635,-3.6031,-3.5479,-3.4922,-3.5851,-3.6257,-3.617,-3.6838,-3.7476,-3.8057,-3.8173,-3.8202,-3.8202,-3.8202,-3.8144,-3.8057,-3.8173,-3.7767,-3.7215,-3.7825,-3.8115,-3.8202,-3.329,-3.329,-3.329,-3.329,-3.329,-3.329,-3.329,-3.329,-3.329,-3.329,-3.329,-3.329,-3.329,-3.329,-3.329,-3.329,-3.329,-3.329,-3.329,-3.364,-3.3779,-3.364,-3.4094,-3.4298,-3.4128,-3.4298,-3.437,-3.4283,-3.4283,-3.4225,-3.4138,-3.3587,-3.3645,-3.4109,-3.2919,-3.2336,-3.2336,-3.228,-3.1613,-3.0656,-3.1177,-3.1061,-3.0598,-3.0598,-3.0598,-3.0685,-3.1206,-3.1758,-3.228,-3.2454,-3.289,-3.33,-3.289,-3.3496,-3.4312,-3.3794,-3.3993,-3.4399,-3.4399,-3.4399,-3.4399,-3.4399,-3.4399,-3.4399,-3.4399,-3.4835,-3.545,-3.6054,-3.6635,-3.7099,-3.7273,-3.7738,-3.7941,-3.7506,-3.7854,-3.797,-3.7273,-3.7244,-3.7244,-3.707,-3.7651,-3.8115,-3.8202,-3.8202,-3.8202,-3.8202,-3.8202,-3.8202,-3.8202,-3.8202,-3.8202,-3.8202,-3.8115,-3.8028,-3.7941,-3.7331,-3.7012,-3.6896,-3.6489,-3.6025,-3.5537,-3.6141,-3.6809,-3.7447,-3.797,-3.8202,-3.8202,-3.8202,-3.7883,-3.7476,-3.7999,-3.7476,-3.6519,-3.7186,-3.7767,-3.8202,-3.329,-3.329,-3.329,-3.329,-3.329,-3.329,-3.329,-3.329,-3.329,-3.329,-3.329,-3.329,-3.329,-3.329,-3.329,-3.329,-3.329,-3.329,-3.329,-3.3466,-3.364,-3.3744,-3.3985,-3.4191,-3.4264,-3.4332,-3.4399,-3.4399,-3.4399,-3.4399,-3.4399,-3.4138,-3.3964,-3.3848,-3.2919,-3.2278,-3.193,-3.193,-3.1438,-3.0656,-3.1264,-3.1148,-3.0598,-3.0598,-3.083,-3.1177,-3.1845,-3.2249,-3.2539,-3.2919,-3.3271,-3.3503,-3.3558,-3.3964,-3.437,-3.408,-3.4196,-3.4399,-3.4399,-3.4399,-3.4399,-3.4399,-3.4399,-3.4516,-3.4864,-3.5444,-3.5967,-3.6257,-3.6548,-3.6954,-3.768,-3.8028,-3.8115,-3.7854,-3.8028,-3.7999,-3.7389,-3.7593,-3.7796,-3.7796,-3.8057,-3.8202,-3.8202,-3.8202,-3.8202,-3.8202,-3.8202,-3.8202,-3.8202,-3.8202,-3.8202,-3.8202,-3.8202,-3.8057,-3.7709,-3.7447,-3.7128,-3.6751,-3.646,-3.617,-3.5909,-3.6577,-3.7041,-3.7331,-3.7941,-3.8202,-3.8202,-3.8202,-3.8057,-3.7796,-3.7738,-3.7128,-3.6344,-3.6635,-3.7157,-3.7767]}]]